[[{"header":{"parameterUnit":"m.s-1","parameterCategory":1,"la1":31.0,"la2":29.5877,"lo1":-88.7671,"lo2":-86.6584,"dy":0.0162,"dx":0.0185,"nx":115,"ny":88,"refTime":"2023-07-02T06:00:00:Z","depth":0,"parameterNumber":2,"parameterNumberName":"U-component_of_WINDS"},"data":[0.0,0.0,0.0,0.0,0.0,0.0,0.0,0.0,0.0,0.0,0.0,0.0,0.0,0.0,0.0,0.0,0.0,0.0,0.0,0.0,0.0,0.0,0.0,0.0,0.0,0.0,0.0,0.0,0.0,0.0,0.0,0.0,0.0,0.0,0.0,0.0,0.0,0.0,0.0,0.0,0.0,0.0,0.0,0.0,0.0,0.0,0.0,0.0,0.0,0.0,0.0,0.0,0.0,0.0,0.0,0.0,0.0,0.0,0.0,0.0,0.0,0.0,0.0,0.0,0.0,0.0,0.0,0.0,0.0,0.0,0.0,0.0,0.0,0.0,0.0,0.0,0.0,0.0,0.0,0.0,0.0,0.0,0.0,0.0,0.0,0.0,0.0,0.0,0.0,0.0,0.0,0.0,0.0,0.0,0.0,0.0,0.0,0.0,0.0,0.0,0.0,0.0,0.0,0.0,0.0,0.0,0.0,0.0,0.0,0.0,0.0,0.0,0.0,0.0,0.0,0.0,0.0,0.0,0.0,0.0,0.0,0.0,0.0,0.0,0.0,0.0,0.0,0.0,0.0,0.0,0.0,0.0,0.0,0.0,0.0,0.0,0.0,0.0,0.0,0.0,0.0,0.0,0.0,0.0,0.0,0.0,0.0,0.0,0.0,0.0,0.0,0.0,0.0,0.0,0.0,0.0,0.0,0.0,0.0,0.0,0.0,0.0,0.0,0.0,0.0,0.0,0.0,0.0,0.0,0.0,0.0,0.0,0.0,0.0,0.0,0.0,0.0,0.0,0.0,0.0,0.0,0.0,0.0,0.0,0.0,0.0,0.0,0.0,0.0,0.0,0.0,0.0,0.0,0.0,0.0,0.0,0.0,0.0,0.0,0.0,0.0,0.0,0.0,0.0,0.0,0.0,0.0,0.0,0.0,0.0,0.0,0.0,0.0,0.0,0.0,0.0,0.0,0.0,0.0,0.0,0.0,0.0,0.0,0.0,0.0,0.0,0.0,0.0,0.0,0.0,0.0,0.0,0.0,0.0,0.0,0.0,0.0,0.0,0.0,0.0,0.0,0.0,0.0,0.0,0.0,0.0,0.0,0.0,0.0,0.0,0.0,0.0,0.0,0.0,0.0,0.0,0.0,0.0,0.0,0.0,0.0,0.0,0.0,0.0,0.0,0.0,0.0,0.0,0.0,0.0,0.0,0.0,0.0,0.0,0.0,0.0,0.0,0.0,0.0,0.0,0.0,0.0,0.0,0.0,0.0,0.0,0.0,0.0,0.0,0.0,0.0,0.0,0.0,0.0,0.0,0.0,0.0,0.0,0.0,0.0,0.0,0.0,0.0,0.0,0.0,0.0,0.0,0.0,0.0,0.0,0.0,0.0,0.0,0.0,0.0,0.0,0.0,0.0,0.0,0.0,0.0,0.0,0.0,0.0,0.0,0.0,0.0,0.0,0.0,0.0,0.0,0.0,0.0,0.0,0.0,0.0,0.0,0.0,0.0,0.0,0.0,0.0,0.0,0.0,0.0,0.0,0.0,0.0,0.0,0.0,0.0,0.0,0.0,0.0,0.0,0.0,0.0,0.0,0.0,0.0,0.0,0.0,0.0,0.0,0.0,0.0,0.0,0.0,0.0,0.0,0.0,0.0,0.0,0.0,0.0,0.0,0.0,0.0,0.0,0.0,0.0,0.0,0.0,0.0,0.0,0.0,0.0,0.0,0.0,0.0,0.0,0.0,0.0,0.0,0.0,0.0,0.0,0.0,0.0,0.0,0.0,0.0,0.0,0.0,0.0,0.0,0.0,0.0,0.0,0.0,0.0,0.0,0.0,0.0,0.0,0.0,0.0,0.0,0.0,0.0,0.0,0.0,0.0,0.0,0.0,0.0,0.0,0.0,0.0,0.0,0.0,0.0,0.0,0.0,0.0,0.0,0.0,0.0,0.0,0.0,0.0,0.0,0.0,0.0,0.0,0.0,0.0,0.0,0.0,0.0,0.0,0.0,0.0,0.0,0.0,0.0,0.0,0.0,0.0,0.0,0.0,0.0,0.0,0.0,0.0,0.0,0.0,0.0,0.0,0.0,0.0,0.0,0.0,0.0,0.0,0.0,0.0,0.0,0.0,0.0,0.0,0.0,0.0,0.0,0.0,0.0,0.0,0.0,0.0,0.0,0.0,0.0,0.0,0.0,0.0,0.0,0.0,0.0,0.0,0.0,0.0,0.0,0.0,0.0,0.0,0.0,0.0,0.0,0.0,0.0,0.0,0.0,0.0,0.0,0.0,0.0,0.0,0.0,0.0,0.0,0.0,0.0,0.0,0.0,0.0,0.0,0.0,0.0,0.0,0.0,0.0,0.0,0.0,0.0,0.0,0.0,0.0,0.0,0.0,0.0,0.0,0.0,0.0,0.0,0.0,0.0,0.0,0.0,0.0,0.0,0.0,0.0,0.0,0.0,0.0,0.0,0.0,0.0,0.0,0.0,0.0,0.0,0.0,0.0,0.0,0.0,0.0,0.0,0.0,0.0,0.0,0.0,0.0,0.0,0.0,0.0,0.0,0.0,0.0,0.0,0.0,0.0,0.0,0.0,0.0,0.0,0.0,0.0,0.0,0.0,0.0,0.0,0.0,0.0,0.0,0.0,0.0,0.0,0.0,0.0,0.0,0.0,0.0,0.0,0.0,0.0,0.0,0.0,0.0,0.0,0.0,0.0,0.0,0.0,0.0,0.0,0.0,0.0,0.0,0.0,0.0,0.0,0.0,0.0,0.0,0.0,0.0,0.0,0.0,0.0,0.0,0.0,0.0,0.0,0.0,0.0,0.0,0.0,0.0,0.0,0.0,0.0,0.0,0.0,0.0,0.0,0.0,0.0,0.0,0.0,0.0,0.0,0.0,0.0,0.0,0.0,0.0,0.0,0.0,0.0,0.0,0.0,0.0,0.0,0.0,0.0,0.0,0.0,0.0,0.0,0.0,0.0,0.0,0.0,0.0,0.0,0.0,0.0,0.0,0.0,0.0,0.0,0.0,0.0,0.0,0.0,0.0,0.0,0.0,0.0,0.0,0.0,0.0,0.0,0.0,0.0,0.0,0.0,0.0,0.0,0.0,0.0,0.0,0.0,0.0,0.0,0.0,0.0,0.0,0.0,0.0,0.0,0.0,0.0,0.0,0.0,0.0,0.0,0.0,0.0,0.0,0.0,0.0,0.0,0.0,0.0,0.0,0.0,0.0,0.0,0.0,0.0,0.0,0.0,0.0,0.0,0.0,0.0,0.0,0.0,0.0,0.0,0.0,0.0,0.0,0.0,0.0,0.0,0.0,0.0,0.0,0.0,0.0,0.0,0.0,0.0,0.0,0.0,0.0,0.0,0.0,0.0,0.0,0.0,0.0,0.0,0.0,0.0,0.0,0.0,0.0,0.0,0.0,0.0,0.0,0.0,0.0,0.0,0.0,0.0,0.0,0.0,0.0,0.0,0.0,0.0,0.0,0.0,0.0,0.0,0.0,0.0,0.0,0.0,0.0,0.0,0.0,0.0,0.0,0.0,0.0,0.0,0.0,0.0,0.0,0.0,0.0,0.0,0.0,0.0,0.0,0.0,0.0,0.0,0.0,0.0,0.0,0.0,0.0,0.0,0.0,0.0,0.0,0.0,0.0,0.0,0.0,0.0,0.0,0.0,0.0,0.0,0.0,0.0,0.0,0.0,0.0,0.0,0.0,0.0,0.0,0.0,0.0,0.0,0.0,0.0,0.0,0.0,0.0,0.0,0.0,0.0,0.0,0.0,0.0,0.0,0.0,0.0,0.0,0.0,0.0,0.0,0.0,0.0,0.0,0.0,0.0,0.0,0.0,0.0,0.0,0.0,0.0,0.0,0.0,0.0,0.0,0.0,0.0,0.0,0.0,0.0,0.0,0.0,0.0,0.0,0.0,0.0,0.0,0.0,0.0,0.0,0.0,0.0,0.0,0.0,0.0,0.0,0.0,0.0,0.0,0.0,0.0,0.0,0.0,0.0,0.0,0.0,0.0,0.0,0.0,0.0,0.0,0.0,0.0,0.0,0.0,0.0,0.0,0.0,0.0,0.0,0.0,0.0,0.0,0.0,0.0,0.0,0.0,0.0,0.0,0.0,0.0,0.0,0.0,0.0,0.0,0.0,0.0,0.0,0.0,0.0,0.0,0.0,0.0,0.0,0.0,0.0,0.0,0.0,0.0,0.0,0.0,0.0,0.0,0.0,0.0,0.0,0.0,0.0,0.0,0.0,0.0,0.0,0.0,0.0,-1.7868,0.0,0.0,0.0,0.0,0.0,0.0,0.0,0.0,0.0,0.0,0.0,0.0,0.0,0.0,0.0,0.0,0.0,0.0,0.0,0.0,0.0,0.0,0.0,0.0,0.0,0.0,0.0,0.0,0.0,0.0,0.0,0.0,0.0,0.0,0.0,0.0,0.0,0.0,0.0,0.0,0.0,0.0,0.0,0.0,0.0,0.0,0.0,0.0,0.0,0.0,0.0,0.0,0.0,0.0,0.0,0.0,0.0,0.0,0.0,0.0,0.0,0.0,0.0,0.0,0.0,0.0,0.0,0.0,0.0,0.0,0.0,0.0,0.0,0.0,0.0,0.0,0.0,0.0,0.0,0.0,0.0,0.0,0.0,0.0,0.0,0.0,0.0,0.0,0.0,0.0,0.0,0.0,0.0,0.0,0.0,0.0,0.0,0.0,0.0,0.0,0.0,0.0,0.0,0.0,0.0,0.0,0.0,0.0,0.0,0.0,-1.844,-1.8679,-1.8806,-1.8927,-1.8975,0.0,0.0,0.0,0.0,0.0,0.0,0.0,0.0,0.0,0.0,0.0,0.0,0.0,0.0,0.0,0.0,0.0,0.0,0.0,0.0,0.0,0.0,0.0,0.0,0.0,0.0,0.0,0.0,0.0,0.0,0.0,0.0,0.0,0.0,0.0,0.0,0.0,0.0,0.0,0.0,0.0,0.0,0.0,0.0,0.0,0.0,0.0,0.0,0.0,0.0,0.0,0.0,0.0,0.0,0.0,0.0,0.0,0.0,0.0,0.0,0.0,0.0,0.0,0.0,0.0,0.0,0.0,0.0,0.0,0.0,0.0,0.0,0.0,0.0,0.0,0.0,0.0,0.0,0.0,0.0,0.0,0.0,0.0,0.0,0.0,0.0,0.0,0.0,0.0,0.0,0.0,0.0,0.0,0.0,0.0,0.0,0.0,0.0,0.0,0.0,0.0,0.0,0.0,0.0,0.0,0.0,0.0,0.0,0.0,0.0,0.0,0.0,-2.0182,-2.0184,-1.9915,0.0,0.0,0.0,0.0,0.0,0.0,0.0,0.0,0.0,0.0,0.0,0.0,0.0,0.0,0.0,0.0,0.0,0.0,0.0,0.0,0.0,0.0,0.0,0.0,0.0,0.0,0.0,0.0,0.0,0.0,0.0,0.0,0.0,0.0,0.0,0.0,0.0,0.0,0.0,0.0,0.0,0.0,0.0,0.0,0.0,0.0,0.0,0.0,0.0,0.0,0.0,0.0,0.0,0.0,0.0,0.0,0.0,0.0,0.0,0.0,0.0,0.0,0.0,0.0,0.0,0.0,0.0,0.0,0.0,0.0,0.0,0.0,0.0,0.0,0.0,0.0,0.0,0.0,0.0,0.0,0.0,0.0,0.0,0.0,0.0,0.0,0.0,0.0,0.0,0.0,0.0,0.0,0.0,0.0,0.0,0.0,0.0,0.0,0.0,0.0,0.0,0.0,0.0,0.0,0.0,0.0,0.0,0.0,0.0,0.0,-2.1306,-2.1501,-2.1466,0.0,-2.027,0.0,0.0,0.0,0.0,0.0,0.0,0.0,0.0,0.0,0.0,0.0,0.0,0.0,0.0,0.0,0.0,0.0,0.0,0.0,0.0,0.0,0.0,0.0,0.0,0.0,0.0,0.0,0.0,0.0,0.0,0.0,0.0,0.0,0.0,0.0,0.0,0.0,0.0,0.0,0.0,0.0,0.0,0.0,0.0,0.0,0.0,0.0,0.0,0.0,0.0,0.0,0.0,0.0,0.0,0.0,0.0,0.0,0.0,0.0,0.0,0.0,0.0,0.0,0.0,0.0,0.0,0.0,0.0,0.0,0.0,0.0,0.0,0.0,0.0,0.0,0.0,0.0,0.0,0.0,0.0,0.0,0.0,0.0,0.0,0.0,0.0,0.0,0.0,0.0,0.0,0.0,0.0,0.0,0.0,0.0,0.0,0.0,0.0,0.0,0.0,0.0,0.0,0.0,0.0,0.0,0.0,0.0,0.0,0.0,0.0,-2.2699,-2.2773,-2.2679,-2.2059,0.0,0.0,0.0,0.0,0.0,0.0,0.0,0.0,0.0,0.0,0.0,0.0,0.0,0.0,0.0,0.0,0.0,0.0,0.0,0.0,0.0,0.0,0.0,0.0,0.0,0.0,0.0,0.0,0.0,0.0,0.0,0.0,0.0,0.0,0.0,0.0,0.0,0.0,0.0,0.0,0.0,0.0,0.0,0.0,0.0,0.0,0.0,0.0,0.0,0.0,0.0,0.0,0.0,0.0,0.0,0.0,0.0,0.0,0.0,0.0,0.0,0.0,0.0,0.0,0.0,0.0,0.0,0.0,0.0,0.0,0.0,0.0,0.0,0.0,0.0,0.0,0.0,0.0,0.0,0.0,0.0,0.0,0.0,0.0,0.0,0.0,0.0,0.0,0.0,0.0,0.0,0.0,0.0,0.0,0.0,0.0,0.0,0.0,0.0,0.0,0.0,0.0,0.0,0.0,0.0,0.0,0.0,0.0,0.0,0.0,-2.3299,-2.4079,-2.4079,-2.3756,-2.2932,-2.1618,0.0,0.0,0.0,0.0,0.0,0.0,0.0,0.0,0.0,0.0,0.0,0.0,0.0,0.0,0.0,0.0,0.0,0.0,0.0,0.0,0.0,0.0,0.0,0.0,0.0,0.0,0.0,0.0,0.0,0.0,0.0,0.0,0.0,0.0,0.0,0.0,0.0,0.0,0.0,0.0,0.0,0.0,0.0,0.0,0.0,0.0,0.0,0.0,0.0,0.0,0.0,0.0,0.0,0.0,0.0,0.0,0.0,0.0,0.0,0.0,0.0,0.0,0.0,0.0,0.0,0.0,0.0,0.0,0.0,0.0,0.0,0.0,0.0,0.0,0.0,0.0,0.0,0.0,0.0,0.0,0.0,0.0,0.0,0.0,0.0,0.0,0.0,0.0,0.0,0.0,0.0,0.0,0.0,0.0,0.0,0.0,0.0,0.0,0.0,0.0,0.0,0.0,0.0,0.0,0.0,0.0,0.0,0.0,-2.4015,-2.4989,-2.5484,-2.5486,-2.4636,-2.3655,0.0,0.0,0.0,0.0,0.0,0.0,0.0,0.0,0.0,0.0,0.0,0.0,0.0,0.0,0.0,0.0,0.0,0.0,0.0,0.0,0.0,0.0,0.0,0.0,0.0,0.0,0.0,0.0,0.0,0.0,0.0,0.0,0.0,0.0,0.0,0.0,0.0,0.0,0.0,0.0,0.0,0.0,0.0,0.0,0.0,0.0,0.0,0.0,0.0,0.0,0.0,0.0,0.0,0.0,0.0,0.0,0.0,0.0,0.0,0.0,0.0,0.0,0.0,0.0,0.0,0.0,0.0,0.0,0.0,0.0,0.0,0.0,0.0,0.0,0.0,0.0,0.0,0.0,0.0,0.0,0.0,0.0,0.0,0.0,0.0,0.0,0.0,0.0,0.0,0.0,0.0,0.0,0.0,0.0,0.0,0.0,0.0,0.0,0.0,0.0,0.0,0.0,0.0,0.0,0.0,0.0,0.0,0.0,0.0,-2.4599,-2.5723,-2.6314,-2.6333,-2.5713,-2.4861,0.0,0.0,0.0,0.0,0.0,0.0,0.0,0.0,0.0,0.0,0.0,0.0,0.0,0.0,0.0,0.0,0.0,0.0,0.0,0.0,0.0,0.0,0.0,0.0,0.0,0.0,0.0,0.0,0.0,0.0,0.0,0.0,0.0,0.0,0.0,0.0,0.0,0.0,0.0,0.0,0.0,0.0,0.0,0.0,0.0,0.0,0.0,0.0,0.0,0.0,0.0,0.0,0.0,0.0,0.0,0.0,0.0,0.0,0.0,0.0,0.0,0.0,0.0,0.0,0.0,0.0,0.0,0.0,0.0,0.0,0.0,0.0,0.0,0.0,0.0,0.0,0.0,0.0,0.0,0.0,0.0,0.0,0.0,0.0,0.0,0.0,0.0,0.0,0.0,0.0,0.0,0.0,0.0,0.0,0.0,0.0,0.0,0.0,0.0,0.0,0.0,0.0,0.0,0.0,0.0,0.0,0.0,0.0,0.0,-2.5631,0.0,-2.6989,-2.689,-2.6436,-2.5615,0.0,0.0,0.0,0.0,0.0,0.0,0.0,0.0,0.0,0.0,0.0,0.0,0.0,0.0,0.0,0.0,0.0,0.0,0.0,0.0,0.0,0.0,0.0,0.0,0.0,0.0,0.0,0.0,0.0,0.0,0.0,0.0,0.0,0.0,0.0,0.0,0.0,0.0,0.0,0.0,0.0,0.0,0.0,0.0,0.0,0.0,0.0,0.0,0.0,0.0,0.0,0.0,0.0,0.0,0.0,0.0,0.0,0.0,0.0,0.0,0.0,0.0,0.0,0.0,0.0,0.0,0.0,0.0,0.0,0.0,0.0,0.0,0.0,0.0,0.0,0.0,0.0,0.0,0.0,0.0,0.0,0.0,0.0,0.0,0.0,0.0,0.0,0.0,0.0,0.0,0.0,0.0,0.0,0.0,0.0,0.0,0.0,0.0,0.0,0.0,0.0,0.0,0.0,0.0,0.0,0.0,0.0,0.0,-2.5748,-2.7236,-2.7504,-2.7509,-2.723,-2.6774,-2.5896,0.0,0.0,0.0,0.0,0.0,0.0,0.0,0.0,0.0,0.0,0.0,0.0,0.0,0.0,0.0,0.0,0.0,0.0,0.0,0.0,0.0,0.0,0.0,0.0,0.0,0.0,0.0,0.0,0.0,0.0,0.0,0.0,0.0,0.0,0.0,0.0,0.0,0.0,0.0,0.0,0.0,0.0,0.0,0.0,0.0,0.0,0.0,0.0,0.0,0.0,0.0,0.0,0.0,0.0,0.0,0.0,0.0,0.0,0.0,0.0,0.0,0.0,0.0,0.0,0.0,0.0,0.0,0.0,0.0,0.0,0.0,0.0,0.0,0.0,0.0,0.0,0.0,0.0,0.0,0.0,0.0,0.0,0.0,0.0,0.0,0.0,0.0,0.0,0.0,0.0,0.0,0.0,0.0,0.0,0.0,0.0,0.0,0.0,0.0,0.0,0.0,0.0,0.0,0.0,0.0,0.0,0.0,0.0,0.0,-2.8863,-2.8354,-2.8255,-2.8523,-2.7402,-2.6302,0.0,0.0,0.0,0.0,0.0,0.0,0.0,0.0,0.0,0.0,0.0,0.0,0.0,0.0,0.0,0.0,0.0,0.0,0.0,0.0,0.0,0.0,0.0,0.0,0.0,0.0,0.0,0.0,0.0,0.0,0.0,0.0,0.0,0.0,0.0,0.0,0.0,0.0,0.0,0.0,0.0,0.0,0.0,0.0,0.0,0.0,0.0,0.0,0.0,0.0,0.0,0.0,0.0,0.0,0.0,0.0,0.0,0.0,0.0,0.0,0.0,0.0,0.0,0.0,0.0,0.0,0.0,0.0,0.0,0.0,0.0,0.0,0.0,0.0,0.0,0.0,0.0,0.0,0.0,0.0,0.0,0.0,0.0,0.0,0.0,0.0,0.0,0.0,0.0,0.0,0.0,0.0,0.0,0.0,0.0,0.0,0.0,0.0,0.0,0.0,0.0,0.0,0.0,0.0,0.0,0.0,0.0,0.0,0.0,-3.0296,-2.9743,-2.9395,-2.9354,-2.8113,-2.6894,-2.566,0.0,0.0,0.0,0.0,0.0,0.0,0.0,0.0,0.0,0.0,0.0,0.0,0.0,0.0,0.0,0.0,0.0,0.0,0.0,0.0,0.0,0.0,0.0,0.0,0.0,0.0,0.0,0.0,0.0,0.0,0.0,0.0,0.0,0.0,0.0,0.0,0.0,0.0,0.0,0.0,0.0,0.0,0.0,0.0,0.0,0.0,0.0,0.0,0.0,0.0,0.0,0.0,0.0,0.0,0.0,0.0,0.0,0.0,0.0,0.0,0.0,0.0,0.0,0.0,0.0,0.0,0.0,0.0,0.0,0.0,0.0,0.0,0.0,0.0,0.0,0.0,0.0,0.0,0.0,0.0,0.0,0.0,0.0,0.0,0.0,0.0,0.0,0.0,0.0,0.0,0.0,0.0,0.0,0.0,0.0,0.0,0.0,0.0,0.0,0.0,0.0,0.0,0.0,0.0,0.0,0.0,0.0,0.0,-3.1596,-3.1452,-3.0821,-2.9697,-2.8843,-2.7571,0.0,0.0,0.0,0.0,0.0,0.0,0.0,0.0,0.0,0.0,0.0,0.0,0.0,0.0,0.0,0.0,0.0,0.0,0.0,0.0,0.0,0.0,0.0,0.0,0.0,0.0,0.0,0.0,0.0,0.0,0.0,0.0,0.0,0.0,0.0,0.0,0.0,0.0,0.0,0.0,0.0,0.0,0.0,0.0,0.0,0.0,0.0,0.0,0.0,0.0,0.0,0.0,0.0,0.0,0.0,0.0,0.0,0.0,0.0,0.0,0.0,0.0,0.0,0.0,0.0,0.0,0.0,0.0,0.0,0.0,0.0,0.0,0.0,0.0,0.0,0.0,0.0,0.0,0.0,0.0,0.0,0.0,0.0,0.0,0.0,0.0,0.0,0.0,0.0,0.0,0.0,0.0,0.0,0.0,0.0,0.0,0.0,0.0,0.0,0.0,0.0,0.0,0.0,0.0,0.0,0.0,0.0,0.0,0.0,-3.173,-3.2133,-3.1792,-3.0649,-2.9269,-2.7635,0.0,0.0,0.0,0.0,0.0,0.0,0.0,0.0,0.0,0.0,0.0,0.0,0.0,0.0,0.0,0.0,0.0,0.0,0.0,0.0,0.0,0.0,0.0,0.0,0.0,0.0,0.0,0.0,0.0,0.0,0.0,0.0,0.0,0.0,0.0,0.0,0.0,0.0,0.0,0.0,0.0,0.0,0.0,0.0,0.0,0.0,0.0,0.0,0.0,0.0,0.0,0.0,0.0,0.0,0.0,0.0,0.0,0.0,0.0,0.0,0.0,0.0,0.0,0.0,0.0,0.0,0.0,0.0,0.0,0.0,0.0,0.0,0.0,0.0,0.0,0.0,0.0,0.0,0.0,0.0,0.0,0.0,0.0,0.0,0.0,0.0,0.0,0.0,0.0,0.0,0.0,0.0,0.0,0.0,0.0,0.0,0.0,0.0,0.0,0.0,0.0,0.0,0.0,0.0,0.0,0.0,0.0,0.0,-3.0639,-3.1317,-3.1701,-3.1463,-3.0545,-2.9228,-2.7602,0.0,0.0,0.0,0.0,0.0,0.0,0.0,0.0,0.0,0.0,0.0,0.0,0.0,0.0,0.0,0.0,0.0,0.0,0.0,0.0,0.0,0.0,0.0,0.0,0.0,0.0,0.0,0.0,0.0,0.0,0.0,0.0,0.0,0.0,0.0,0.0,0.0,0.0,0.0,0.0,0.0,0.0,0.0,0.0,0.0,0.0,0.0,0.0,0.0,0.0,0.0,0.0,0.0,0.0,0.0,0.0,0.0,0.0,0.0,0.0,0.0,0.0,0.0,0.0,0.0,0.0,0.0,0.0,0.0,0.0,0.0,0.0,0.0,0.0,0.0,0.0,0.0,0.0,0.0,0.0,0.0,0.0,0.0,0.0,0.0,0.0,0.0,0.0,0.0,0.0,0.0,0.0,0.0,0.0,0.0,0.0,0.0,0.0,0.0,0.0,0.0,0.0,0.0,0.0,0.0,0.0,0.0,0.0,-2.9658,-3.0673,-3.0716,-3.0471,-2.9905,-2.895,-2.7587,0.0,0.0,0.0,0.0,0.0,0.0,0.0,0.0,0.0,0.0,0.0,0.0,0.0,0.0,0.0,0.0,0.0,0.0,0.0,0.0,0.0,0.0,0.0,0.0,0.0,0.0,0.0,0.0,0.0,0.0,0.0,0.0,0.0,0.0,0.0,0.0,0.0,0.0,0.0,0.0,0.0,0.0,0.0,0.0,0.0,0.0,0.0,0.0,0.0,0.0,0.0,0.0,0.0,0.0,0.0,0.0,0.0,0.0,0.0,0.0,0.0,0.0,0.0,0.0,0.0,0.0,0.0,0.0,0.0,0.0,0.0,0.0,0.0,0.0,0.0,0.0,0.0,0.0,0.0,0.0,0.0,0.0,0.0,0.0,0.0,0.0,0.0,0.0,0.0,0.0,0.0,0.0,0.0,0.0,0.0,0.0,0.0,0.0,0.0,0.0,0.0,0.0,0.0,0.0,0.0,0.0,0.0,0.0,-3.0413,-3.0747,-3.0533,-3.0233,-2.9923,-2.9189,-2.7826,0.0,0.0,0.0,0.0,0.0,0.0,0.0,0.0,0.0,0.0,0.0,0.0,0.0,0.0,0.0,0.0,0.0,0.0,0.0,0.0,0.0,0.0,0.0,0.0,0.0,0.0,0.0,0.0,0.0,0.0,0.0,0.0,0.0,0.0,0.0,0.0,0.0,0.0,0.0,0.0,0.0,0.0,0.0,0.0,0.0,0.0,0.0,0.0,-2.2852,0.0,0.0,0.0,0.0,0.0,0.0,0.0,0.0,0.0,0.0,0.0,0.0,0.0,0.0,0.0,0.0,0.0,0.0,0.0,0.0,0.0,0.0,0.0,0.0,0.0,0.0,0.0,0.0,0.0,0.0,0.0,0.0,0.0,0.0,0.0,0.0,0.0,0.0,0.0,0.0,0.0,0.0,0.0,0.0,0.0,0.0,0.0,0.0,0.0,0.0,0.0,0.0,0.0,0.0,0.0,0.0,0.0,0.0,0.0,-3.0097,-3.0321,-3.006,-2.9725,-2.9332,-2.8621,-2.7447,0.0,0.0,0.0,0.0,0.0,0.0,0.0,0.0,0.0,0.0,0.0,0.0,0.0,0.0,0.0,0.0,0.0,0.0,0.0,0.0,0.0,0.0,0.0,0.0,0.0,0.0,0.0,0.0,0.0,0.0,0.0,0.0,0.0,0.0,0.0,0.0,0.0,0.0,0.0,0.0,0.0,0.0,0.0,0.0,0.0,0.0,0.0,0.0,0.0,0.0,0.0,0.0,0.0,0.0,0.0,0.0,0.0,0.0,0.0,0.0,0.0,0.0,0.0,0.0,0.0,0.0,0.0,0.0,0.0,0.0,0.0,0.0,0.0,0.0,0.0,0.0,0.0,0.0,0.0,0.0,0.0,0.0,0.0,0.0,0.0,0.0,0.0,0.0,0.0,0.0,0.0,0.0,0.0,0.0,0.0,0.0,0.0,0.0,0.0,0.0,0.0,0.0,0.0,0.0,0.0,0.0,0.0,-2.9225,-2.9504,-2.9756,-2.9561,-2.9191,-2.87,-2.785,-2.6878,-2.5737,0.0,0.0,0.0,0.0,0.0,0.0,0.0,0.0,0.0,0.0,0.0,0.0,0.0,0.0,0.0,0.0,0.0,0.0,0.0,0.0,0.0,0.0,0.0,0.0,0.0,0.0,0.0,0.0,0.0,0.0,0.0,0.0,0.0,0.0,0.0,0.0,0.0,0.0,-2.1296,-2.3427,0.0,0.0,0.0,0.0,0.0,0.0,0.0,0.0,-2.3991,0.0,0.0,0.0,0.0,0.0,0.0,0.0,0.0,0.0,0.0,0.0,0.0,0.0,0.0,0.0,0.0,0.0,0.0,0.0,0.0,0.0,0.0,0.0,0.0,0.0,0.0,0.0,0.0,0.0,0.0,0.0,0.0,0.0,0.0,0.0,0.0,0.0,0.0,0.0,0.0,0.0,0.0,0.0,0.0,0.0,0.0,0.0,0.0,0.0,0.0,0.0,0.0,0.0,0.0,0.0,0.0,-2.8973,-2.9358,-2.9626,-2.9784,-2.9388,-2.8986,-2.8603,-2.7566,-2.6588,-2.5719,0.0,0.0,0.0,0.0,0.0,0.0,0.0,0.0,0.0,0.0,0.0,0.0,0.0,0.0,0.0,0.0,0.0,0.0,0.0,0.0,0.0,0.0,0.0,0.0,0.0,0.0,0.0,0.0,0.0,0.0,0.0,0.0,0.0,0.0,0.0,0.0,0.0,0.0,0.0,-2.48,-2.6173,0.0,0.0,0.0,0.0,0.0,0.0,0.0,0.0,-2.3532,0.0,0.0,0.0,0.0,0.0,0.0,0.0,0.0,0.0,0.0,0.0,0.0,0.0,0.0,0.0,0.0,0.0,0.0,0.0,0.0,0.0,0.0,0.0,0.0,0.0,0.0,0.0,0.0,0.0,0.0,0.0,0.0,0.0,0.0,0.0,0.0,0.0,0.0,0.0,0.0,0.0,0.0,0.0,0.0,0.0,0.0,0.0,0.0,0.0,0.0,0.0,0.0,0.0,0.0,0.0,-2.9162,-2.9437,-2.9663,-2.9888,-2.9341,-2.8906,-2.8609,-2.7493,-2.6572,0.0,0.0,0.0,0.0,0.0,0.0,0.0,0.0,0.0,0.0,0.0,0.0,0.0,0.0,0.0,0.0,0.0,0.0,0.0,0.0,0.0,0.0,0.0,0.0,0.0,0.0,0.0,0.0,0.0,0.0,0.0,0.0,0.0,0.0,0.0,0.0,0.0,0.0,0.0,0.0,-2.6619,-2.782,-2.8829,0.0,0.0,0.0,0.0,0.0,0.0,-2.6237,-2.5186,0.0,0.0,0.0,0.0,0.0,0.0,0.0,0.0,0.0,0.0,0.0,0.0,0.0,0.0,0.0,0.0,0.0,0.0,0.0,0.0,0.0,0.0,0.0,0.0,0.0,0.0,0.0,0.0,0.0,0.0,0.0,0.0,0.0,0.0,0.0,0.0,0.0,0.0,0.0,0.0,0.0,0.0,0.0,0.0,0.0,0.0,0.0,0.0,0.0,0.0,0.0,0.0,0.0,0.0,0.0,-2.9279,-2.9428,-2.9644,-2.9901,-2.928,-2.8814,-2.8541,-2.7469,-2.6539,0.0,0.0,0.0,0.0,0.0,0.0,0.0,0.0,0.0,0.0,0.0,0.0,0.0,0.0,0.0,0.0,0.0,0.0,0.0,0.0,0.0,0.0,0.0,0.0,0.0,0.0,0.0,0.0,0.0,0.0,0.0,0.0,0.0,0.0,0.0,0.0,0.0,0.0,0.0,0.0,0.0,-2.9358,-3.0074,-3.0209,0.0,0.0,0.0,0.0,-2.8285,-2.7406,0.0,0.0,0.0,0.0,0.0,0.0,0.0,0.0,0.0,0.0,0.0,0.0,0.0,0.0,0.0,0.0,0.0,0.0,0.0,0.0,0.0,0.0,0.0,0.0,0.0,0.0,0.0,0.0,0.0,0.0,0.0,0.0,0.0,0.0,0.0,0.0,0.0,0.0,0.0,0.0,0.0,0.0,0.0,0.0,0.0,0.0,0.0,0.0,0.0,0.0,0.0,0.0,0.0,0.0,0.0,0.0,-2.9026,-2.9346,-2.957,-2.968,-2.9016,-2.8566,-2.842,-2.7328,-2.6385,0.0,0.0,0.0,0.0,0.0,0.0,0.0,0.0,0.0,0.0,0.0,0.0,0.0,0.0,0.0,0.0,0.0,0.0,0.0,0.0,0.0,0.0,0.0,0.0,0.0,0.0,0.0,0.0,0.0,0.0,0.0,0.0,0.0,0.0,0.0,0.0,0.0,0.0,0.0,0.0,0.0,-3.0101,-3.1905,-3.1493,-3.0957,0.0,0.0,-2.8537,-2.7858,-2.7218,0.0,0.0,0.0,0.0,0.0,0.0,0.0,0.0,0.0,0.0,0.0,0.0,0.0,0.0,0.0,0.0,0.0,0.0,0.0,0.0,0.0,0.0,0.0,0.0,0.0,0.0,0.0,0.0,0.0,0.0,0.0,0.0,0.0,0.0,0.0,0.0,0.0,0.0,0.0,0.0,0.0,0.0,0.0,0.0,0.0,0.0,0.0,0.0,0.0,0.0,0.0,0.0,0.0,0.0,0.0,-2.8066,-2.8872,-2.9237,-2.9445,-2.9466,-2.8824,-2.8376,-2.817,-2.7114,-2.6264,0.0,0.0,0.0,0.0,0.0,0.0,0.0,0.0,0.0,0.0,0.0,0.0,0.0,0.0,0.0,0.0,0.0,0.0,0.0,0.0,0.0,0.0,0.0,0.0,0.0,0.0,0.0,0.0,0.0,0.0,0.0,0.0,0.0,0.0,0.0,0.0,0.0,0.0,0.0,0.0,0.0,0.0,-3.2337,-3.2621,0.0,0.0,0.0,-3.0094,-2.9151,0.0,0.0,0.0,0.0,0.0,0.0,0.0,0.0,0.0,0.0,0.0,0.0,0.0,0.0,0.0,0.0,0.0,0.0,0.0,0.0,0.0,0.0,0.0,0.0,0.0,0.0,0.0,0.0,0.0,0.0,0.0,0.0,0.0,0.0,0.0,0.0,0.0,0.0,0.0,0.0,0.0,0.0,0.0,0.0,0.0,0.0,0.0,0.0,0.0,0.0,0.0,0.0,0.0,0.0,0.0,0.0,0.0,-2.8846,-2.9064,-2.9251,-2.934,-2.8583,-2.8057,-2.7808,-2.6636,0.0,0.0,0.0,0.0,0.0,0.0,0.0,0.0,0.0,0.0,0.0,0.0,0.0,0.0,0.0,0.0,0.0,0.0,0.0,0.0,0.0,0.0,0.0,0.0,0.0,0.0,0.0,-1.9453,0.0,0.0,0.0,0.0,0.0,0.0,0.0,0.0,0.0,0.0,0.0,0.0,0.0,0.0,-3.1474,-3.2755,-3.3427,-3.3203,0.0,0.0,-3.1058,-2.9462,-2.8321,-2.7241,0.0,0.0,0.0,0.0,0.0,0.0,0.0,0.0,0.0,0.0,0.0,0.0,0.0,0.0,0.0,0.0,0.0,0.0,0.0,0.0,0.0,0.0,0.0,0.0,0.0,0.0,0.0,0.0,0.0,0.0,0.0,0.0,0.0,0.0,0.0,0.0,0.0,0.0,0.0,0.0,0.0,0.0,0.0,0.0,0.0,0.0,0.0,0.0,0.0,0.0,0.0,0.0,0.0,0.0,-2.7749,-2.8947,-2.8711,-2.8904,-2.952,-2.8259,-2.7462,-2.7247,-2.5749,-2.4946,0.0,0.0,0.0,0.0,0.0,0.0,0.0,0.0,0.0,0.0,0.0,0.0,0.0,0.0,0.0,0.0,0.0,0.0,0.0,0.0,0.0,0.0,0.0,0.0,0.0,0.0,0.0,0.0,0.0,0.0,0.0,0.0,0.0,0.0,0.0,0.0,0.0,0.0,0.0,0.0,0.0,-3.1756,-3.3574,-3.366,-3.3386,0.0,-3.2073,-3.041,-2.7572,-2.7435,-2.6665,-2.3674,0.0,0.0,0.0,0.0,0.0,0.0,0.0,0.0,0.0,0.0,0.0,0.0,0.0,0.0,0.0,0.0,0.0,0.0,0.0,0.0,0.0,0.0,0.0,0.0,0.0,0.0,0.0,0.0,0.0,0.0,0.0,0.0,0.0,0.0,0.0,0.0,0.0,0.0,0.0,0.0,0.0,0.0,0.0,0.0,0.0,0.0,0.0,0.0,0.0,0.0,0.0,0.0,0.0,-2.7518,-2.8737,-2.8514,-2.8551,-2.8865,-2.7862,-2.7093,-2.659,-2.5717,-2.5115,0.0,0.0,0.0,0.0,0.0,0.0,0.0,0.0,0.0,0.0,0.0,0.0,0.0,0.0,0.0,0.0,0.0,0.0,0.0,0.0,0.0,0.0,0.0,0.0,0.0,0.0,0.0,0.0,-2.2336,-2.2254,-2.2108,0.0,0.0,0.0,0.0,0.0,0.0,0.0,0.0,0.0,0.0,-3.1541,-3.3299,-3.3092,0.0,0.0,-3.0885,-2.9512,-2.8254,-2.7266,-2.6206,-2.4879,-2.4491,0.0,0.0,0.0,0.0,0.0,0.0,0.0,0.0,0.0,0.0,0.0,0.0,0.0,0.0,0.0,0.0,0.0,0.0,0.0,0.0,0.0,0.0,0.0,0.0,0.0,0.0,0.0,0.0,0.0,0.0,0.0,0.0,0.0,0.0,0.0,0.0,0.0,0.0,0.0,0.0,0.0,0.0,0.0,0.0,0.0,0.0,0.0,0.0,0.0,0.0,0.0,0.0,-2.7571,-2.8756,-2.8408,-2.8302,-2.8379,-2.7295,-2.6387,-2.565,-2.5213,-2.4815,0.0,0.0,0.0,0.0,0.0,0.0,0.0,0.0,0.0,0.0,0.0,0.0,0.0,0.0,0.0,0.0,0.0,0.0,0.0,0.0,0.0,0.0,0.0,0.0,0.0,0.0,0.0,0.0,-2.3141,-2.2832,-2.2602,0.0,0.0,0.0,0.0,0.0,0.0,0.0,0.0,0.0,0.0,-3.1454,-3.2306,-3.2137,-3.1737,-3.1301,-2.9796,-2.8584,-2.8229,-2.6775,-2.5586,-2.5251,0.0,0.0,0.0,0.0,0.0,0.0,0.0,0.0,0.0,0.0,0.0,0.0,0.0,0.0,0.0,0.0,0.0,0.0,0.0,0.0,0.0,0.0,0.0,0.0,0.0,0.0,0.0,-2.4976,0.0,0.0,-2.3297,0.0,0.0,0.0,0.0,0.0,0.0,0.0,0.0,0.0,0.0,0.0,0.0,0.0,0.0,0.0,0.0,0.0,0.0,0.0,0.0,0.0,0.0,-2.7916,-2.9055,-2.8391,-2.8083,-2.8049,-2.6555,-2.5322,-2.442,-2.4014,-2.3701,-2.3337,0.0,0.0,0.0,0.0,0.0,0.0,0.0,0.0,0.0,0.0,0.0,0.0,0.0,0.0,0.0,0.0,0.0,0.0,0.0,0.0,0.0,0.0,0.0,0.0,0.0,0.0,-2.4522,-2.3855,-2.3427,0.0,0.0,0.0,0.0,0.0,0.0,0.0,0.0,0.0,-2.8784,-3.0576,-3.1508,-3.0618,-3.073,-3.0768,-3.0468,-2.9063,-2.7725,-2.6912,-2.581,-2.4741,0.0,0.0,0.0,0.0,0.0,0.0,0.0,0.0,0.0,0.0,0.0,0.0,0.0,0.0,0.0,0.0,0.0,0.0,0.0,0.0,0.0,0.0,0.0,0.0,0.0,0.0,0.0,-2.5538,-2.5401,0.0,0.0,0.0,0.0,0.0,0.0,0.0,0.0,0.0,0.0,0.0,-2.5415,-2.5569,0.0,0.0,0.0,0.0,0.0,0.0,0.0,0.0,0.0,0.0,0.0,0.0,-2.6806,-2.8253,-2.7282,-2.6809,-2.6998,-2.5948,-2.508,-2.4528,-2.4386,-2.3652,-2.2214,0.0,0.0,0.0,0.0,0.0,0.0,0.0,0.0,0.0,0.0,0.0,0.0,0.0,0.0,0.0,0.0,0.0,0.0,0.0,0.0,0.0,0.0,0.0,0.0,0.0,-2.5134,0.0,0.0,0.0,0.0,0.0,0.0,0.0,0.0,0.0,0.0,-2.6826,-2.7827,-2.8681,-2.9281,-2.9734,-2.9962,-2.9627,-2.9414,0.0,0.0,0.0,0.0,0.0,0.0,0.0,0.0,0.0,0.0,0.0,0.0,0.0,0.0,-2.475,-2.496,-2.4667,-2.4652,-2.5496,0.0,0.0,0.0,0.0,0.0,0.0,0.0,0.0,0.0,0.0,0.0,0.0,0.0,0.0,-2.5482,-2.5583,-2.4687,0.0,0.0,0.0,0.0,0.0,0.0,0.0,0.0,-2.6271,-2.649,-2.5696,-2.567,-2.5612,-2.5525,-2.4568,-2.4234,0.0,0.0,0.0,0.0,0.0,0.0,0.0,0.0,-2.682,-2.7756,-2.6948,-2.6363,-2.6086,-2.5341,-2.4619,-2.3869,-2.3581,-2.262,-2.0822,-1.9904,-1.9131,0.0,0.0,0.0,0.0,0.0,0.0,0.0,0.0,0.0,0.0,0.0,0.0,0.0,0.0,0.0,0.0,0.0,0.0,0.0,0.0,0.0,0.0,0.0,-2.5422,0.0,0.0,0.0,0.0,0.0,0.0,0.0,0.0,0.0,-2.6697,-2.7436,-2.8124,-2.8543,-2.8898,-2.9023,-2.873,0.0,0.0,0.0,0.0,0.0,0.0,0.0,-2.5329,-2.5065,-2.4942,-2.4886,-2.5001,-2.5005,-2.5005,-2.5005,0.0,0.0,-2.5181,-2.4709,-2.4579,-2.5487,-2.5341,-2.5168,-2.5514,-2.5326,-2.5002,0.0,0.0,0.0,0.0,-2.2764,0.0,0.0,0.0,-2.4665,-2.5066,0.0,-2.4669,0.0,0.0,0.0,0.0,-2.3496,-2.5815,0.0,0.0,-2.6443,-2.6475,-2.573,-2.5633,-2.5523,-2.5291,-2.5147,-2.4948,-2.4812,-2.3697,0.0,0.0,0.0,0.0,0.0,0.0,-2.7731,-2.7476,-2.7329,-2.6631,-2.5336,-2.4823,-2.3864,-2.2465,-2.1728,-2.0704,-1.9332,-1.9064,-1.8525,-1.774,-1.8039,0.0,0.0,0.0,0.0,0.0,0.0,0.0,0.0,0.0,0.0,0.0,0.0,0.0,0.0,0.0,0.0,0.0,0.0,0.0,0.0,-2.5631,0.0,0.0,0.0,0.0,0.0,0.0,0.0,0.0,0.0,-2.8042,-2.7853,-2.8802,-2.9211,-2.8287,0.0,0.0,0.0,0.0,-2.7177,-2.6959,-2.6227,-2.5826,-2.6149,-2.56,-2.5084,-2.5005,0.0,0.0,-2.5005,-2.5005,-2.5001,-2.5017,-2.5253,-2.5257,-2.4802,-2.4326,-2.407,-2.4367,-2.4561,-2.452,-2.4426,-2.4628,-2.4447,-2.4418,0.0,0.0,0.0,0.0,-2.5439,-2.6092,-2.6917,-2.657,-2.6064,-2.5352,-2.4521,0.0,0.0,0.0,0.0,0.0,0.0,-2.5658,-2.5014,-2.6288,-2.6474,-2.5712,-2.5778,-2.58,-2.5693,-2.4816,-2.438,-2.4299,-2.3879,-2.3896,-2.435,0.0,0.0,0.0,0.0,-2.5862,-2.6786,-2.5885,-2.5138,-2.4746,-2.4042,-2.3257,-2.2358,-2.1642,-2.0834,-1.9885,-1.9152,-1.8375,-1.7611,-1.7932,0.0,0.0,0.0,0.0,0.0,0.0,0.0,0.0,0.0,0.0,0.0,0.0,0.0,0.0,0.0,0.0,0.0,0.0,0.0,-2.5921,-2.5629,-2.5195,0.0,0.0,0.0,0.0,0.0,0.0,0.0,0.0,0.0,-2.8593,-2.8852,-2.8636,0.0,0.0,-2.7724,-2.6355,-2.6282,-2.6449,-2.6652,-2.6078,0.0,-2.6016,-2.5508,-2.5068,-2.5005,-2.5005,-2.5005,-2.5005,-2.5005,-2.5124,-2.548,-2.5644,-2.5727,-2.5861,-2.5006,-2.4537,-2.5025,-2.492,-2.4785,-2.5123,-2.4912,-2.4432,-2.4888,-2.4736,-2.468,-2.4897,-2.5308,-2.5639,-2.6032,-2.6441,-2.6106,-2.5545,-2.4857,-2.41,-2.3117,-2.2024,-2.2429,0.0,0.0,0.0,-2.542,-2.5112,-2.6047,-2.6242,-2.5766,-2.5377,-2.5203,-2.5148,-2.4218,-2.3743,-2.3743,-2.3758,-2.3898,-2.4226,0.0,-2.5,-2.6204,-2.5258,-2.5059,-2.5681,-2.488,-2.4173,-2.3632,-2.2894,-2.232,-2.1886,-2.1112,-2.0347,-1.9725,-1.8917,-1.827,-1.7883,-1.7776,-1.7957,0.0,0.0,0.0,0.0,0.0,0.0,0.0,0.0,0.0,0.0,0.0,-2.2466,-2.3068,0.0,0.0,0.0,-2.5682,-2.6064,-2.583,-2.5629,0.0,0.0,0.0,0.0,0.0,0.0,0.0,-2.746,-2.7726,-2.8149,-2.9113,-2.8858,-2.8355,-2.7706,-2.7509,-2.7014,-2.5977,0.0,-2.613,-2.6141,-2.5785,-2.5542,-2.5624,-2.5338,-2.5088,-2.5005,-2.5005,-2.5005,-2.4985,-2.5191,-2.5498,-2.5738,-2.5889,-2.5967,-2.5859,-2.498,-2.4497,-2.5053,-2.4576,-2.42,-2.4479,-2.4246,-2.3891,-2.497,-2.4177,-2.4177,-2.4204,-2.4286,-2.4842,-2.4746,-2.4245,-2.4245,-2.4232,-2.4177,-2.3472,-2.2954,-2.2572,-2.2752,0.0,-2.4134,-2.4929,-2.5392,-2.5571,-2.5661,-2.5699,-2.5602,-2.4545,-2.4042,-2.4082,-2.3499,-2.3202,-2.3296,-2.3425,-2.3539,-2.3677,-2.422,-2.4728,-2.5206,-2.5263,-2.4965,-2.4327,-2.4271,-2.3579,-2.224,-2.1612,-2.1255,-2.1172,-2.0204,-1.9508,-1.9082,-1.8489,-1.8215,-1.8358,-1.7666,-1.7735,-1.8711,0.0,0.0,0.0,0.0,0.0,0.0,0.0,0.0,0.0,0.0,0.0,0.0,0.0,0.0,-2.5476,-2.5994,0.0,-2.5521,-2.5538,0.0,0.0,0.0,-2.4983,-2.5521,-2.635,-2.7182,-2.7899,0.0,0.0,-2.9432,-2.878,-2.8207,-2.8001,-2.7643,-2.6965,-2.5805,-2.6081,-2.6138,-2.5519,-2.5423,-2.5365,-2.5187,-2.5103,-2.5084,-2.5025,-2.5005,-2.4985,-2.4997,-2.5343,-2.5727,-2.5691,-2.5942,-2.5909,-2.5024,-2.4528,-2.4195,-2.4499,-2.3836,-2.3141,-2.2999,-2.3044,-2.2946,-2.5231,-2.4801,-2.4801,-2.5059,-2.548,-2.5615,-2.5602,-2.548,-2.548,-2.472,-2.3445,-2.3283,-2.2902,-2.2396,-2.2858,-2.3481,-2.4121,-2.4312,-2.442,-2.4447,-2.4038,-2.3834,-2.3834,-2.3539,-2.3662,-2.4028,-2.3486,-2.3445,-2.3852,-2.3485,-2.3281,-2.3252,-2.3396,-2.4038,-2.5132,-2.4747,-2.4429,-2.4281,-2.3794,-2.2886,-2.1596,-2.1381,-2.0898,-2.0092,-1.9731,-1.935,-1.8964,-1.8737,-1.8515,-1.8255,-1.8078,-1.7924,-1.7837,-1.8683,0.0,0.0,0.0,0.0,0.0,0.0,0.0,0.0,0.0,-2.3157,-2.3752,0.0,-2.4739,0.0,-2.5166,-2.5208,-2.5253,-2.4974,0.0,0.0,-2.4462,-2.4905,-2.6109,-2.559,-2.6039,-2.8395,-2.7542,-2.7342,-2.8848,-2.8,-2.7403,-2.7684,-2.7561,-2.707,-2.6214,-2.6605,-2.6548,-2.5468,-2.5536,-2.5667,-2.5136,-2.5025,-2.5025,-2.5005,-2.4985,-2.4966,-2.4846,-2.4652,-2.465,-2.4926,-2.4792,-2.4835,-2.5272,-2.4361,-2.3673,-2.392,-2.3455,-2.2864,-2.2454,-2.239,-2.2258,-2.5037,-2.4639,-2.4896,-2.5195,-2.5493,-2.5493,-2.5493,-2.5493,-2.5493,-2.4652,-2.3148,-2.2607,-2.2361,-2.2332,-2.2632,-2.3283,-2.4069,-2.4096,-2.4096,-2.4096,-2.4042,-2.3716,-2.3189,-2.3189,-2.3242,-2.3269,-2.27,-2.2564,-2.2876,-2.2564,-2.2514,-2.2714,-2.2914,-2.3508,-2.4415,-2.4115,-2.4051,-2.4287,-2.304,-2.2058,-2.1319,-2.1011,-2.0515,-1.9863,-1.9584,-1.9427,-1.9383,-1.9145,-1.9183,-1.9475,-1.893,-1.8733,-1.8995,-1.9308,-1.9846,0.0,0.0,0.0,0.0,0.0,0.0,0.0,0.0,0.0,0.0,0.0,-2.4751,-2.4886,-2.493,-2.4954,-2.4934,-2.4746,-2.46,-2.4498,-2.4421,-2.4817,-2.5852,-2.5638,-2.6019,-2.7618,-2.7165,-2.7037,-2.7881,-2.7297,-2.6961,-2.7379,-2.7494,-2.7168,-2.6261,-2.6377,-2.6219,-2.5171,-2.5201,-2.5282,-2.4934,-2.4922,-2.4938,-2.4989,-2.4953,-2.4898,-2.4809,-2.4808,-2.4908,-2.5031,-2.4717,-2.4536,-2.4993,-2.4034,-2.3139,-2.3059,-2.2853,-2.2417,-2.1935,-2.1841,-2.1736,-2.4734,-2.4258,-2.4788,-2.5005,-2.5005,-2.5005,-2.5005,-2.5005,-2.5005,-2.4313,-2.3134,-2.1927,-2.1708,-2.2196,-2.2278,-2.2903,-2.396,-2.3892,-2.3906,-2.4001,-2.4381,-2.3974,-2.2998,-2.2984,-2.2741,-2.2278,-2.1683,-2.144,-2.1507,-2.1426,-2.1698,-2.2287,-2.27,-2.3209,-2.3779,-2.3726,-2.3864,-2.4128,-2.2289,-2.1304,-2.1288,-2.0641,-2.0183,-1.9937,-1.9599,-1.956,-1.9865,-1.9517,-1.9838,-2.0876,-1.99,-1.9718,-2.0693,-2.0154,-2.0316,0.0,-2.1801,0.0,0.0,0.0,0.0,0.0,0.0,0.0,0.0,-2.4482,-2.4762,-2.4762,-2.4989,-2.4958,-2.4589,-2.4666,-2.4645,-2.4498,-2.4477,-2.4678,-2.5176,-2.5749,-2.6206,-2.6413,-2.6902,-2.7064,-2.6986,-2.6782,-2.6788,-2.7039,-2.7411,-2.7221,-2.623,-2.6244,-2.6188,-2.519,-2.4873,-2.4879,-2.4712,-2.4726,-2.4809,-2.495,-2.4795,-2.4656,-2.4508,-2.4827,-2.5149,-2.4954,-2.4492,-2.4246,-2.429,-2.3403,-2.2601,-2.2329,-2.2175,-2.1959,-2.1568,-2.1434,-2.1385,-2.5189,-2.4842,-2.4964,-2.5005,-2.5005,-2.5005,-2.5005,-2.5005,-2.5005,-2.4313,-2.3147,-2.1927,-2.1453,-2.1602,-2.2063,-2.2712,-2.3324,-2.2849,-2.289,-2.3324,-2.247,-2.1955,-2.1738,-2.1738,-2.1927,-2.2251,-2.1683,-2.1643,-2.2129,-2.1629,-2.1864,-2.2754,-2.2867,-2.36,-2.4884,0.0,0.0,0.0,-2.2058,-2.1304,-2.1273,-2.0641,-2.0063,-1.9621,-1.9475,0.0,-1.934,-1.9308,-1.9644,-2.0313,-2.0293,0.0,0.0,0.0,0.0,0.0,0.0,0.0,0.0,0.0,0.0,0.0,-2.4046,-2.4166,-2.4255,-2.4503,-2.4625,-2.4559,-2.4584,-2.4564,-2.4364,-2.4385,-2.438,-2.4343,-2.4338,-2.4438,-2.4678,-2.4415,-2.4635,-2.5928,-2.525,-2.5231,-2.6593,-2.6769,-2.67,-2.6732,-2.7216,-2.7226,-2.6586,-2.7365,-2.7656,-2.658,-2.5695,-2.5087,-2.4218,-2.4385,-2.4632,-2.4875,-2.4472,-2.3925,-2.342,-2.3098,-2.2981,-2.2933,-2.2395,-2.2268,-2.261,-2.2109,-2.1841,-2.2123,-2.1855,-2.152,-2.141,-2.1385,-2.1385,-2.5159,-2.5005,-2.5005,-2.5005,0.0,-2.4665,-2.4543,-2.4571,-2.4557,-2.3879,-2.27,-2.1792,-2.1537,-2.1785,-2.2368,-2.2975,-2.3528,-2.3244,-2.3135,-2.3148,-2.2578,-2.1968,-2.1399,-2.1697,-2.1808,-2.1758,-2.1437,-2.1534,-2.2002,-2.1825,-2.218,-2.3143,-2.3209,-2.3759,-2.4752,-2.4471,-2.4133,-2.381,-2.2471,-2.1812,-2.175,-2.0795,-2.0131,-1.9762,-1.9726,0.0,0.0,0.0,0.0,0.0,0.0,0.0,0.0,-2.2188,0.0,-2.2611,-2.3278,-2.3782,-2.3982,-2.4003,-2.4046,-2.4135,-2.4213,-2.4276,-2.4281,-2.4385,-2.4441,-2.44,-2.44,-2.4359,-2.4317,-2.4281,-2.4281,-2.4281,-2.4114,-2.4018,-2.4073,-2.3904,-2.3963,-2.4447,-2.4507,-2.4779,-2.5424,-2.5954,-2.6058,-2.5873,-2.6473,-2.6742,-2.6262,-2.6704,-2.6734,-2.57,-2.5367,-2.4872,-2.4046,-2.3752,-2.3936,-2.4139,-2.3842,-2.3289,-2.2738,-2.2645,-2.2581,-2.254,-2.2147,-2.1902,-2.2077,-2.1769,-2.1496,-2.1712,-2.1592,-2.141,-2.1385,-2.1385,-2.1385,-2.5047,-2.5005,-2.5005,-2.5005,-2.4964,-2.4367,-2.3974,-2.3771,-2.3771,0.0,0.0,-2.1667,-2.1675,-2.2168,-2.264,-2.3192,-2.3757,-2.3662,-2.338,-2.3026,-2.2892,-2.231,-2.1415,-2.1862,-2.1835,-2.1375,-2.1375,-2.1592,-2.1983,-2.21,-2.2581,-2.3384,-2.3551,-2.3846,-2.4276,-2.4281,-2.4281,-2.4235,-2.2978,-2.2305,-2.2274,-2.0996,-2.02,-2.0041,-2.0008,-2.0467,-2.1349,-2.1409,-2.1949,-2.3038,-2.2669,-2.263,-2.311,-2.2898,-2.2914,-2.3343,-2.3578,-2.3758,-2.3856,-2.3856,-2.3897,-2.3948,-2.4056,-2.4179,-2.4287,-2.4281,-2.4281,-2.4281,-2.424,-2.4183,-2.4281,-2.4219,-2.4198,-2.4281,-2.3873,-2.3588,-2.3509,-2.3545,-2.3406,-2.3168,-2.4042,-2.4665,-2.4229,-2.518,-2.5575,-2.5089,-2.5695,-2.6024,-2.5522,-2.5643,-2.5626,-2.4872,-2.4754,-2.4402,-2.3746,-2.3319,-2.309,-2.3138,-2.2976,-2.2727,-2.2392,-2.2449,-2.2603,-2.2503,-2.2287,-2.2077,-2.2006,-2.1674,-2.141,-2.1385,-2.1385,-2.1385,-2.1385,-2.1385,-2.1385,-2.5272,-2.5005,-2.5005,-2.5005,-2.4964,-2.434,-2.3526,-2.259,-2.2563,-2.2429,-2.2264,-2.1656,-2.1724,-2.228,-2.2375,-2.2728,-2.3256,-2.2769,-2.2446,-2.2236,-2.1713,-2.139,-2.1242,-2.1309,-2.1601,-2.2044,-2.2067,-2.2287,-2.2709,-2.2754,-2.3031,-2.3508,-2.3595,-2.3846,-2.4261,-2.4281,-2.4281,-2.4287,-2.2963,-2.2305,-2.2289,-2.0998,-2.022,-2.0098,-2.0098,-2.0122,-2.0243,-2.0255,-2.0591,-2.1334,-2.1303,-2.1311,-2.1443,-2.1969,-2.2038,-2.1722,-2.2217,-2.2559,-2.2559,-2.2578,-2.2578,-2.2628,-2.3117,-2.3686,-2.4256,-2.4281,-2.4281,-2.4281,-2.3973,-2.3867,-2.4198,-2.3952,-2.3873,-2.4213,-2.3867,-2.3443,-2.3068,-2.2672,-2.2474,-2.2448,-2.3462,-2.4137,-2.4026,-2.5228,-2.5791,-2.5067,-2.5236,-2.5469,-2.507,-2.556,-2.5834,-2.5284,-2.4834,-2.4186,-2.3296,-2.2979,-2.2586,-2.1821,-2.2091,-2.2156,-2.1714,-2.1657,-2.1746,-2.1636,-2.1626,-2.1554,-2.1544,-2.1458,-2.1385,-2.1385,-2.1385,-2.1385,-2.1385,-2.1385,-2.1385,-2.5911,-2.5413,-2.5385,-2.5003,-2.4336,-2.3496,-2.2797,-2.2235,-2.1929,-2.1817,-2.1803,-2.1507,-2.17,-2.219,-2.2204,-2.2705,-2.3568,-2.2961,-2.2853,-2.3082,-2.1882,-2.1648,-2.2135,-2.158,-2.1685,-2.2443,-2.248,-2.2672,-2.3054,-2.3135,-2.3436,-2.3882,-2.3967,-2.4094,-2.4281,-2.4281,-2.4281,-2.4266,-2.3332,-2.284,-2.2809,-2.1535,-2.0808,-2.074,-2.0402,-2.0384,-2.0702,-2.0699,-2.1023,-2.1678,-2.1709,-2.1712,-2.175,-2.2026,-2.2094,-2.187,-2.2135,-2.2305,-2.2305,-2.2305,-2.2305,-2.232,-2.2578,-2.3025,-2.3717,-2.4102,-2.4281,-2.4281,-2.4078,-2.4057,-2.4261,-2.3888,-2.3782,-2.4261,-2.3443,-2.2867,-2.2799,-2.2203,-2.1784,-2.1866,-2.2572,-2.3105,-2.3043,-2.42,-2.4895,-2.4321,-2.464,-2.4756,-2.4489,-2.486,-2.5026,-2.4498,-2.4261,-2.375,-2.2761,-2.2263,-2.1912,-2.1447,-2.1592,-2.1664,-2.141,-2.1385,-2.1385,-2.1385,-2.1385,-2.1385,-2.1385,-2.1385,-2.1385,-2.1385,-2.1385,-2.1385,-2.1385,-2.1385,-2.1385,-2.6207,-2.5709,-2.5539,-2.4855,-2.3833,-2.2984,-2.2467,-2.2175,-2.1759,-2.152,-2.141,-2.1385,-2.1675,-2.2126,-2.214,-2.2559,-2.3191,-2.2855,-2.2893,-2.3223,-2.182,-2.1779,-2.2814,-2.19,-2.1926,-2.2809,-2.2897,-2.3084,-2.3413,-2.3558,-2.3824,-2.4187,-2.4276,-2.4281,-2.4302,-2.4164,-2.4087,-2.404,-2.3563,-2.3225,-2.304,-2.1904,-2.1242,-2.1042,-2.0549,-2.0533,-2.1026,-2.1073,-2.1319,-2.1797,-2.1858,-2.1843,-2.1824,-2.1858,-2.1858,-2.1843,-2.1858,-2.1843,-2.1858,-2.1843,-2.1843,-2.184,-2.1997,-2.2305,-2.2809,-2.3609,-2.4148,-2.4271,-2.4162,-2.4141,-2.4219,-2.3888,-2.376,-2.403,-2.3091,-2.2586,-2.2754,-2.2016,-2.153,-2.1705,-2.2269,-2.2699,-2.2783,-2.3511,-2.4059,-2.3922,-2.4061,-2.4271,-2.4177,-2.4219,-2.4084,-2.3599,-2.3548,-2.3374,-2.2464,-2.1841,-2.1482,-2.1385,-2.141,-2.1434,-2.1372,-2.1304,-2.129,-2.1304,-2.1236,-2.125,-2.1331,-2.1385,-2.1385,-2.1385,-2.1385,-2.1385,-2.1385,-2.1385,-2.1385,-2.5556,-2.5578,-2.5075,-2.4423,-2.384,-2.3668,-2.3036,-2.2273,-2.2123,-2.1855,-2.141,-2.1385,-2.1697,-2.2226,-2.2266,-2.2077,-2.1727,-2.1578,-2.1551,-2.1403,-2.0576,-2.1117,-2.2575,-2.2009,-2.2331,-2.3375,-2.3508,-2.3724,-2.4099,-2.4177,-2.424,-2.4297,-2.4281,-2.4281,-2.422,-2.3717,-2.3409,-2.3379,-2.3332,-2.3009,-2.2397,-2.1673,-2.1029,-2.0412,-2.0333,-2.032,-2.0443,-2.0397,-2.0428,-2.0489,-2.0518,-2.0505,-2.052,-2.0503,-2.0487,-2.052,-2.052,-2.0489,-2.0487,-2.0489,-2.0551,-2.0535,-2.1073,-2.1427,-2.1596,-2.2655,-2.3656,-2.4025,-2.3864,-2.3909,-2.4219,-2.3888,-2.3653,-2.376,-2.3179,-2.2867,-2.2822,-2.2016,-2.1746,-2.2686,-2.3166,-2.3661,-2.3466,-2.4237,-2.4585,-2.3827,-2.3967,-2.4101,-2.3915,-2.3926,-2.3902,-2.3095,-2.2892,-2.2949,-2.262,-2.2016,-2.153,-2.141,-2.141,-2.1434,-2.1379,-2.1053,-2.0735,-2.1287,-2.1084,-2.0998,-2.1236,-2.1385,-2.141,-2.1385,-2.1385,-2.1385,-2.1385,-2.1434,-2.1458,-2.5781,-2.5453,-2.5175,-2.468,-2.4044,-2.3235,-2.2769,-2.2586,-2.1983,-2.1602,-2.1369,-2.1019,-2.1196,-2.1751,-2.1776,-2.1616,-2.1437,-2.165,-2.1712,-2.1564,-2.0924,-2.1297,-2.2416,-2.1987,-2.2321,-2.3396,-2.3833,-2.4114,-2.4261,-2.4281,-2.4281,-2.4281,-2.4281,-2.4117,-2.3748,-2.384,-2.3533,-2.2748,-2.3486,-2.3379,-2.2394,-2.2043,-2.1766,-2.1442,-2.0718,-2.0287,-2.0287,-2.0287,-2.0287,-2.0287,-2.0287,-2.0287,-2.0287,-2.0287,-2.0287,-2.0287,-2.0287,-2.0287,-2.0287,-2.0287,-2.0287,-2.0287,-2.0566,-2.0857,-2.1273,-2.1827,-2.2394,-2.3051,-2.3646,-2.4114,-2.4204,-2.3867,-2.3702,-2.3846,-2.3355,-2.3001,-2.3268,-2.2694,-2.2503,-2.2859,-2.313,-2.33,-2.3304,-2.3834,-2.4197,-2.3921,-2.3907,-2.3733,-2.392,-2.3539,-2.3309,-2.3447,-2.3131,-2.2462,-2.2057,-2.1945,-2.1714,-2.1568,-2.1674,-2.1817,-2.1459,-2.1467,-2.1408,-2.1407,-2.1269,-2.1195,-2.1363,-2.166,-2.1793,-2.1547,-2.1396,-2.1385,-2.1385,-2.165,-2.1831,-2.5725,-2.5318,-2.5118,-2.4743,-2.4198,-2.3224,-2.2822,-2.2799,-2.2109,-2.165,-2.1355,-2.0775,-2.0805,-2.124,-2.1064,-2.0914,-2.0914,-2.1148,-2.1414,-2.1532,-2.0918,-2.1211,-2.2284,-2.1872,-2.2098,-2.297,-2.3502,-2.3733,-2.3748,-2.3763,-2.3763,-2.3748,-2.3748,-2.3517,-2.3117,-2.3379,-2.3102,-2.2455,-2.3286,-2.3348,-2.264,-2.2397,-2.2209,-2.1951,-2.0903,-2.0287,-2.0287,-2.0287,-2.0287,-2.0287,-2.0287,-2.0287,-2.0287,-2.0287,-2.0287,-2.0287,-2.0287,-2.0287,-2.0287,-2.0287,-2.0287,-2.0287,-2.0287,-2.0505,-2.0934,-2.1196,-2.1504,-2.2028,-2.3071,-2.3743,-2.3984,-2.372,-2.3697,-2.3991,-2.3443,-2.3268,-2.3508,-2.3179,-2.2979,-2.3224,-2.3253,-2.3157,-2.3312,-2.3631,-2.3937,-2.3897,-2.3609,-2.3302,-2.3625,-2.3086,-2.2886,-2.3425,-2.3127,-2.2846,-2.1988,-2.2121,-2.2189,-2.2077,-2.2203,-2.2179,-2.1629,-2.1704,-2.1592,-2.1215,-2.1506,-2.1491,-2.1106,-2.1388,-2.1759,-2.1337,-2.117,-2.125,-2.1222,-2.16,-2.175,-2.4916,-2.5195,-2.4604,-2.4348,-2.4261,-2.4156,-2.3674,-2.292,-2.2793,-2.2267,-2.1407,-2.0741,-2.0708,-2.0993,-2.0232,-1.9696,-1.9586,-1.9683,-2.0105,-2.0684,-2.0113,-2.0687,-2.2186,-2.1636,-2.1686,-2.232,-2.2486,-2.2517,-2.2505,-2.2424,-2.2397,-2.2443,-2.2521,-2.2443,-2.2351,-2.1935,-2.1781,-2.2289,-2.2501,-2.2721,-2.3086,-2.2609,-2.2074,-2.1522,-2.0672,-2.0287,-2.0287,-2.0287,-2.0287,-2.0287,-2.0304,-2.0287,-2.0287,-2.032,-2.035,-2.0335,-2.0333,-2.0333,-2.0333,-2.0349,-2.0318,-2.0287,-2.0287,-2.0302,-2.0443,-2.0903,-2.1257,-2.1381,-2.2058,-2.269,-2.3302,-2.3395,-2.3442,-2.3685,-2.3638,-2.361,-2.3595,-2.3312,-2.3377,-2.3888,-2.3803,-2.3702,-2.4114,-2.4261,-2.3979,-2.3635,-2.3348,-2.3163,-2.2809,-2.2948,-2.2701,-2.2336,-2.2904,-2.3987,-2.352,-2.3062,-2.286,-2.2709,-2.2583,-2.2655,-2.2011,-2.1497,-2.1238,-2.1015,-2.1172,-2.1092,-2.0705,-2.0673,-2.095,-2.0878,-2.0911,-2.0948,-2.1039,-2.0968,-2.1173,-2.4581,-2.4635,-2.4425,-2.4281,-2.4261,-2.3988,-2.3674,-2.3304,-2.2549,-2.206,-2.1585,-2.0642,-2.0273,-2.0341,-1.9634,-1.947,-1.9792,-2.0059,-2.0135,-2.01,-2.0064,-2.0426,-2.0962,-2.118,-2.1411,-2.1673,-2.2105,-2.2305,-2.2305,-2.2305,-2.2305,-2.2305,-2.2305,-2.2305,-2.2259,-2.2055,-2.2089,-2.2301,-2.2686,-2.311,-2.3339,-2.3188,-2.2979,-2.2692,-2.1144,-2.0287,-2.0287,-2.0354,-2.0354,-2.0304,-2.0354,-2.0339,-2.0335,-2.0703,-2.0934,-2.0965,-2.1334,-2.1396,-2.1029,-2.0919,-2.0751,-2.035,-2.0287,-2.0287,-2.0318,-2.0551,-2.0844,-2.1242,-2.1473,-2.2105,-2.3009,-2.3286,-2.3503,-2.3941,-2.4051,-2.4036,-2.4015,-2.3909,-2.3952,-2.4198,-2.4135,-2.4135,-2.424,-2.4281,-2.4189,-2.3948,-2.3579,-2.3179,-2.2963,-2.284,-2.2428,-2.2166,-2.2517,-2.3139,-2.3458,-2.3413,-2.3312,-2.3113,-2.298,-2.2958,-2.2556,-2.2092,-2.1804,-2.1287,-2.1217,-2.105,-2.0793,-2.0597,-2.0726,-2.0739,-2.0752,-2.0773,-2.0899,-2.0909,-2.1088,-2.4421,-2.4271,-2.4051,-2.4117,-2.423,-2.3724,-2.3423,-2.3214,-2.2458,-2.1937,-2.1425,-2.0469,-2.0064,-2.0065,-1.9551,-1.9586,-2.0074,-2.024,-2.0164,-1.9952,-2.0183,-2.0287,-2.0364,-2.0749,-2.0965,-2.1026,-2.1427,-2.1658,-2.1658,-2.1658,-2.1658,-2.1642,-2.1639,-2.1642,-2.1658,-2.1642,-2.172,-2.2012,-2.2447,-2.2813,-2.3072,-2.2971,-2.2916,-2.2705,-2.1246,-2.0498,-2.07,-2.0548,-2.0407,-2.039,-2.0407,-2.0517,-2.0763,-2.1332,-2.1719,-2.175,-2.1867,-2.1818,-2.1371,-2.1106,-2.0764,-2.0366,-2.0287,-2.0287,-2.0287,-2.0287,-2.0533,-2.0857,-2.0996,-2.1535,-2.2578,-2.2963,-2.3352,-2.4143,-2.438,-2.4364,-2.4385,-2.44,-2.4385,-2.4385,-2.4385,-2.4385,-2.4364,-2.438,-2.4256,-2.4102,-2.3429,-2.3013,-2.2964,-2.2447,-2.1985,-2.2034,-2.2166,-2.2413,-2.2582,-2.2677,-2.3417,-2.3413,-2.3321,-2.3271,-2.2861,-2.2509,-2.2053,-2.1614,-2.1297,-2.1141,-2.094,-2.067,-2.0591,-2.0576,-2.0572,-2.0561,-2.0721,-2.0882,-2.0944,-2.4421,-2.4179,-2.3594,-2.3748,-2.4081,-2.3585,-2.3056,-2.2744,-2.2532,-2.1874,-2.1059,-2.0282,-2.0219,-2.0389,-1.9929,-1.9935,-2.0172,-1.9992,-1.9998,-2.0235,-2.0287,-2.0287,-2.0302,-2.0458,-2.0535,-2.0487,-2.0364,-2.0364,-2.0472,-2.0503,-2.0505,-2.0397,-2.0472,-2.0613,-2.0428,-2.0582,-2.0767,-2.1371,-2.1672,-2.1944,-2.2301,-2.2274,-2.2162,-2.1927,-2.1175,-2.1051,-2.1567,-2.0905,-2.0561,-2.0561,-2.0625,-2.0888,-2.1612,-2.223,-2.2586,-2.249,-2.1937,-2.1541,-2.1399,-2.0866,-2.0505,-2.0304,-2.0304,-2.035,-2.0428,-2.0412,-2.0505,-2.08,-2.08,-2.1137,-2.2293,-2.2632,-2.3114,-2.4199,-2.4477,-2.4503,-2.4549,-2.4574,-2.4609,-2.4574,-2.4569,-2.4564,-2.4518,-2.4405,-2.4157,-2.3626,-2.2968,-2.2439,-2.2471,-2.1979,-2.1512,-2.1471,-2.1744,-2.1997,-2.1904,-2.192,-2.2943,-2.3718,-2.3667,-2.3539,-2.2732,-2.219,-2.1732,-2.1277,-2.1064,-2.088,-2.0706,-2.0445,-2.021,-2.0172,-2.0246,-2.0398,-2.0484,-2.0606,-2.051,-2.4158,-2.3671,-2.3902,-2.3825,-2.3609,-2.3379,-2.3207,-2.2964,-2.2156,-2.15,-2.1099,-2.0476,-2.0276,-2.0353,-2.0174,-2.0168,-2.0287,-2.0166,-2.0183,-2.0287,-2.0287,-2.0287,-2.0381,-2.0749,-2.0965,-2.0903,-2.052,-2.0287,-2.0302,-2.0302,-2.0287,-2.0287,-2.0287,-2.0584,-2.0945,-2.0634,-2.0916,-2.204,-2.2219,-2.27,-2.3642,-2.4021,-2.409,-2.389,-2.3241,-2.2752,-2.2427,-2.1488,-2.1071,-2.1166,-2.1762,-2.2279,-2.2695,-2.3082,-2.3273,-2.3254,-2.3079,-2.2636,-2.2115,-2.1443,-2.0806,-2.0479,-2.0354,-2.0586,-2.0959,-2.0985,-2.142,-2.2214,-2.2511,-2.2917,-2.3654,-2.3887,-2.4042,-2.4451,-2.4498,-2.4539,-2.4589,-2.4609,-2.4609,-2.4609,-2.4609,-2.4589,-2.4476,-2.4273,-2.3833,-2.3464,-2.2805,-2.2263,-2.1858,-2.1852,-2.1488,-2.0939,-2.1304,-2.1565,-2.1445,-2.1414,-2.2,-2.2802,-2.3044,-2.3152,-2.2443,-2.1901,-2.1442,-2.1042,-2.0811,-2.0652,-2.0452,-2.0289,-2.0104,-2.0045,-2.0273,-2.0327,-2.03,-2.0287,-2.0287,-2.4189,-2.3702,-2.3871,-2.3686,-2.3271,-2.3055,-2.2763,-2.2474,-2.1673,-2.115,-2.0826,-2.021,-2.0088,-2.0212,-2.0058,-2.0088,-2.0272,-2.0287,-2.0287,-2.0287,-2.0287,-2.0287,-2.0331,-2.0689,-2.1262,-2.1421,-2.0737,-2.043,-2.0641,-2.0428,-2.0289,-2.0354,-2.0354,-2.0559,-2.1,-2.069,-2.0971,-2.1742,-2.1935,-2.2387,-2.3063,-2.374,-2.3979,-2.3753,-2.3355,-2.2955,-2.2518,-2.1904,-2.1583,-2.1779,-2.2615,-2.3391,-2.3873,-2.4287,-2.4409,-2.4082,-2.365,-2.3143,-2.2407,-2.1497,-2.0907,-2.0519,-2.0407,-2.0686,-2.1282,-2.1432,-2.199,-2.2928,-2.3103,-2.3464,-2.4033,-2.4204,-2.4324,-2.462,-2.462,-2.4661,-2.4726,-2.4751,-2.4751,-2.4786,-2.4751,-2.4637,-2.4268,-2.3959,-2.3472,-2.3165,-2.2483,-2.2158,-2.17,-2.1636,-2.1095,-2.0707,-2.0859,-2.1,-2.0969,-2.1034,-2.1142,-2.1651,-2.2145,-2.2223,-2.1945,-2.1645,-2.1242,-2.0826,-2.0533,-2.0487,-2.0338,-2.0325,-2.0218,-2.0287,-2.0321,-2.0304,-2.0304,-2.0287,-2.0321,-2.4307,-2.4117,-2.3517,-2.3179,-2.3009,-2.2486,-2.1951,-2.1427,-2.1227,-2.0875,-2.0272,-1.9795,-1.978,-2.0073,-1.978,-1.9857,-2.0195,-2.0287,-2.0287,-2.0287,-2.0302,-2.035,-2.047,-2.0459,-2.1057,-2.1879,-2.1027,-2.077,-2.1134,-2.0738,-2.0352,-2.0404,-2.0516,-2.0488,-2.062,-2.0527,-2.0626,-2.0851,-2.115,-2.1472,-2.1648,-2.2011,-2.2222,-2.225,-2.2247,-2.2281,-2.2299,-2.233,-2.225,-2.2215,-2.3384,-2.4381,-2.5112,-2.5775,-2.5617,-2.4888,-2.3925,-2.3103,-2.221,-2.1318,-2.0657,-2.0595,-2.0559,-2.0855,-2.1559,-2.1791,-2.2134,-2.2964,-2.3026,-2.3183,-2.3733,-2.3873,-2.4198,-2.4716,-2.4826,-2.4862,-2.4966,-2.4985,-2.4946,-2.4966,-2.4954,-2.4741,-2.4088,-2.3772,-2.3248,-2.2727,-2.1947,-2.1667,-2.1735,-2.1375,-2.0936,-2.08,-2.0841,-2.0944,-2.1078,-2.1109,-2.1204,-2.1393,-2.1717,-2.1641,-2.1584,-2.1326,-2.108,-2.0663,-2.05,-2.0404,-2.0321,-2.0356,-2.039,-2.0426,-2.0409,-2.034,-2.0409,-2.0527,-2.0562,-2.3291,-2.2809,-2.2624,-2.2274,-2.1858,-2.1612,-2.1473,-2.1245,-2.0764,-2.0505,-2.0258,-2.0135,-2.0073,-2.0258,-2.0104,-2.015,-2.0273,-2.0287,-2.0287,-2.0287,-2.0287,-2.0613,-2.0819,-2.053,-2.102,-2.2021,-2.1529,-2.1288,-2.1306,-2.1098,-2.0791,-2.0452,-2.0928,-2.1014,-2.0722,-2.0845,-2.1007,-2.1199,-2.1939,-2.2432,-2.2759,-2.3284,-2.3549,-2.3289,-2.3224,-2.301,-2.2729,-2.3107,-2.3659,-2.4172,-2.4698,-2.5445,-2.6118,-2.6181,-2.5825,-2.5094,-2.4265,-2.3408,-2.2589,-2.165,-2.1071,-2.091,-2.0821,-2.1044,-2.229,-2.2376,-2.2955,-2.3854,-2.4214,-2.4308,-2.4575,-2.463,-2.4874,-2.5166,-2.515,-2.5005,-2.5005,-2.5005,-2.5005,-2.5005,-2.5005,-2.4843,-2.4428,-2.3724,-2.3025,-2.2564,-2.1772,-2.0984,-2.1225,-2.1315,-2.097,-2.1053,-2.1087,-2.1199,-2.1277,-2.1277,-2.1325,-2.139,-2.1456,-2.1342,-2.1225,-2.0993,-2.0763,-2.0489,-2.0709,-2.0712,-2.0561,-2.0509,-2.0544,-2.0663,-2.0779,-2.0861,-2.0974,-2.1071,-2.1055,-2.2917,-2.232,-2.2305,-2.192,-2.1334,-2.1304,-2.115,-2.0841,-2.0505,-2.0287,-2.0258,-1.9996,-2.0042,-2.0273,-2.0011,-2.004,-2.0256,-2.0287,-2.0304,-2.0373,-2.0512,-2.0869,-2.108,-2.0691,-2.106,-2.2195,-2.1571,-2.1312,-2.1319,-2.1171,-2.0833,-2.0666,-2.0967,-2.1089,-2.0989,-2.1087,-2.1308,-2.1575,-2.2195,-2.2677,-2.2919,-2.3408,-2.3745,-2.3722,-2.3819,-2.3633,-2.3698,-2.4077,-2.4543,-2.4981,-2.5465,-2.6107,-2.6822,-2.6758,-2.6253,-2.5528,-2.4926,-2.4261,-2.3499,-2.2654,-2.2199,-2.2052,-2.175,-2.2218,-2.3149,-2.3435,-2.3978,-2.5104,-2.5329,-2.54,-2.5441,-2.546,-2.5538,-2.5689,-2.5591,-2.5384,-2.523,-2.5211,-2.5146,-2.5064,-2.4989,-2.4779,-2.4445,-2.3446,-2.2816,-2.2234,-2.1483,-2.1101,-2.1054,-2.1103,-2.1213,-2.1306,-2.1368,-2.1461,-2.1522,-2.1522,-2.16,-2.1661,-2.1661,-2.1447,-2.1261,-2.1055,-2.099,-2.0957,-2.1006,-2.1038,-2.0973,-2.0907,-2.0958,-2.1087,-2.1261,-2.1323,-2.1354,-2.1447,-2.1447,-2.2736,-2.22,-2.2135,-2.175,-2.1196,-2.118,-2.0764,-2.0273,-2.015,-2.0135,-2.0042,-1.9565,-1.9781,-2.0275,-1.9889,-1.9797,-2.0304,-2.0321,-2.0407,-2.0578,-2.0859,-2.1196,-2.1321,-2.0751,-2.1242,-2.2191,-2.1257,-2.1253,-2.1509,-2.1135,-2.0822,-2.0939,-2.0986,-2.1102,-2.1325,-2.1402,-2.1555,-2.1823,-2.2163,-2.2505,-2.2705,-2.3031,-2.3467,-2.4032,-2.4077,-2.4319,-2.4698,-2.5008,-2.516,-2.5126,-2.5833,-2.6561,-2.7214,-2.7299,-2.6854,-2.6174,-2.5678,-2.5212,-2.4575,-2.3833,-2.3554,-2.3422,-2.3131,-2.3471,-2.4206,-2.4423,-2.4839,-2.5842,-2.607,-2.5997,-2.5997,-2.6034,-2.6086,-2.6139,-2.6157,-2.598,-2.5726,-2.5596,-2.5443,-2.5134,-2.5095,-2.4495,-2.3815,-2.3074,-2.2571,-2.2394,-2.1665,-2.1389,-2.137,-2.1522,-2.1582,-2.161,-2.1672,-2.1718,-2.1763,-2.1792,-2.1882,-2.1972,-2.2015,-2.1911,-2.1764,-2.1616,-2.156,-2.1546,-2.1578,-2.1581,-2.1568,-2.1519,-2.145,-2.1478,-2.16,-2.1539,-2.1493,-2.1646,-2.1691,-2.1737,-2.1567,-2.0985,-2.0659,-2.0503,-2.052,-2.0135,-1.9549,-1.9518,-1.9502,-1.9504,-1.9414,-1.9754,-2.0342,-2.0172,-2.0265,-2.0407,-2.0441,-2.0527,-2.0894,-2.1229,-2.1433,-2.1408,-2.0921,-2.1333,-2.2015,-2.1604,-2.1592,-2.2004,-2.2021,-2.1906,-2.1467,-2.1792,-2.2113,-2.1742,-2.1851,-2.2022,-2.2167,-2.2419,-2.2853,-2.3295,-2.3454,-2.3871,-2.4577,-2.4715,-2.4818,-2.506,-2.5542,-2.5835,-2.6042,-2.6557,-2.709,-2.7263,-2.7315,-2.6954,-2.6404,-2.6098,-2.5693,-2.5015,-2.4625,-2.4287,-2.4325,-2.4116,-2.4082,-2.4858,-2.5024,-2.5373,-2.5939,-2.6087,-2.6176,-2.6192,-2.6123,-2.6298,-2.6505,-2.6556,-2.6539,-2.6419,-2.6157,-2.5943,-2.5753,-2.5321,-2.49,-2.4576,-2.3375,-2.2818,-2.25,-2.2135,-2.1742,-2.1811,-2.1955,-2.1982,-2.1994,-2.2096,-2.2155,-2.2169,-2.2184,-2.2212,-2.2257,-2.2301,-2.2329,-2.2172,-2.2125,-2.2076,-2.2054,-2.2092,-2.2115,-2.2153,-2.1948,-2.1868,-2.1913,-2.1928,-2.1928,-2.1928,-2.1988,-2.1961,-2.1579,-2.0909,-2.0223,-2.0079,-2.0215,-1.9691,-1.9366,-1.9225,-1.8916,-1.8809,-1.8965,-1.9213,-1.9633,-2.0008,-2.0303,-2.0495,-2.0697,-2.0893,-2.1071,-2.1337,-2.1642,-2.1834,-2.1834,-2.1568,-2.1738,-2.2109,-2.1776,-2.1856,-2.2094,-2.2236,-2.199,-2.1723,-2.2165,-2.2139,-2.2036,-2.2153,-2.2265,-2.2419,-2.2602,-2.306,-2.3681,-2.3819,-2.4198,-2.4954,-2.5316,-2.5523,-2.5592,-2.5868,-2.6299,-2.6661,-2.7057,-2.7315,-2.7315,-2.7315,-2.704,-2.6782,-2.6661,-2.6523,-2.6083,-2.5762,-2.5557,-2.5504,-2.5196,-2.538,-2.5698,-2.5849,-2.6101,-2.6522,-2.6674,-2.6674,-2.6657,-2.6674,-2.6808,-2.6908,-2.6974,-2.6974,-2.6925,-2.6624,-2.6297,-2.6042,-2.5421,-2.4995,-2.4381,-2.3565,-2.2954,-2.2586,-2.2329,-2.201,-2.2257,-2.2381,-2.2395,-2.2436,-2.2531,-2.2602,-2.2615,-2.2602,-2.2561,-2.2561,-2.2548,-2.2548,-2.2494,-2.2514,-2.2547,-2.2584,-2.2649,-2.2745,-2.2765,-2.253,-2.226,-2.2245,-2.226,-2.2346,-2.2332,-2.2248,-2.2192,-2.1606,-2.0496,-1.9903,-1.9963,-2.0175,-1.9153,-1.8842,-1.9027,-1.8531,-1.8408,-1.8548,-1.9137,-1.9606,-1.981,-2.0293,-2.0713,-2.1055,-2.146,-2.1642,-2.1731,-2.2065,-2.2223,-2.2237,-2.2198,-2.213,-2.1959,-2.1873,-2.1919,-2.1993,-2.1943,-2.2113,-2.1957,-2.1957,-2.2166,-2.2268,-2.2292,-2.2419,-2.2628,-2.2879,-2.3336,-2.3957,-2.4095,-2.4491,-2.5229,-2.5937,-2.6264,-2.6299,-2.6402,-2.6626,-2.7263,-2.7315,-2.7315,-2.7315,-2.7315,-2.7315,-2.728,-2.7195,-2.7109,-2.6992,-2.6852,-2.6706,-2.6775,-2.6471,-2.6437,-2.6657,-2.6723,-2.6856,-2.707,-2.7202,-2.7202,-2.7299,-2.7202,-2.7218,-2.7283,-2.7299,-2.7315,-2.7251,-2.699,-2.6674,-2.6352,-2.5816,-2.5309,-2.4568,-2.3774,-2.3204,-2.273,-2.2525,-2.2487,-2.2775,-2.2864,-2.2916,-2.3009,-2.3148,-2.3263,-2.3276,-2.3055,-2.3017,-2.2967,-2.2915,-2.2881,-2.285,-2.2893,-2.2968,-2.3131,-2.3218,-2.3215,-2.3095,-2.2822,-2.2634,-2.2576,-2.2552,-2.2592,-2.2552,-2.247,-2.2457,-2.088,-2.0644,-2.0419,-2.04,-2.0337,-1.9606,-1.903,-1.8671,-1.8516,-1.8469,-1.8608,-1.9311,-2.0003,-2.0396,-2.0583,-2.086,-2.1323,-2.1763,-2.2037,-2.2139,-2.2419,-2.2575,-2.2558,-2.2544,-2.2531,-2.2477,-2.2295,-2.2254,-2.2436,-2.2548,-2.244,-2.2508,-2.2494,-2.2531,-2.2544,-2.2615,-2.2602,-2.2789,-2.3216,-2.3888,-2.4502,-2.4916,-2.5057,-2.5781,-2.6488,-2.6916,-2.7002,-2.7056,-2.7161,-2.7282,-2.7315,-2.733,-2.7346,-2.7346,-2.733,-2.7315,-2.7315,-2.7315,-2.7283,-2.7251,-2.7202,-2.7169,-2.7055,-2.7039,-2.717,-2.7186,-2.7202,-2.7234,-2.7315,-2.7315,-2.7315,-2.7315,-2.7315,-2.7315,-2.7346,-2.7345,-2.7329,-2.728,-2.72,-2.7001,-2.6367,-2.572,-2.5067,-2.4459,-2.3957,-2.3654,-2.3511,-2.3611,-2.3937,-2.3766,-2.3543,-2.3667,-2.3809,-2.3907,-2.3986,-2.3664,-2.3466,-2.3436,-2.3383,-2.3312,-2.3289,-2.3301,-2.3383,-2.3406,-2.3335,-2.3212,-2.3108,-2.3053,-2.2893,-2.2747,-2.2773,-2.2812,-2.2769,-2.2738,-2.279,-2.1091,-2.0745,-2.0464,-2.0447,-2.0363,-1.9276,-1.9003,-1.9133,-1.8546,-1.8532,-1.914,-1.9825,-2.0341,-2.0728,-2.1148,-2.1432,-2.1777,-2.2167,-2.2405,-2.2517,-2.2615,-2.2712,-2.2712,-2.2712,-2.2712,-2.2655,-2.2531,-2.2517,-2.2668,-2.2685,-2.2712,-2.2699,-2.2712,-2.2712,-2.2712,-2.2699,-2.2712,-2.2884,-2.3436,-2.4209,-2.5095,-2.5668,-2.612,-2.5895,-2.6638,-2.7116,-2.7026,-2.7389,-2.7567,-2.7701,-2.773,-2.7644,-2.7539,-2.7496,-2.7452,-2.736,-2.7315,-2.7315,-2.7315,-2.7315,-2.7299,-2.7299,-2.7315,-2.7315,-2.7315,-2.7299,-2.733,-2.7315,-2.7315,-2.7315,-2.7315,-2.733,-2.7376,-2.7481,-2.7494,-2.7569,-2.7657,-2.7701,-2.7672,-2.7589,-2.6889,-2.6321,-2.599,-2.5394,-2.4844,-2.4582,-2.4468,-2.4713,-2.5052,-2.4773,-2.4412,-2.4638,-2.4817,-2.4877,-2.4923,-2.4688,-2.4197,-2.4066,-2.3923,-2.3822,-2.3585,-2.3524,-2.3458,-2.3442,-2.3348,-2.327,-2.3487,-2.3586,-2.3268,-2.2963,-2.3074,-2.3122,-2.3044,-2.3032,-2.3092,-2.1549,-2.0959,-2.0661,-2.0666,-2.0639,-1.9305,-1.9228,-1.9774,-1.9028,-1.9048,-1.9826,-2.0527,-2.0877,-2.1081,-2.1537,-2.1998,-2.222,-2.2531,-2.2672,-2.2672,-2.2685,-2.2712,-2.2712,-2.2712,-2.2712,-2.2699,-2.2685,-2.2712,-2.2699,-2.2712,-2.2712,-2.2712,-2.2712,-2.2747,-2.2782,-2.2833,-2.2799,-2.3037,-2.354,-2.4295,-2.5097,-2.6259,-2.6556,-2.5444,-2.6576,-2.7248,-2.7075,-2.7475,-2.7819,-2.7978,-2.8034,-2.7996,-2.7811,-2.7771,-2.7686,-2.7496,-2.7376,-2.7315,-2.7315,-2.7315,-2.7315,-2.7315,-2.7315,-2.7315,-2.7346,-2.7376,-2.7388,-2.7374,-2.7465,-2.7511,-2.7557,-2.7481,-2.7585,-2.7698,-2.7783,-2.7826,-2.7968,-2.8024,-2.7996,-2.7741,-2.7238,-2.6924,-2.6609,-2.6299,-2.5737,-2.5358,-2.5224,-2.5697,-2.5967,-2.5751,-2.5554,-2.5773,-2.5945,-2.5971,-2.5961,-2.5895,-2.5357,-2.487,-2.4646,-2.4469,-2.4024,-2.3657,-2.3658,-2.3726,-2.35,-2.3508,-2.3798,-2.3898,-2.3442,-2.3236,-2.3398,-2.341,-2.3271,-2.3352,-2.3495,-2.1759,-2.1691,-2.1622,-2.164,-2.1513,-2.0678,-2.0423,-2.0574,-2.0362,-2.0423,-2.0697,-2.1294,-2.1641,-2.1763,-2.1981,-2.2164,-2.2306,-2.2531,-2.2699,-2.2712,-2.2712,-2.2712,-2.2712,-2.2712,-2.2712,-2.2712,-2.2712,-2.2712,-2.2725,-2.2725,-2.2712,-2.2712,-2.2777,-2.2825,-2.3007,-2.3056,-2.3117,-2.3359,-2.397,-2.4348,-2.4592,-2.5805,-2.5941,-2.5952,-2.6748,-2.7718,-2.7639,-2.7925,-2.8098,-2.8143,-2.8143,-2.8102,-2.8061,-2.8047,-2.8047,-2.7886,-2.763,-2.7315,-2.736,-2.736,-2.7392,-2.7407,-2.736,-2.733,-2.7452,-2.7585,-2.7686,-2.7674,-2.7844,-2.7926,-2.7911,-2.7968,-2.802,-2.8034,-2.8061,-2.8088,-2.817,-2.8347,-2.8321,-2.8316,-2.7967,-2.7574,-2.723,-2.6941,-2.6655,-2.6277,-2.6123,-2.6615,-2.6922,-2.6801,-2.6723,-2.6965,-2.7019,-2.7031,-2.7103,-2.701,-2.655,-2.5881,-2.5437,-2.516,-2.479,-2.4431,-2.416,-2.4156,-2.3937,-2.3678,-2.377,-2.3715,-2.3468,-2.35,-2.3671,-2.3595,-2.3432,-2.3606,-2.3834,-2.2184,-2.1869,-2.1984,-2.1957,-2.1742,-2.1198,-2.121,-2.1415,-2.1143,-2.1323,-2.1803,-2.2143,-2.2315,-2.2312,-2.245,-2.249,-2.2517,-2.2646,-2.2699,-2.2712,-2.2712,-2.2712,-2.2712,-2.2712,-2.2712,-2.276,-2.2764,-2.279,-2.2803,-2.2786,-2.276,-2.2842,-2.2965,-2.3096,-2.3277,-2.3323,-2.3707,-2.4182,-2.4758,-2.5047,-2.5262,-2.5953,-2.6478,-2.621,-2.7404,-2.8017,-2.8273,-2.8339,-2.8482,-2.8545,-2.8626,-2.8533,-2.8443,-2.836,-2.8308,-2.8057,-2.7911,-2.7771,-2.7742,-2.763,-2.7615,-2.7672,-2.7672,-2.7672,-2.7829,-2.7954,-2.8024,-2.8014,-2.8075,-2.8143,-2.8143,-2.8102,-2.8242,-2.8308,-2.8373,-2.8464,-2.852,-2.8596,-2.8688,-2.87,-2.8664,-2.8251,-2.7966,-2.7906,-2.7797,-2.7647,-2.7506,-2.7802,-2.8085,-2.8145,-2.811,-2.8154,-2.8141,-2.8085,-2.817,-2.8169,-2.7718,-2.7072,-2.6315,-2.6025,-2.5724,-2.5407,-2.5052,-2.4879,-2.4813,-2.4481,-2.3997,-2.3735,-2.3682,-2.3795,-2.3947,-2.3837,-2.3753,-2.3865,-2.4026,-2.2642,-2.2186,-2.2309,-2.2226,-2.1994,-2.1688,-2.1837,-2.2215,-2.1816,-2.2008,-2.2534,-2.2685,-2.2685,-2.2699,-2.2685,-2.2672,-2.2699,-2.2712,-2.2712,-2.2712,-2.2712,-2.2712,-2.2747,-2.276,-2.2859,-2.2927,-2.306,-2.3096,-2.3109,-2.3084,-2.3067,-2.301,-2.3236,-2.3411,-2.3578,-2.3945,-2.4451,-2.5244,-2.5332,-2.5481,-2.579,-2.6308,-2.6767,-2.7176,-2.7836,-2.8495,-2.8706,-2.8779,-2.8875,-2.8964,-2.8975,-2.8863,-2.8755,-2.8688,-2.8614,-2.8438,-2.8334,-2.8347,-2.8224,-2.8088,-2.7996,-2.7992,-2.8047,-2.7992,-2.8192,-2.8337,-2.8389,-2.8342,-2.8451,-2.8438,-2.8373,-2.8386,-2.8495,-2.8626,-2.8694,-2.8827,-2.894,-2.891,-2.8887,-2.8851,-2.8863,-2.8917,-2.8729,-2.8849,-2.8879,-2.8927,-2.8987,-2.8987,-2.8968,-2.892,-2.8842,-2.868,-2.8667,-2.8599,-2.8714,-2.8737,-2.8473,-2.8136,-2.7346,-2.6877,-2.6573,-2.618,-2.5786,-2.5686,-2.565,-2.5169,-2.4618,-2.4259,-2.3947,-2.4016,-2.4084,-2.4133,-2.4151,-2.4218,-2.419,-2.2944,-2.2825,-2.276,-2.2681,-2.2605,-2.262,-2.2603,-2.2628,-2.2573,-2.2569,-2.2681,-2.2712,-2.2712,-2.2712,-2.2712,-2.2712,-2.2712,-2.2712,-2.2712,-2.2712,-2.2712,-2.2734,-2.282,-2.2963,-2.3117,-2.3254,-2.3359,-2.3495,-2.3606,-2.3569,-2.3457,-2.333,-2.3529,-2.3727,-2.4135,-2.4681,-2.5439,-2.5952,-2.5754,-2.5744,-2.6047,-2.6416,-2.6693,-2.7514,-2.8288,-2.8863,-2.8905,-2.9021,-2.91,-2.9156,-2.9112,-2.9078,-2.8998,-2.8964,-2.8875,-2.8839,-2.8827,-2.8833,-2.8767,-2.8451,-2.8224,-2.821,-2.8277,-2.8368,-2.8509,-2.8603,-2.8652,-2.8706,-2.8815,-2.8922,-2.8934,-2.8957,-2.8863,-2.8863,-2.8899,-2.898,-2.906,-2.9082,-2.906,-2.901,-2.9044,-2.9127,-2.9149,-2.9163,-2.9033,-2.9021,-2.8987,-2.8987,-2.8987,-2.8968,-2.8968,-2.8927,-2.8927,-2.892,-2.892,-2.884,-2.873,-2.8455,-2.7897,-2.7611,-2.7405,-2.6976,-2.6531,-2.641,-2.63,-2.576,-2.5321,-2.5081,-2.4795,-2.4364,-2.4199,-2.4199,-2.4309,-2.4401,-2.4328,-2.3015,-2.2952,-2.2932,-2.2842,-2.2712,-2.2738,-2.2738,-2.2712,-2.2712,-2.2712,-2.2712,-2.2712,-2.2712,-2.2712,-2.2712,-2.2712,-2.2712,-2.2712,-2.2712,-2.2712,-2.2725,-2.2807,-2.295,-2.3099,-2.3259,-2.3506,-2.3639,-2.3692,-2.3735,-2.3888,-2.3901,-2.385,-2.3852,-2.3941,-2.4417,-2.5353,-2.6289,-2.6509,-2.6376,-2.6388,-2.6852,-2.6706,-2.7061,-2.8363,-2.8761,-2.9141,-2.9152,-2.9186,-2.9207,-2.9207,-2.9186,-2.9175,-2.9163,-2.9112,-2.91,-2.9119,-2.9119,-2.9141,-2.91,-2.8773,-2.8527,-2.8621,-2.8761,-2.8915,-2.8897,-2.9056,-2.9086,-2.9145,-2.9134,-2.9186,-2.9089,-2.9055,-2.9051,-2.9062,-2.9089,-2.9149,-2.9195,-2.9238,-2.928,-2.9259,-2.9314,-2.9405,-2.9405,-2.9395,-2.9206,-2.9055,-2.9021,-2.8998,-2.9033,-2.9033,-2.9044,-2.901,-2.901,-2.9033,-2.9033,-2.9021,-2.8987,-2.8727,-2.8419,-2.8265,-2.8073,-2.7714,-2.7321,-2.7192,-2.7059,-2.6696,-2.6378,-2.6048,-2.5586,-2.4909,-2.4466,-2.4199,-2.4365,-2.4603,-2.4475,-2.307,-2.302,-2.302,-2.2919,-2.2751,-2.2786,-2.279,-2.2738,-2.2738,-2.2725,-2.2712,-2.2708,-2.2738,-2.2725,-2.2751,-2.2777,-2.2777,-2.2777,-2.2764,-2.2799,-2.2871,-2.2993,-2.3165,-2.3369,-2.3592,-2.3798,-2.3929,-2.3989,-2.4049,-2.4145,-2.4173,-2.4201,-2.422,-2.4229,-2.458,-2.5653,-2.6739,-2.7091,-2.6938,-2.7316,-2.7896,-2.7556,-2.7659,-2.8876,-2.9232,-2.9283,-2.9283,-2.9283,-2.9272,-2.9262,-2.9251,-2.924,-2.9211,-2.92,-2.9207,-2.9207,-2.9218,-2.92,-2.9145,-2.9055,-2.8904,-2.8989,-2.9127,-2.9294,-2.9386,-2.9388,-2.9315,-2.9312,-2.9302,-2.9269,-2.9163,-2.9152,-2.9167,-2.9171,-2.9246,-2.9301,-2.9385,-2.9445,-2.9494,-2.9523,-2.957,-2.9589,-2.9636,-2.9608,-2.9551,-2.9402,-2.9336,-2.9293,-2.9198,-2.9185,-2.9138,-2.91,-2.9051,-2.9067,-2.9082,-2.9067,-2.9067,-2.9204,-2.8955,-2.8884,-2.8677,-2.8336,-2.8276,-2.8334,-2.814,-2.7773,-2.7359,-2.6944,-2.6153,-2.5286,-2.5138,-2.5148,-2.475,-2.497,-2.4677,-2.3052,-2.302,-2.307,-2.2982,-2.2829,-2.2868,-2.2868,-2.2803,-2.2803,-2.2764,-2.2738,-2.276,-2.2803,-2.2816,-2.2842,-2.285,-2.2876,-2.2906,-2.2932,-2.2965,-2.3128,-2.3283,-2.3495,-2.3706,-2.3903,-2.4116,-2.4257,-2.4358,-2.442,-2.4411,-2.4437,-2.4437,-2.442,-2.4503,-2.4575,-2.5308,-2.6516,-2.7696,-2.7222,-2.7815,-2.8602,-2.8305,-2.8481,-2.9084,-2.9347,-2.9376,-2.9357,-2.9357,-2.9347,-2.9336,-2.9304,-2.9294,-2.9302,-2.9251,-2.9222,-2.924,-2.9211,-2.9232,-2.9283,-2.9272,-2.9296,-2.9286,-2.9336,-2.9368,-2.9378,-2.9378,-2.9409,-2.9409,-2.9378,-2.9365,-2.9294,-2.9275,-2.933,-2.9363,-2.9415,-2.9494,-2.9607,-2.9734,-2.9794,-3.0158,-2.9913,-2.9701,-2.9774,-2.9828,-2.9873,-2.98,-2.9725,-2.9598,-2.9427,-2.9338,-2.9295,-2.9272,-2.9217,-2.9228,-2.9259,-2.9115,-2.9149,-2.9346,-2.9409,-2.9283,-2.9293,-2.9145,-2.9175,-2.9355,-2.9017,-2.8464,-2.811,-2.7775,-2.7269,-2.6888,-2.6574,-2.6386,-2.5829,-2.536,-2.517,-2.3168,-2.3082,-2.3095,-2.3028,-2.2927,-2.2957,-2.2932,-2.2881,-2.285,-2.2855,-2.2842,-2.2868,-2.2868,-2.2881,-2.2919,-2.2927,-2.2952,-2.3121,-2.3157,-2.3194,-2.3411,-2.361,-2.379,-2.3941,-2.4126,-2.433,-2.4482,-2.45,-2.4482,-2.4508,-2.45,-2.45,-2.4537,-2.4816,-2.5197,-2.5764,-2.6498,-2.765,-2.752,-2.7631,-2.9043,-2.8653,-2.8542,-2.9351,-2.9388,-2.9388,-2.9388,-2.9388,-2.9388,-2.9388,-2.9347,-2.9365,-2.9365,-2.9315,-2.9326,-2.9326,-2.9326,-2.939,-2.9512,-2.958,-2.9589,-2.9491,-2.9419,-2.9429,-2.9407,-2.9388,-2.9431,-2.9512,-2.9513,-2.9532,-2.9608,-2.9626,-2.9644,-2.9625,-2.9678,-2.979,-2.9907,-3.0045,-3.0233,-3.0839,-3.0948,-3.1119,-3.1222,-3.0696,-3.0563,-3.0307,-3.0197,-2.9857,-2.9625,-2.956,-2.9486,-2.9486,-2.9466,-2.9475,-2.9445,-2.9343,-2.9363,-2.9561,-2.9598,-2.9504,-2.9561,-2.9672,-2.9635,-2.955,-2.9381,-2.9156,-2.8926,-2.8762,-2.8907,-2.8717,-2.8157,-2.7159,-2.6172,-2.591,-2.5945,-2.3253,-2.3168,-2.3119,-2.3082,-2.3045,-2.3045,-2.3008,-2.2944,-2.2944,-2.2932,-2.2919,-2.2914,-2.299,-2.3052,-2.3102,-2.3182,-2.32,-2.3376,-2.3468,-2.3502,-2.3682,-2.386,-2.4001,-2.4145,-2.4312,-2.4474,-2.4508,-2.4508,-2.4507,-2.4507,-2.4507,-2.4507,-2.4508,-2.4723,-2.5169,-2.5596,-2.6303,-2.7278,-2.7408,-2.8021,-2.8876,-2.8988,-2.8868,-2.9258,-2.9388,-2.9388,-2.9388,-2.9388,-2.9388,-2.9388,-2.9388,-2.9388,-2.9388,-2.9388,-2.9388,-2.9388,-2.9451,-2.9512,-2.9598,-2.9769,-2.9744,-2.9636,-2.9589,-2.9579,-2.9589,-2.9608,-2.9636,-2.9681,-2.9688,-2.9741,-2.9836,-2.9869,-2.9867,-2.9859,-2.9915,-3.0026,-3.0099,-3.0246,-3.0566,-3.1213,-3.1449,-3.1878,-3.2256,-3.1866,-3.136,-3.1019,-3.0689,-3.0251,-2.9832,-2.9771,-2.9702,-2.9677,-2.967,-2.9653,-2.9635,-2.958,-2.9635,-2.9786,-2.9769,-2.9707,-2.982,-2.9921,-2.9845,-2.9803,-2.9731,-2.9699,-2.9761,-2.9742,-2.9653,-2.9575,-2.9358,-2.8161,-2.665,-2.6317,-2.639,-2.3313,-2.3307,-2.318,-2.3132,-2.3102,-2.3126,-2.3077,-2.302,-2.302,-2.2965,-2.294,-2.3028,-2.3187,-2.3365,-2.3463,-2.3547,-2.3689,-2.3764,-2.3785,-2.384,-2.3999,-2.4079,-2.4201,-2.4348,-2.4437,-2.4491,-2.4517,-2.4515,-2.4513,-2.4513,-2.4513,-2.4505,-2.4498,-2.462,-2.4871,-2.5578,-2.6303,-2.7018,-2.7706,-2.8374,-2.9099,-2.9314,-2.9279,-2.9429,-2.9431,-2.9461,-2.9461,-2.9451,-2.944,-2.9438,-2.9417,-2.9407,-2.9388,-2.9388,-2.9388,-2.9431,-2.9532,-2.9617,-2.9725,-2.9894,-2.9958,-2.991,-2.991,-2.9929,-2.9872,-2.9822,-2.9828,-2.9861,-2.9883,-2.9918,-2.995,-3.0,-3.003,-3.0053,-3.0097,-3.0161,-3.0247,-3.0471,-3.0797,-3.1079,-3.1098,-3.1411,-3.1949,-3.186,-3.1628,-3.1347,-3.0899,-3.0412,-3.0059,-3.0011,-2.9943,-2.9859,-2.9834,-2.982,-2.9794,-2.9794,-2.9864,-2.9996,-2.9953,-2.9929,-3.0057,-3.0109,-3.0057,-3.0034,-3.0135,-3.0142,-3.0042,-3.0057,-3.0109,-3.0028,-2.9755,-2.8764,-2.7165,-2.6605,-2.6401,-2.3533,-2.3459,-2.3491,-2.3429,-2.3277,-2.3342,-2.3271,-2.3095,-2.3065,-2.3156,-2.3324,-2.3354,-2.3492,-2.3678,-2.37,-2.3753,-2.3847,-2.3939,-2.3999,-2.4097,-2.4238,-2.4338,-2.4419,-2.4464,-2.4498,-2.4515,-2.4505,-2.4513,-2.4503,-2.4512,-2.4512,-2.4495,-2.4515,-2.4517,-2.5029,-2.5866,-2.6479,-2.7092,-2.7817,-2.8608,-2.9194,-2.9409,-2.947,-2.9502,-2.9541,-2.9598,-2.9672,-2.9598,-2.9561,-2.956,-2.946,-2.9407,-2.9388,-2.9388,-2.9419,-2.9551,-2.9688,-2.9851,-2.9969,-3.0135,-3.0221,-3.0202,-3.0227,-3.0097,-3.0015,-2.9942,-2.9981,-3.0026,-3.0044,-3.0085,-3.014,-3.0194,-3.0207,-3.0227,-3.0247,-3.0292,-3.0343,-3.0439,-3.0784,-3.1149,-3.113,-3.1687,-3.2129,-3.1847,-3.1635,-3.1417,-3.1078,-3.058,-3.0273,-3.0189,-3.0148,-3.0041,-3.0011,-2.9996,-3.0045,-3.0072,-3.0113,-3.015,-3.0113,-3.0072,-3.0135,-3.0183,-3.0204,-3.0204,-3.0204,-3.0204,-3.019,-3.0204,-3.0204,-2.9956,-2.9634,-2.8722,-2.7868,-2.7177,-2.6496,-2.3803,-2.3739,-2.3767,-2.3674,-2.3569,-2.3624,-2.3414,-2.3037,-2.3234,-2.3486,-2.3609,-2.362,-2.3739,-2.3881,-2.3929,-2.3989,-2.4126,-2.421,-2.4266,-2.4302,-2.4429,-2.4454,-2.4507,-2.4505,-2.4532,-2.453,-2.4528,-2.4564,-2.4553,-2.4572,-2.459,-2.459,-2.4568,-2.4764,-2.5322,-2.6316,-2.7092,-2.7643,-2.8199,-2.8849,-2.9214,-2.9461,-2.957,-2.9617,-2.9662,-2.9801,-2.9886,-2.975,-2.9724,-2.9698,-2.9579,-2.9472,-2.9472,-2.9482,-2.9579,-2.9697,-2.9875,-2.9992,-3.0087,-3.0273,-3.0361,-3.0404,-3.0404,-3.0286,-3.0214,-3.0173,-3.0181,-3.0215,-3.0209,-3.0254,-3.0323,-3.0398,-3.0398,-3.0398,-3.0398,-3.0398,-3.0398,-3.0398,-3.0744,-3.1212,-3.1686,-3.2257,-3.2359,-3.1942,-3.1635,-3.1462,-3.1096,-3.0578,-3.033,-3.0299,-3.026,-3.0207,-3.02,-3.02,-3.0221,-3.0219,-3.0199,-3.0204,-3.019,-3.0183,-3.0204,-3.0211,-3.0211,-3.0211,-3.0204,-3.0204,-3.0204,-3.0204,-3.0166,-2.9937,-2.9765,-2.9209,-2.833,-2.7306,-2.6619,-2.4171,-2.4097,-2.3963,-2.4026,-2.4046,-2.3898,-2.3459,-2.2939,-2.3499,-2.3749,-2.3702,-2.3819,-2.3969,-2.4145,-2.4173,-2.4275,-2.4374,-2.4445,-2.4454,-2.4485,-2.4507,-2.4532,-2.4539,-2.4512,-2.4555,-2.458,-2.4629,-2.4657,-2.4695,-2.4703,-2.4711,-2.4698,-2.4655,-2.4944,-2.5778,-2.6739,-2.7514,-2.8163,-2.8802,-2.9428,-2.9465,-2.9589,-2.9708,-2.9715,-2.9815,-2.9943,-2.9946,-2.9942,-2.9907,-2.9851,-2.9758,-2.9644,-2.9626,-2.9635,-2.9732,-2.9859,-3.0007,-3.0095,-3.0182,-3.0336,-3.0367,-3.0404,-3.0404,-3.0361,-3.0324,-3.0305,-3.0305,-3.0311,-3.0317,-3.0317,-3.0373,-3.0404,-3.0404,-3.0404,-3.0404,-3.0404,-3.0404,-3.0398,-3.0513,-3.0917,-3.1269,-3.1782,-3.1661,-3.1199,-3.1173,-3.1231,-3.1038,-3.0494,-3.0386,-3.0356,-3.0343,-3.0311,-3.028,-3.0267,-3.0235,-3.0234,-3.0226,-3.0206,-3.0225,-3.0218,-3.0206,-3.0218,-3.0211,-3.0211,-3.0218,-3.0211,-3.0204,-3.0211,-3.0211,-3.0161,-2.997,-2.9752,-2.8912,-2.7784,-2.6848,-2.481,-2.4247,-2.4116,-2.4561,-2.515,-2.3832,-2.3628,-2.4082,-2.364,-2.3444,-2.3336,-2.387,-2.4284,-2.4418,-2.4426,-2.4495,-2.4539,-2.4547,-2.4564,-2.4564,-2.4574,-2.4601,-2.4634,-2.4599,-2.4615,-2.4668,-2.4719,-2.4782,-2.4818,-2.4811,-2.4797,-2.4771,-2.4787,-2.5186,-2.6081,-2.702,-2.782,-2.8534,-2.9344,-2.9713,-2.9699,-2.9698,-2.9758,-2.9943,-3.0117,-3.0183,-3.0183,-3.017,-3.0143,-3.0087,-2.9985,-2.9888,-2.984,-2.9834,-2.9907,-3.0011,-3.0082,-3.0182,-3.0267,-3.0355,-3.0398,-3.0404,-3.0404,-3.0404,-3.0398,-3.0404,-3.0404,-3.0404,-3.0404,-3.0404,-3.0404,-3.0404,-3.0404,-3.0404,-3.0404,-3.0404,-3.0404,-3.0379,-3.0373,-3.0584,-3.0859,-3.0873,-3.079,-3.0738,-3.0692,-3.0654,-3.0615,-3.0404,-3.0404,-3.0386,-3.038,-3.0349,-3.0317,-3.0286,-3.0267,-3.0248,-3.0241,-3.0234,-3.0234,-3.0221,-3.0214,-3.0226,-3.0226,-3.0213,-3.0206,-3.0232,-3.0225,-3.0211,-3.0218,-3.0213,-3.0181,-2.9971,-2.9512,-2.8536,-2.7478,-2.5455,-2.5065,-2.4984,-2.5091,-2.5209,-2.4603,-2.4294,-2.4105,-2.4,-2.3683,-2.339,-2.4026,-2.4488,-2.4607,-2.4599,-2.4623,-2.4623,-2.4588,-2.4615,-2.4623,-2.4631,-2.465,-2.4658,-2.4682,-2.4663,-2.4707,-2.4804,-2.4876,-2.5019,-2.4968,-2.4955,-2.4987,-2.5037,-2.5444,-2.6314,-2.716,-2.8026,-2.8765,-2.9706,-2.9994,-2.9946,-2.9985,-3.0007,-3.0203,-3.0303,-3.0375,-3.0381,-3.0364,-3.0346,-3.0273,-3.0163,-3.0075,-3.004,-3.0018,-3.0102,-3.0196,-3.0248,-3.0273,-3.0367,-3.041,-3.041,-3.039,-3.0404,-3.0404,-3.0404,-3.0404,-3.0404,-3.0404,-3.0404,-3.0404,-3.0404,-3.0404,-3.0404,-3.0404,-3.0404,-3.0404,-3.0404,-3.0398,-3.0379,-3.0456,-3.0609,-3.0609,-3.0546,-3.0552,-3.0519,-3.0519,-3.0404,-3.0404,-3.0404,-3.041,-3.041,-3.0396,-3.0352,-3.0322,-3.0292,-3.0279,-3.028,-3.028,-3.0266,-3.0291,-3.0328,-3.0273,-3.0234,-3.0253,-3.0246,-3.0266,-3.0259,-3.0245,-3.0233,-3.026,-3.0253,-3.0215,-2.9672,-2.9111,-2.8141,-2.6228,-2.6293,-2.6199,-2.5748,-2.512,-2.5515,-2.4997,-2.3938,-2.4257,-2.405,-2.3484,-2.419,-2.4567,-2.4604,-2.4623,-2.4666,-2.4674,-2.4647,-2.4655,-2.4671,-2.4687,-2.4715,-2.4757,-2.4757,-2.4813,-2.4967,-2.5151,-2.5304,-2.5457,-2.561,-2.5763,-2.5482,-2.5597,-2.5884,-2.6709,-2.7528,-2.8483,-2.9231,-2.9934,-3.0271,-3.0322,-3.0322,-3.0279,-3.0315,-3.0409,-3.0505,-3.0495,-3.049,-3.049,-3.0433,-3.0327,-3.0266,-3.0235,-3.0241,-3.0279,-3.0352,-3.0396,-3.0396,-3.0427,-3.0414,-3.0402,-3.0396,-3.039,-3.039,-3.041,-3.0404,-3.0404,-3.0404,-3.0404,-3.0404,-3.0404,-3.0404,-3.0404,-3.0404,-3.0404,-3.0404,-3.0404,-3.0404,-3.0404,-3.0404,-3.0404,-3.0404,-3.0404,-3.0404,-3.0404,-3.0404,-3.0404,-3.0404,-3.0404,-3.0421,-3.0408,-3.0436,-3.0414,-3.0381,-3.0352,-3.0361,-3.0378,-3.0389,-3.0402,-3.0413,-3.0422,-3.0375,-3.0329,-3.0299,-3.0292,-3.0279,-3.0299,-3.0292,-3.0286,-3.028,-3.0273,-3.019,-2.9653,-2.9092,-2.8575,-2.7355,-2.7872,-2.7261,-2.6848,-2.6547,-2.5515,-2.4764,-2.4426,-2.3938,-2.3269,-2.322,-2.4061,-2.4684,-2.4692,-2.4676,-2.47,-2.4715,-2.47,-2.4684,-2.4692,-2.4779,-2.4818,-2.4943,-2.5105,-2.5112,-2.5457,-2.5918,-2.6247,-2.6355,-2.6855,-2.722,-2.7105,-2.7143,-2.7603,-2.8468,-2.9014,-2.9207,-2.9822,-3.0155,-3.0519,-3.0469,-3.0439,-3.0422,-3.046,-3.0554,-3.0535,-3.0525,-3.055,-3.0525,-3.0491,-3.0471,-3.043,-3.0409,-3.0417,-3.0428,-3.0433,-3.0477,-3.0472,-3.0453,-3.0453,-3.0447,-3.0411,-3.0425,-3.0414,-3.0408,-3.039,-3.039,-3.0404,-3.0404,-3.0404,-3.0404,-3.0404,-3.0404,-3.0404,-3.0404,-3.0404,-3.0404,-3.0404,-3.0404,-3.0404,-3.0404,-3.0404,-3.0404,-3.0404,-3.0404,-3.041,-3.0408,-3.0408,-3.0406,-3.0425,-3.0442,-3.0465,-3.0472,-3.0467,-3.0448,-3.0509,-3.0531,-3.0531,-3.0527,-3.0518,-3.051,-3.0472,-3.0439,-3.0392,-3.0329,-3.0299,-3.0299,-3.0355,-3.0305,-3.0317,-3.0298,-3.0132,-2.9628,-2.9257,-2.8906]},{"header":{"parameterUnit":"m.s-1","parameterCategory":1,"la1":31.0,"la2":29.5877,"lo1":-88.7671,"lo2":-86.6584,"dy":0.0162,"dx":0.0185,"nx":115,"ny":88,"refTime":"2023-07-02T06:00:00:Z","depth":0,"parameterNumber":3,"parameterNumberName":"V-component_of_WINDS"},"data":[0.0,0.0,0.0,0.0,0.0,0.0,0.0,0.0,0.0,0.0,0.0,0.0,0.0,0.0,0.0,0.0,0.0,0.0,0.0,0.0,0.0,0.0,0.0,0.0,0.0,0.0,0.0,0.0,0.0,0.0,0.0,0.0,0.0,0.0,0.0,0.0,0.0,0.0,0.0,0.0,0.0,0.0,0.0,0.0,0.0,0.0,0.0,0.0,0.0,0.0,0.0,0.0,0.0,0.0,0.0,0.0,0.0,0.0,0.0,0.0,0.0,0.0,0.0,0.0,0.0,0.0,0.0,0.0,0.0,0.0,0.0,0.0,0.0,0.0,0.0,0.0,0.0,0.0,0.0,0.0,0.0,0.0,0.0,0.0,0.0,0.0,0.0,0.0,0.0,0.0,0.0,0.0,0.0,0.0,0.0,0.0,0.0,0.0,0.0,0.0,0.0,0.0,0.0,0.0,0.0,0.0,0.0,0.0,0.0,0.0,0.0,0.0,0.0,0.0,0.0,0.0,0.0,0.0,0.0,0.0,0.0,0.0,0.0,0.0,0.0,0.0,0.0,0.0,0.0,0.0,0.0,0.0,0.0,0.0,0.0,0.0,0.0,0.0,0.0,0.0,0.0,0.0,0.0,0.0,0.0,0.0,0.0,0.0,0.0,0.0,0.0,0.0,0.0,0.0,0.0,0.0,0.0,0.0,0.0,0.0,0.0,0.0,0.0,0.0,0.0,0.0,0.0,0.0,0.0,0.0,0.0,0.0,0.0,0.0,0.0,0.0,0.0,0.0,0.0,0.0,0.0,0.0,0.0,0.0,0.0,0.0,0.0,0.0,0.0,0.0,0.0,0.0,0.0,0.0,0.0,0.0,0.0,0.0,0.0,0.0,0.0,0.0,0.0,0.0,0.0,0.0,0.0,0.0,0.0,0.0,0.0,0.0,0.0,0.0,0.0,0.0,0.0,0.0,0.0,0.0,0.0,0.0,0.0,0.0,0.0,0.0,0.0,0.0,0.0,0.0,0.0,0.0,0.0,0.0,0.0,0.0,0.0,0.0,0.0,0.0,0.0,0.0,0.0,0.0,0.0,0.0,0.0,0.0,0.0,0.0,0.0,0.0,0.0,0.0,0.0,0.0,0.0,0.0,0.0,0.0,0.0,0.0,0.0,0.0,0.0,0.0,0.0,0.0,0.0,0.0,0.0,0.0,0.0,0.0,0.0,0.0,0.0,0.0,0.0,0.0,0.0,0.0,0.0,0.0,0.0,0.0,0.0,0.0,0.0,0.0,0.0,0.0,0.0,0.0,0.0,0.0,0.0,0.0,0.0,0.0,0.0,0.0,0.0,0.0,0.0,0.0,0.0,0.0,0.0,0.0,0.0,0.0,0.0,0.0,0.0,0.0,0.0,0.0,0.0,0.0,0.0,0.0,0.0,0.0,0.0,0.0,0.0,0.0,0.0,0.0,0.0,0.0,0.0,0.0,0.0,0.0,0.0,0.0,0.0,0.0,0.0,0.0,0.0,0.0,0.0,0.0,0.0,0.0,0.0,0.0,0.0,0.0,0.0,0.0,0.0,0.0,0.0,0.0,0.0,0.0,0.0,0.0,0.0,0.0,0.0,0.0,0.0,0.0,0.0,0.0,0.0,0.0,0.0,0.0,0.0,0.0,0.0,0.0,0.0,0.0,0.0,0.0,0.0,0.0,0.0,0.0,0.0,0.0,0.0,0.0,0.0,0.0,0.0,0.0,0.0,0.0,0.0,0.0,0.0,0.0,0.0,0.0,0.0,0.0,0.0,0.0,0.0,0.0,0.0,0.0,0.0,0.0,0.0,0.0,0.0,0.0,0.0,0.0,0.0,0.0,0.0,0.0,0.0,0.0,0.0,0.0,0.0,0.0,0.0,0.0,0.0,0.0,0.0,0.0,0.0,0.0,0.0,0.0,0.0,0.0,0.0,0.0,0.0,0.0,0.0,0.0,0.0,0.0,0.0,0.0,0.0,0.0,0.0,0.0,0.0,0.0,0.0,0.0,0.0,0.0,0.0,0.0,0.0,0.0,0.0,0.0,0.0,0.0,0.0,0.0,0.0,0.0,0.0,0.0,0.0,0.0,0.0,0.0,0.0,0.0,0.0,0.0,0.0,0.0,0.0,0.0,0.0,0.0,0.0,0.0,0.0,0.0,0.0,0.0,0.0,0.0,0.0,0.0,0.0,0.0,0.0,0.0,0.0,0.0,0.0,0.0,0.0,0.0,0.0,0.0,0.0,0.0,0.0,0.0,0.0,0.0,0.0,0.0,0.0,0.0,0.0,0.0,0.0,0.0,0.0,0.0,0.0,0.0,0.0,0.0,0.0,0.0,0.0,0.0,0.0,0.0,0.0,0.0,0.0,0.0,0.0,0.0,0.0,0.0,0.0,0.0,0.0,0.0,0.0,0.0,0.0,0.0,0.0,0.0,0.0,0.0,0.0,0.0,0.0,0.0,0.0,0.0,0.0,0.0,0.0,0.0,0.0,0.0,0.0,0.0,0.0,0.0,0.0,0.0,0.0,0.0,0.0,0.0,0.0,0.0,0.0,0.0,0.0,0.0,0.0,0.0,0.0,0.0,0.0,0.0,0.0,0.0,0.0,0.0,0.0,0.0,0.0,0.0,0.0,0.0,0.0,0.0,0.0,0.0,0.0,0.0,0.0,0.0,0.0,0.0,0.0,0.0,0.0,0.0,0.0,0.0,0.0,0.0,0.0,0.0,0.0,0.0,0.0,0.0,0.0,0.0,0.0,0.0,0.0,0.0,0.0,0.0,0.0,0.0,0.0,0.0,0.0,0.0,0.0,0.0,0.0,0.0,0.0,0.0,0.0,0.0,0.0,0.0,0.0,0.0,0.0,0.0,0.0,0.0,0.0,0.0,0.0,0.0,0.0,0.0,0.0,0.0,0.0,0.0,0.0,0.0,0.0,0.0,0.0,0.0,0.0,0.0,0.0,0.0,0.0,0.0,0.0,0.0,0.0,0.0,0.0,0.0,0.0,0.0,0.0,0.0,0.0,0.0,0.0,0.0,0.0,0.0,0.0,0.0,0.0,0.0,0.0,0.0,0.0,0.0,0.0,0.0,0.0,0.0,0.0,0.0,0.0,0.0,0.0,0.0,0.0,0.0,0.0,0.0,0.0,0.0,0.0,0.0,0.0,0.0,0.0,0.0,0.0,0.0,0.0,0.0,0.0,0.0,0.0,0.0,0.0,0.0,0.0,0.0,0.0,0.0,0.0,0.0,0.0,0.0,0.0,0.0,0.0,0.0,0.0,0.0,0.0,0.0,0.0,0.0,0.0,0.0,0.0,0.0,0.0,0.0,0.0,0.0,0.0,0.0,0.0,0.0,0.0,0.0,0.0,0.0,0.0,0.0,0.0,0.0,0.0,0.0,0.0,0.0,0.0,0.0,0.0,0.0,0.0,0.0,0.0,0.0,0.0,0.0,0.0,0.0,0.0,0.0,0.0,0.0,0.0,0.0,0.0,0.0,0.0,0.0,0.0,0.0,0.0,0.0,0.0,0.0,0.0,0.0,0.0,0.0,0.0,0.0,0.0,0.0,0.0,0.0,0.0,0.0,0.0,0.0,0.0,0.0,0.0,0.0,0.0,0.0,0.0,0.0,0.0,0.0,0.0,0.0,0.0,0.0,0.0,0.0,0.0,0.0,0.0,0.0,0.0,0.0,0.0,0.0,0.0,0.0,0.0,0.0,0.0,0.0,0.0,0.0,0.0,0.0,0.0,0.0,0.0,0.0,0.0,0.0,0.0,0.0,0.0,0.0,0.0,0.0,0.0,0.0,0.0,0.0,0.0,0.0,0.0,0.0,0.0,0.0,0.0,0.0,0.0,0.0,0.0,0.0,0.0,0.0,0.0,0.0,0.0,0.0,0.0,0.0,0.0,0.0,0.0,0.0,0.0,0.0,0.0,0.0,0.0,0.0,0.0,0.0,0.0,0.0,0.0,0.0,0.0,0.0,0.0,0.0,0.0,0.0,0.0,0.0,0.0,0.0,0.0,0.0,0.0,0.0,0.0,0.0,0.0,0.0,0.0,0.0,0.0,0.0,0.0,0.0,0.0,0.0,0.0,0.0,0.0,0.0,0.0,0.0,0.0,0.0,0.0,0.0,0.0,0.0,0.0,0.0,0.0,0.0,0.0,0.0,0.0,0.0,0.0,0.0,0.0,0.0,0.0,0.0,0.0,0.0,0.0,0.0,0.0,0.0,0.0,0.0,0.0,0.0,0.0,0.0,-1.8422,0.0,0.0,0.0,0.0,0.0,0.0,0.0,0.0,0.0,0.0,0.0,0.0,0.0,0.0,0.0,0.0,0.0,0.0,0.0,0.0,0.0,0.0,0.0,0.0,0.0,0.0,0.0,0.0,0.0,0.0,0.0,0.0,0.0,0.0,0.0,0.0,0.0,0.0,0.0,0.0,0.0,0.0,0.0,0.0,0.0,0.0,0.0,0.0,0.0,0.0,0.0,0.0,0.0,0.0,0.0,0.0,0.0,0.0,0.0,0.0,0.0,0.0,0.0,0.0,0.0,0.0,0.0,0.0,0.0,0.0,0.0,0.0,0.0,0.0,0.0,0.0,0.0,0.0,0.0,0.0,0.0,0.0,0.0,0.0,0.0,0.0,0.0,0.0,0.0,0.0,0.0,0.0,0.0,0.0,0.0,0.0,0.0,0.0,0.0,0.0,0.0,0.0,0.0,0.0,0.0,0.0,0.0,0.0,0.0,0.0,-1.8847,-1.8638,-1.8481,-1.8357,-1.8364,0.0,0.0,0.0,0.0,0.0,0.0,0.0,0.0,0.0,0.0,0.0,0.0,0.0,0.0,0.0,0.0,0.0,0.0,0.0,0.0,0.0,0.0,0.0,0.0,0.0,0.0,0.0,0.0,0.0,0.0,0.0,0.0,0.0,0.0,0.0,0.0,0.0,0.0,0.0,0.0,0.0,0.0,0.0,0.0,0.0,0.0,0.0,0.0,0.0,0.0,0.0,0.0,0.0,0.0,0.0,0.0,0.0,0.0,0.0,0.0,0.0,0.0,0.0,0.0,0.0,0.0,0.0,0.0,0.0,0.0,0.0,0.0,0.0,0.0,0.0,0.0,0.0,0.0,0.0,0.0,0.0,0.0,0.0,0.0,0.0,0.0,0.0,0.0,0.0,0.0,0.0,0.0,0.0,0.0,0.0,0.0,0.0,0.0,0.0,0.0,0.0,0.0,0.0,0.0,0.0,0.0,0.0,0.0,0.0,0.0,0.0,0.0,-1.8332,-1.8214,-1.8249,0.0,0.0,0.0,0.0,0.0,0.0,0.0,0.0,0.0,0.0,0.0,0.0,0.0,0.0,0.0,0.0,0.0,0.0,0.0,0.0,0.0,0.0,0.0,0.0,0.0,0.0,0.0,0.0,0.0,0.0,0.0,0.0,0.0,0.0,0.0,0.0,0.0,0.0,0.0,0.0,0.0,0.0,0.0,0.0,0.0,0.0,0.0,0.0,0.0,0.0,0.0,0.0,0.0,0.0,0.0,0.0,0.0,0.0,0.0,0.0,0.0,0.0,0.0,0.0,0.0,0.0,0.0,0.0,0.0,0.0,0.0,0.0,0.0,0.0,0.0,0.0,0.0,0.0,0.0,0.0,0.0,0.0,0.0,0.0,0.0,0.0,0.0,0.0,0.0,0.0,0.0,0.0,0.0,0.0,0.0,0.0,0.0,0.0,0.0,0.0,0.0,0.0,0.0,0.0,0.0,0.0,0.0,0.0,0.0,0.0,-1.8359,-1.8161,-1.8172,0.0,-1.7854,0.0,0.0,0.0,0.0,0.0,0.0,0.0,0.0,0.0,0.0,0.0,0.0,0.0,0.0,0.0,0.0,0.0,0.0,0.0,0.0,0.0,0.0,0.0,0.0,0.0,0.0,0.0,0.0,0.0,0.0,0.0,0.0,0.0,0.0,0.0,0.0,0.0,0.0,0.0,0.0,0.0,0.0,0.0,0.0,0.0,0.0,0.0,0.0,0.0,0.0,0.0,0.0,0.0,0.0,0.0,0.0,0.0,0.0,0.0,0.0,0.0,0.0,0.0,0.0,0.0,0.0,0.0,0.0,0.0,0.0,0.0,0.0,0.0,0.0,0.0,0.0,0.0,0.0,0.0,0.0,0.0,0.0,0.0,0.0,0.0,0.0,0.0,0.0,0.0,0.0,0.0,0.0,0.0,0.0,0.0,0.0,0.0,0.0,0.0,0.0,0.0,0.0,0.0,0.0,0.0,0.0,0.0,0.0,0.0,0.0,-1.8055,-1.7993,-1.808,-1.7823,0.0,0.0,0.0,0.0,0.0,0.0,0.0,0.0,0.0,0.0,0.0,0.0,0.0,0.0,0.0,0.0,0.0,0.0,0.0,0.0,0.0,0.0,0.0,0.0,0.0,0.0,0.0,0.0,0.0,0.0,0.0,0.0,0.0,0.0,0.0,0.0,0.0,0.0,0.0,0.0,0.0,0.0,0.0,0.0,0.0,0.0,0.0,0.0,0.0,0.0,0.0,0.0,0.0,0.0,0.0,0.0,0.0,0.0,0.0,0.0,0.0,0.0,0.0,0.0,0.0,0.0,0.0,0.0,0.0,0.0,0.0,0.0,0.0,0.0,0.0,0.0,0.0,0.0,0.0,0.0,0.0,0.0,0.0,0.0,0.0,0.0,0.0,0.0,0.0,0.0,0.0,0.0,0.0,0.0,0.0,0.0,0.0,0.0,0.0,0.0,0.0,0.0,0.0,0.0,0.0,0.0,0.0,0.0,0.0,0.0,-1.7438,-1.7696,-1.7696,-1.7739,-1.7438,-1.6776,0.0,0.0,0.0,0.0,0.0,0.0,0.0,0.0,0.0,0.0,0.0,0.0,0.0,0.0,0.0,0.0,0.0,0.0,0.0,0.0,0.0,0.0,0.0,0.0,0.0,0.0,0.0,0.0,0.0,0.0,0.0,0.0,0.0,0.0,0.0,0.0,0.0,0.0,0.0,0.0,0.0,0.0,0.0,0.0,0.0,0.0,0.0,0.0,0.0,0.0,0.0,0.0,0.0,0.0,0.0,0.0,0.0,0.0,0.0,0.0,0.0,0.0,0.0,0.0,0.0,0.0,0.0,0.0,0.0,0.0,0.0,0.0,0.0,0.0,0.0,0.0,0.0,0.0,0.0,0.0,0.0,0.0,0.0,0.0,0.0,0.0,0.0,0.0,0.0,0.0,0.0,0.0,0.0,0.0,0.0,0.0,0.0,0.0,0.0,0.0,0.0,0.0,0.0,0.0,0.0,0.0,0.0,0.0,-1.6815,-1.7054,-1.723,-1.7191,-1.7051,-1.6951,0.0,0.0,0.0,0.0,0.0,0.0,0.0,0.0,0.0,0.0,0.0,0.0,0.0,0.0,0.0,0.0,0.0,0.0,0.0,0.0,0.0,0.0,0.0,0.0,0.0,0.0,0.0,0.0,0.0,0.0,0.0,0.0,0.0,0.0,0.0,0.0,0.0,0.0,0.0,0.0,0.0,0.0,0.0,0.0,0.0,0.0,0.0,0.0,0.0,0.0,0.0,0.0,0.0,0.0,0.0,0.0,0.0,0.0,0.0,0.0,0.0,0.0,0.0,0.0,0.0,0.0,0.0,0.0,0.0,0.0,0.0,0.0,0.0,0.0,0.0,0.0,0.0,0.0,0.0,0.0,0.0,0.0,0.0,0.0,0.0,0.0,0.0,0.0,0.0,0.0,0.0,0.0,0.0,0.0,0.0,0.0,0.0,0.0,0.0,0.0,0.0,0.0,0.0,0.0,0.0,0.0,0.0,0.0,0.0,-1.6127,-1.6073,-1.6007,-1.594,-1.6381,-1.6651,0.0,0.0,0.0,0.0,0.0,0.0,0.0,0.0,0.0,0.0,0.0,0.0,0.0,0.0,0.0,0.0,0.0,0.0,0.0,0.0,0.0,0.0,0.0,0.0,0.0,0.0,0.0,0.0,0.0,0.0,0.0,0.0,0.0,0.0,0.0,0.0,0.0,0.0,0.0,0.0,0.0,0.0,0.0,0.0,0.0,0.0,0.0,0.0,0.0,0.0,0.0,0.0,0.0,0.0,0.0,0.0,0.0,0.0,0.0,0.0,0.0,0.0,0.0,0.0,0.0,0.0,0.0,0.0,0.0,0.0,0.0,0.0,0.0,0.0,0.0,0.0,0.0,0.0,0.0,0.0,0.0,0.0,0.0,0.0,0.0,0.0,0.0,0.0,0.0,0.0,0.0,0.0,0.0,0.0,0.0,0.0,0.0,0.0,0.0,0.0,0.0,0.0,0.0,0.0,0.0,0.0,0.0,0.0,0.0,-1.5249,0.0,-1.4883,-1.5021,-1.5767,-1.6318,0.0,0.0,0.0,0.0,0.0,0.0,0.0,0.0,0.0,0.0,0.0,0.0,0.0,0.0,0.0,0.0,0.0,0.0,0.0,0.0,0.0,0.0,0.0,0.0,0.0,0.0,0.0,0.0,0.0,0.0,0.0,0.0,0.0,0.0,0.0,0.0,0.0,0.0,0.0,0.0,0.0,0.0,0.0,0.0,0.0,0.0,0.0,0.0,0.0,0.0,0.0,0.0,0.0,0.0,0.0,0.0,0.0,0.0,0.0,0.0,0.0,0.0,0.0,0.0,0.0,0.0,0.0,0.0,0.0,0.0,0.0,0.0,0.0,0.0,0.0,0.0,0.0,0.0,0.0,0.0,0.0,0.0,0.0,0.0,0.0,0.0,0.0,0.0,0.0,0.0,0.0,0.0,0.0,0.0,0.0,0.0,0.0,0.0,0.0,0.0,0.0,0.0,0.0,0.0,0.0,0.0,0.0,0.0,-1.5167,-1.4216,-1.3863,-1.3941,-1.4478,-1.5187,-1.5869,0.0,0.0,0.0,0.0,0.0,0.0,0.0,0.0,0.0,0.0,0.0,0.0,0.0,0.0,0.0,0.0,0.0,0.0,0.0,0.0,0.0,0.0,0.0,0.0,0.0,0.0,0.0,0.0,0.0,0.0,0.0,0.0,0.0,0.0,0.0,0.0,0.0,0.0,0.0,0.0,0.0,0.0,0.0,0.0,0.0,0.0,0.0,0.0,0.0,0.0,0.0,0.0,0.0,0.0,0.0,0.0,0.0,0.0,0.0,0.0,0.0,0.0,0.0,0.0,0.0,0.0,0.0,0.0,0.0,0.0,0.0,0.0,0.0,0.0,0.0,0.0,0.0,0.0,0.0,0.0,0.0,0.0,0.0,0.0,0.0,0.0,0.0,0.0,0.0,0.0,0.0,0.0,0.0,0.0,0.0,0.0,0.0,0.0,0.0,0.0,0.0,0.0,0.0,0.0,0.0,0.0,0.0,0.0,0.0,-1.2964,-1.281,-1.3026,-1.3605,-1.457,-1.5648,0.0,0.0,0.0,0.0,0.0,0.0,0.0,0.0,0.0,0.0,0.0,0.0,0.0,0.0,0.0,0.0,0.0,0.0,0.0,0.0,0.0,0.0,0.0,0.0,0.0,0.0,0.0,0.0,0.0,0.0,0.0,0.0,0.0,0.0,0.0,0.0,0.0,0.0,0.0,0.0,0.0,0.0,0.0,0.0,0.0,0.0,0.0,0.0,0.0,0.0,0.0,0.0,0.0,0.0,0.0,0.0,0.0,0.0,0.0,0.0,0.0,0.0,0.0,0.0,0.0,0.0,0.0,0.0,0.0,0.0,0.0,0.0,0.0,0.0,0.0,0.0,0.0,0.0,0.0,0.0,0.0,0.0,0.0,0.0,0.0,0.0,0.0,0.0,0.0,0.0,0.0,0.0,0.0,0.0,0.0,0.0,0.0,0.0,0.0,0.0,0.0,0.0,0.0,0.0,0.0,0.0,0.0,0.0,0.0,-1.1819,-1.1942,-1.2326,-1.2916,-1.4132,-1.5449,-1.6824,0.0,0.0,0.0,0.0,0.0,0.0,0.0,0.0,0.0,0.0,0.0,0.0,0.0,0.0,0.0,0.0,0.0,0.0,0.0,0.0,0.0,0.0,0.0,0.0,0.0,0.0,0.0,0.0,0.0,0.0,0.0,0.0,0.0,0.0,0.0,0.0,0.0,0.0,0.0,0.0,0.0,0.0,0.0,0.0,0.0,0.0,0.0,0.0,0.0,0.0,0.0,0.0,0.0,0.0,0.0,0.0,0.0,0.0,0.0,0.0,0.0,0.0,0.0,0.0,0.0,0.0,0.0,0.0,0.0,0.0,0.0,0.0,0.0,0.0,0.0,0.0,0.0,0.0,0.0,0.0,0.0,0.0,0.0,0.0,0.0,0.0,0.0,0.0,0.0,0.0,0.0,0.0,0.0,0.0,0.0,0.0,0.0,0.0,0.0,0.0,0.0,0.0,0.0,0.0,0.0,0.0,0.0,0.0,-1.0764,-1.1292,-1.187,-1.2415,-1.3796,-1.5243,0.0,0.0,0.0,0.0,0.0,0.0,0.0,0.0,0.0,0.0,0.0,0.0,0.0,0.0,0.0,0.0,0.0,0.0,0.0,0.0,0.0,0.0,0.0,0.0,0.0,0.0,0.0,0.0,0.0,0.0,0.0,0.0,0.0,0.0,0.0,0.0,0.0,0.0,0.0,0.0,0.0,0.0,0.0,0.0,0.0,0.0,0.0,0.0,0.0,0.0,0.0,0.0,0.0,0.0,0.0,0.0,0.0,0.0,0.0,0.0,0.0,0.0,0.0,0.0,0.0,0.0,0.0,0.0,0.0,0.0,0.0,0.0,0.0,0.0,0.0,0.0,0.0,0.0,0.0,0.0,0.0,0.0,0.0,0.0,0.0,0.0,0.0,0.0,0.0,0.0,0.0,0.0,0.0,0.0,0.0,0.0,0.0,0.0,0.0,0.0,0.0,0.0,0.0,0.0,0.0,0.0,0.0,0.0,0.0,-1.0425,-1.1064,-1.1729,-1.2305,-1.3532,-1.5004,0.0,0.0,0.0,0.0,0.0,0.0,0.0,0.0,0.0,0.0,0.0,0.0,0.0,0.0,0.0,0.0,0.0,0.0,0.0,0.0,0.0,0.0,0.0,0.0,0.0,0.0,0.0,0.0,0.0,0.0,0.0,0.0,0.0,0.0,0.0,0.0,0.0,0.0,0.0,0.0,0.0,0.0,0.0,0.0,0.0,0.0,0.0,0.0,0.0,0.0,0.0,0.0,0.0,0.0,0.0,0.0,0.0,0.0,0.0,0.0,0.0,0.0,0.0,0.0,0.0,0.0,0.0,0.0,0.0,0.0,0.0,0.0,0.0,0.0,0.0,0.0,0.0,0.0,0.0,0.0,0.0,0.0,0.0,0.0,0.0,0.0,0.0,0.0,0.0,0.0,0.0,0.0,0.0,0.0,0.0,0.0,0.0,0.0,0.0,0.0,0.0,0.0,0.0,0.0,0.0,0.0,0.0,0.0,-1.0662,-0.9987,-1.0262,-1.091,-1.1878,-1.3436,-1.5065,0.0,0.0,0.0,0.0,0.0,0.0,0.0,0.0,0.0,0.0,0.0,0.0,0.0,0.0,0.0,0.0,0.0,0.0,0.0,0.0,0.0,0.0,0.0,0.0,0.0,0.0,0.0,0.0,0.0,0.0,0.0,0.0,0.0,0.0,0.0,0.0,0.0,0.0,0.0,0.0,0.0,0.0,0.0,0.0,0.0,0.0,0.0,0.0,0.0,0.0,0.0,0.0,0.0,0.0,0.0,0.0,0.0,0.0,0.0,0.0,0.0,0.0,0.0,0.0,0.0,0.0,0.0,0.0,0.0,0.0,0.0,0.0,0.0,0.0,0.0,0.0,0.0,0.0,0.0,0.0,0.0,0.0,0.0,0.0,0.0,0.0,0.0,0.0,0.0,0.0,0.0,0.0,0.0,0.0,0.0,0.0,0.0,0.0,0.0,0.0,0.0,0.0,0.0,0.0,0.0,0.0,0.0,0.0,-1.0031,-0.9561,-0.9354,-0.9937,-1.1367,-1.3385,-1.5174,0.0,0.0,0.0,0.0,0.0,0.0,0.0,0.0,0.0,0.0,0.0,0.0,0.0,0.0,0.0,0.0,0.0,0.0,0.0,0.0,0.0,0.0,0.0,0.0,0.0,0.0,0.0,0.0,0.0,0.0,0.0,0.0,0.0,0.0,0.0,0.0,0.0,0.0,0.0,0.0,0.0,0.0,0.0,0.0,0.0,0.0,0.0,0.0,0.0,0.0,0.0,0.0,0.0,0.0,0.0,0.0,0.0,0.0,0.0,0.0,0.0,0.0,0.0,0.0,0.0,0.0,0.0,0.0,0.0,0.0,0.0,0.0,0.0,0.0,0.0,0.0,0.0,0.0,0.0,0.0,0.0,0.0,0.0,0.0,0.0,0.0,0.0,0.0,0.0,0.0,0.0,0.0,0.0,0.0,0.0,0.0,0.0,0.0,0.0,0.0,0.0,0.0,0.0,0.0,0.0,0.0,0.0,0.0,-0.9735,-0.9254,-0.981,-1.0521,-1.1374,-1.2806,-1.4563,0.0,0.0,0.0,0.0,0.0,0.0,0.0,0.0,0.0,0.0,0.0,0.0,0.0,0.0,0.0,0.0,0.0,0.0,0.0,0.0,0.0,0.0,0.0,0.0,0.0,0.0,0.0,0.0,0.0,0.0,0.0,0.0,0.0,0.0,0.0,0.0,0.0,0.0,0.0,0.0,0.0,0.0,0.0,0.0,0.0,0.0,0.0,0.0,-2.1828,0.0,0.0,0.0,0.0,0.0,0.0,0.0,0.0,0.0,0.0,0.0,0.0,0.0,0.0,0.0,0.0,0.0,0.0,0.0,0.0,0.0,0.0,0.0,0.0,0.0,0.0,0.0,0.0,0.0,0.0,0.0,0.0,0.0,0.0,0.0,0.0,0.0,0.0,0.0,0.0,0.0,0.0,0.0,0.0,0.0,0.0,0.0,0.0,0.0,0.0,0.0,0.0,0.0,0.0,0.0,0.0,0.0,0.0,0.0,-0.9309,-0.848,-0.9298,-1.0199,-1.1223,-1.2594,-1.4402,0.0,0.0,0.0,0.0,0.0,0.0,0.0,0.0,0.0,0.0,0.0,0.0,0.0,0.0,0.0,0.0,0.0,0.0,0.0,0.0,0.0,0.0,0.0,0.0,0.0,0.0,0.0,0.0,0.0,0.0,0.0,0.0,0.0,0.0,0.0,0.0,0.0,0.0,0.0,0.0,0.0,0.0,0.0,0.0,0.0,0.0,0.0,0.0,0.0,0.0,0.0,0.0,0.0,0.0,0.0,0.0,0.0,0.0,0.0,0.0,0.0,0.0,0.0,0.0,0.0,0.0,0.0,0.0,0.0,0.0,0.0,0.0,0.0,0.0,0.0,0.0,0.0,0.0,0.0,0.0,0.0,0.0,0.0,0.0,0.0,0.0,0.0,0.0,0.0,0.0,0.0,0.0,0.0,0.0,0.0,0.0,0.0,0.0,0.0,0.0,0.0,0.0,0.0,0.0,0.0,0.0,0.0,-0.9602,-0.8844,-0.78,-0.8651,-0.9767,-1.1017,-1.2692,-1.4556,-1.6634,0.0,0.0,0.0,0.0,0.0,0.0,0.0,0.0,0.0,0.0,0.0,0.0,0.0,0.0,0.0,0.0,0.0,0.0,0.0,0.0,0.0,0.0,0.0,0.0,0.0,0.0,0.0,0.0,0.0,0.0,0.0,0.0,0.0,0.0,0.0,0.0,0.0,0.0,-1.6489,-1.5913,0.0,0.0,0.0,0.0,0.0,0.0,0.0,0.0,-2.0086,0.0,0.0,0.0,0.0,0.0,0.0,0.0,0.0,0.0,0.0,0.0,0.0,0.0,0.0,0.0,0.0,0.0,0.0,0.0,0.0,0.0,0.0,0.0,0.0,0.0,0.0,0.0,0.0,0.0,0.0,0.0,0.0,0.0,0.0,0.0,0.0,0.0,0.0,0.0,0.0,0.0,0.0,0.0,0.0,0.0,0.0,0.0,0.0,0.0,0.0,0.0,0.0,0.0,0.0,0.0,0.0,-0.98,-0.9186,-0.8495,-0.7772,-0.909,-1.03,-1.1267,-1.3296,-1.5119,-1.6662,0.0,0.0,0.0,0.0,0.0,0.0,0.0,0.0,0.0,0.0,0.0,0.0,0.0,0.0,0.0,0.0,0.0,0.0,0.0,0.0,0.0,0.0,0.0,0.0,0.0,0.0,0.0,0.0,0.0,0.0,0.0,0.0,0.0,0.0,0.0,0.0,0.0,0.0,0.0,-1.4427,-1.4582,0.0,0.0,0.0,0.0,0.0,0.0,0.0,0.0,-1.9355,0.0,0.0,0.0,0.0,0.0,0.0,0.0,0.0,0.0,0.0,0.0,0.0,0.0,0.0,0.0,0.0,0.0,0.0,0.0,0.0,0.0,0.0,0.0,0.0,0.0,0.0,0.0,0.0,0.0,0.0,0.0,0.0,0.0,0.0,0.0,0.0,0.0,0.0,0.0,0.0,0.0,0.0,0.0,0.0,0.0,0.0,0.0,0.0,0.0,0.0,0.0,0.0,0.0,0.0,0.0,-0.916,-0.893,-0.8366,-0.7279,-0.9111,-1.0521,-1.1305,-1.3447,-1.5226,0.0,0.0,0.0,0.0,0.0,0.0,0.0,0.0,0.0,0.0,0.0,0.0,0.0,0.0,0.0,0.0,0.0,0.0,0.0,0.0,0.0,0.0,0.0,0.0,0.0,0.0,0.0,0.0,0.0,0.0,0.0,0.0,0.0,0.0,0.0,0.0,0.0,0.0,0.0,0.0,-1.4005,-1.3757,-1.3367,0.0,0.0,0.0,0.0,0.0,0.0,-1.8032,-1.8467,0.0,0.0,0.0,0.0,0.0,0.0,0.0,0.0,0.0,0.0,0.0,0.0,0.0,0.0,0.0,0.0,0.0,0.0,0.0,0.0,0.0,0.0,0.0,0.0,0.0,0.0,0.0,0.0,0.0,0.0,0.0,0.0,0.0,0.0,0.0,0.0,0.0,0.0,0.0,0.0,0.0,0.0,0.0,0.0,0.0,0.0,0.0,0.0,0.0,0.0,0.0,0.0,0.0,0.0,0.0,-0.8847,-0.8892,-0.8361,-0.7144,-0.9302,-1.0773,-1.1423,-1.3584,-1.5361,0.0,0.0,0.0,0.0,0.0,0.0,0.0,0.0,0.0,0.0,0.0,0.0,0.0,0.0,0.0,0.0,0.0,0.0,0.0,0.0,0.0,0.0,0.0,0.0,0.0,0.0,0.0,0.0,0.0,0.0,0.0,0.0,0.0,0.0,0.0,0.0,0.0,0.0,0.0,0.0,0.0,-1.2956,-1.2113,-1.3057,0.0,0.0,0.0,0.0,-1.7164,-1.725,0.0,0.0,0.0,0.0,0.0,0.0,0.0,0.0,0.0,0.0,0.0,0.0,0.0,0.0,0.0,0.0,0.0,0.0,0.0,0.0,0.0,0.0,0.0,0.0,0.0,0.0,0.0,0.0,0.0,0.0,0.0,0.0,0.0,0.0,0.0,0.0,0.0,0.0,0.0,0.0,0.0,0.0,0.0,0.0,0.0,0.0,0.0,0.0,0.0,0.0,0.0,0.0,0.0,0.0,0.0,0.0,-0.9888,-0.9288,-0.8689,-0.8161,-1.0097,-1.1361,-1.1772,-1.4037,-1.5815,0.0,0.0,0.0,0.0,0.0,0.0,0.0,0.0,0.0,0.0,0.0,0.0,0.0,0.0,0.0,0.0,0.0,0.0,0.0,0.0,0.0,0.0,0.0,0.0,0.0,0.0,0.0,0.0,0.0,0.0,0.0,0.0,0.0,0.0,0.0,0.0,0.0,0.0,0.0,0.0,0.0,-1.2047,-1.1929,-1.1971,-1.2586,0.0,0.0,-1.5014,-1.6124,-1.6925,0.0,0.0,0.0,0.0,0.0,0.0,0.0,0.0,0.0,0.0,0.0,0.0,0.0,0.0,0.0,0.0,0.0,0.0,0.0,0.0,0.0,0.0,0.0,0.0,0.0,0.0,0.0,0.0,0.0,0.0,0.0,0.0,0.0,0.0,0.0,0.0,0.0,0.0,0.0,0.0,0.0,0.0,0.0,0.0,0.0,0.0,0.0,0.0,0.0,0.0,0.0,0.0,0.0,0.0,0.0,-1.2058,-1.0153,-0.95,-0.9037,-0.8833,-1.0634,-1.1826,-1.2358,-1.4531,-1.6016,0.0,0.0,0.0,0.0,0.0,0.0,0.0,0.0,0.0,0.0,0.0,0.0,0.0,0.0,0.0,0.0,0.0,0.0,0.0,0.0,0.0,0.0,0.0,0.0,0.0,0.0,0.0,0.0,0.0,0.0,0.0,0.0,0.0,0.0,0.0,0.0,0.0,0.0,0.0,0.0,0.0,0.0,-1.189,-1.1793,0.0,0.0,0.0,-1.4841,-1.6577,0.0,0.0,0.0,0.0,0.0,0.0,0.0,0.0,0.0,0.0,0.0,0.0,0.0,0.0,0.0,0.0,0.0,0.0,0.0,0.0,0.0,0.0,0.0,0.0,0.0,0.0,0.0,0.0,0.0,0.0,0.0,0.0,0.0,0.0,0.0,0.0,0.0,0.0,0.0,0.0,0.0,0.0,0.0,0.0,0.0,0.0,0.0,0.0,0.0,0.0,0.0,0.0,0.0,0.0,0.0,0.0,0.0,-1.1073,-1.0256,-0.9894,-0.9995,-1.1476,-1.2565,-1.3152,-1.4955,0.0,0.0,0.0,0.0,0.0,0.0,0.0,0.0,0.0,0.0,0.0,0.0,0.0,0.0,0.0,0.0,0.0,0.0,0.0,0.0,0.0,0.0,0.0,0.0,0.0,0.0,0.0,-1.941,0.0,0.0,0.0,0.0,0.0,0.0,0.0,0.0,0.0,0.0,0.0,0.0,0.0,0.0,-1.1689,-1.1882,-1.1919,-1.2249,0.0,0.0,-1.5316,-1.6584,-1.6724,-1.7146,0.0,0.0,0.0,0.0,0.0,0.0,0.0,0.0,0.0,0.0,0.0,0.0,0.0,0.0,0.0,0.0,0.0,0.0,0.0,0.0,0.0,0.0,0.0,0.0,0.0,0.0,0.0,0.0,0.0,0.0,0.0,0.0,0.0,0.0,0.0,0.0,0.0,0.0,0.0,0.0,0.0,0.0,0.0,0.0,0.0,0.0,0.0,0.0,0.0,0.0,0.0,0.0,0.0,0.0,-1.3986,-1.3345,-1.2039,-1.1568,-1.2077,-1.3065,-1.373,-1.4109,-1.5319,-1.6629,0.0,0.0,0.0,0.0,0.0,0.0,0.0,0.0,0.0,0.0,0.0,0.0,0.0,0.0,0.0,0.0,0.0,0.0,0.0,0.0,0.0,0.0,0.0,0.0,0.0,0.0,0.0,0.0,0.0,0.0,0.0,0.0,0.0,0.0,0.0,0.0,0.0,0.0,0.0,0.0,0.0,-1.1715,-1.1972,-1.2251,-1.2816,0.0,-1.5773,-1.6727,-1.5362,-1.7019,-1.8028,-1.6925,0.0,0.0,0.0,0.0,0.0,0.0,0.0,0.0,0.0,0.0,0.0,0.0,0.0,0.0,0.0,0.0,0.0,0.0,0.0,0.0,0.0,0.0,0.0,0.0,0.0,0.0,0.0,0.0,0.0,0.0,0.0,0.0,0.0,0.0,0.0,0.0,0.0,0.0,0.0,0.0,0.0,0.0,0.0,0.0,0.0,0.0,0.0,0.0,0.0,0.0,0.0,0.0,0.0,-1.4478,-1.4016,-1.2546,-1.2414,-1.3614,-1.3891,-1.4444,-1.5352,-1.6266,-1.7181,0.0,0.0,0.0,0.0,0.0,0.0,0.0,0.0,0.0,0.0,0.0,0.0,0.0,0.0,0.0,0.0,0.0,0.0,0.0,0.0,0.0,0.0,0.0,0.0,0.0,0.0,0.0,0.0,-1.7727,-1.7861,-1.9431,0.0,0.0,0.0,0.0,0.0,0.0,0.0,0.0,0.0,0.0,-1.2226,-1.2824,-1.3454,0.0,0.0,-1.712,-1.8041,-1.7698,-1.8219,-1.852,-1.8159,-1.8581,0.0,0.0,0.0,0.0,0.0,0.0,0.0,0.0,0.0,0.0,0.0,0.0,0.0,0.0,0.0,0.0,0.0,0.0,0.0,0.0,0.0,0.0,0.0,0.0,0.0,0.0,0.0,0.0,0.0,0.0,0.0,0.0,0.0,0.0,0.0,0.0,0.0,0.0,0.0,0.0,0.0,0.0,0.0,0.0,0.0,0.0,0.0,0.0,0.0,0.0,0.0,0.0,-1.5243,-1.489,-1.3664,-1.3613,-1.4812,-1.4974,-1.5427,-1.6262,-1.6967,-1.7578,0.0,0.0,0.0,0.0,0.0,0.0,0.0,0.0,0.0,0.0,0.0,0.0,0.0,0.0,0.0,0.0,0.0,0.0,0.0,0.0,0.0,0.0,0.0,0.0,0.0,0.0,0.0,0.0,-1.7998,-1.8202,-1.9518,0.0,0.0,0.0,0.0,0.0,0.0,0.0,0.0,0.0,0.0,-1.2868,-1.3464,-1.435,-1.5394,-1.6556,-1.7683,-1.8562,-1.8817,-1.8661,-1.8547,-1.8642,0.0,0.0,0.0,0.0,0.0,0.0,0.0,0.0,0.0,0.0,0.0,0.0,0.0,0.0,0.0,0.0,0.0,0.0,0.0,0.0,0.0,0.0,0.0,0.0,0.0,0.0,0.0,-2.018,0.0,0.0,-2.0207,0.0,0.0,0.0,0.0,0.0,0.0,0.0,0.0,0.0,0.0,0.0,0.0,0.0,0.0,0.0,0.0,0.0,0.0,0.0,0.0,0.0,0.0,-1.6526,-1.6271,-1.5656,-1.5447,-1.5628,-1.6473,-1.684,-1.6744,-1.7288,-1.7779,-1.8192,0.0,0.0,0.0,0.0,0.0,0.0,0.0,0.0,0.0,0.0,0.0,0.0,0.0,0.0,0.0,0.0,0.0,0.0,0.0,0.0,0.0,0.0,0.0,0.0,0.0,0.0,-1.8605,-1.936,-1.9876,0.0,0.0,0.0,0.0,0.0,0.0,0.0,0.0,0.0,-1.4273,-1.3773,-1.3496,-1.3632,-1.474,-1.5847,-1.6457,-1.7463,-1.8091,-1.794,-1.8031,-1.8016,0.0,0.0,0.0,0.0,0.0,0.0,0.0,0.0,0.0,0.0,0.0,0.0,0.0,0.0,0.0,0.0,0.0,0.0,0.0,0.0,0.0,0.0,0.0,0.0,0.0,0.0,0.0,-2.0912,-2.0986,0.0,0.0,0.0,0.0,0.0,0.0,0.0,0.0,0.0,0.0,0.0,-1.9108,-2.0157,0.0,0.0,0.0,0.0,0.0,0.0,0.0,0.0,0.0,0.0,0.0,0.0,-1.7283,-1.7441,-1.6596,-1.6509,-1.72,-1.7379,-1.7643,-1.7943,-1.8169,-1.8231,-1.819,0.0,0.0,0.0,0.0,0.0,0.0,0.0,0.0,0.0,0.0,0.0,0.0,0.0,0.0,0.0,0.0,0.0,0.0,0.0,0.0,0.0,0.0,0.0,0.0,0.0,-1.7804,0.0,0.0,0.0,0.0,0.0,0.0,0.0,0.0,0.0,0.0,-1.5488,-1.4602,-1.4261,-1.4281,-1.4422,-1.4533,-1.5753,-1.6982,0.0,0.0,0.0,0.0,0.0,0.0,0.0,0.0,0.0,0.0,0.0,0.0,0.0,0.0,-1.8693,-1.9413,-1.9186,-1.9174,-1.9965,0.0,0.0,0.0,0.0,0.0,0.0,0.0,0.0,0.0,0.0,0.0,0.0,0.0,0.0,-2.186,-2.2043,-2.1793,0.0,0.0,0.0,0.0,0.0,0.0,0.0,0.0,-2.0113,-2.0372,-2.0121,-2.1397,-2.2069,-2.214,-2.2365,-2.2353,0.0,0.0,0.0,0.0,0.0,0.0,0.0,0.0,-1.839,-1.8328,-1.771,-1.7532,-1.7803,-1.7951,-1.8051,-1.8109,-1.7972,-1.7872,-1.7784,-1.7883,-1.8314,0.0,0.0,0.0,0.0,0.0,0.0,0.0,0.0,0.0,0.0,0.0,0.0,0.0,0.0,0.0,0.0,0.0,0.0,0.0,0.0,0.0,0.0,0.0,-1.739,0.0,0.0,0.0,0.0,0.0,0.0,0.0,0.0,0.0,-1.628,-1.5444,-1.4836,-1.4622,-1.5083,-1.5391,-1.5276,0.0,0.0,0.0,0.0,0.0,0.0,0.0,-1.87,-1.8169,-1.8205,-1.8247,-1.8123,-1.8084,-1.8084,-1.8084,0.0,0.0,-1.9191,-1.9132,-1.9203,-1.9913,-2.0067,-2.0065,-2.0069,-2.0055,-2.0022,0.0,0.0,0.0,0.0,-2.3114,0.0,0.0,0.0,-2.275,-2.2919,0.0,-2.3004,0.0,0.0,0.0,0.0,-2.0425,-2.1375,0.0,0.0,-2.1223,-2.1679,-2.1447,-2.2728,-2.349,-2.374,-2.3864,-2.3987,-2.396,-2.1667,0.0,0.0,0.0,0.0,0.0,0.0,-1.978,-1.8884,-1.8959,-1.8561,-1.7617,-1.8201,-1.8147,-1.7277,-1.6824,-1.6765,-1.7028,-1.724,-1.7733,-1.8653,-1.9471,0.0,0.0,0.0,0.0,0.0,0.0,0.0,0.0,0.0,0.0,0.0,0.0,0.0,0.0,0.0,0.0,0.0,0.0,0.0,0.0,-1.7045,0.0,0.0,0.0,0.0,0.0,0.0,0.0,0.0,0.0,-1.7522,-1.6325,-1.572,-1.5369,-1.5359,0.0,0.0,0.0,0.0,-1.7064,-1.7549,-1.7277,-1.742,-1.8566,-1.826,-1.7975,-1.8084,0.0,0.0,-1.8084,-1.8084,-1.8123,-1.8134,-1.89,-1.938,-1.8817,-1.9177,-1.9405,-1.9252,-1.9978,-2.0213,-1.9429,-1.9988,-2.0423,-2.4471,0.0,0.0,0.0,0.0,-2.555,-2.5529,-2.5432,-2.4831,-2.4199,-2.3589,-2.3219,0.0,0.0,0.0,0.0,0.0,0.0,-2.2403,-2.1745,-2.2751,-2.3013,-2.2698,-2.3934,-2.4537,-2.465,-2.4654,-2.4702,-2.4673,-2.3211,-2.243,-2.2313,0.0,0.0,0.0,0.0,-1.9488,-1.9686,-1.9197,-1.8729,-1.8437,-1.8365,-1.8008,-1.7351,-1.6871,-1.6946,-1.767,-1.7549,-1.7861,-1.8721,-1.9569,0.0,0.0,0.0,0.0,0.0,0.0,0.0,0.0,0.0,0.0,0.0,0.0,0.0,0.0,0.0,0.0,0.0,0.0,0.0,-1.6673,-1.7084,-1.7683,0.0,0.0,0.0,0.0,0.0,0.0,0.0,0.0,0.0,-1.8041,-1.7208,-1.6533,0.0,0.0,-1.6658,-1.6389,-1.6543,-1.6972,-1.7767,-1.7466,0.0,-1.8686,-1.8321,-1.7963,-1.8084,-1.8084,-1.8084,-1.8084,-1.8084,-1.8253,-1.8726,-1.9062,-1.9343,-1.9844,-2.0204,-2.0498,-2.0675,-2.068,-2.0659,-2.071,-2.0719,-2.0683,-2.5106,-2.5447,-2.5501,-2.5726,-2.598,-2.6148,-2.6089,-2.587,-2.5431,-2.4831,-2.4109,-2.3683,-2.3066,-2.2363,-2.2675,0.0,0.0,0.0,-2.314,-2.2811,-2.3815,-2.4152,-2.3975,-2.4668,-2.4984,-2.4984,-2.4752,-2.4641,-2.4641,-2.3861,-2.3331,-2.299,0.0,-2.1732,-2.1793,-2.0637,-1.9888,-1.9662,-1.9134,-1.8675,-1.8257,-1.7807,-1.7399,-1.7099,-1.6756,-1.6923,-1.7644,-1.7717,-1.819,-1.9136,-1.9527,-1.9943,0.0,0.0,0.0,0.0,0.0,0.0,0.0,0.0,0.0,0.0,0.0,-2.1042,-2.0409,0.0,0.0,0.0,-1.7039,-1.6485,-1.6814,-1.7084,0.0,0.0,0.0,0.0,0.0,0.0,0.0,-1.9723,-1.9279,-1.9076,-1.9498,-1.8785,-1.7978,-1.7397,-1.7525,-1.7501,-1.691,0.0,-1.7459,-1.7757,-1.7516,-1.7595,-1.8362,-1.8157,-1.7936,-1.8084,-1.8084,-1.8084,-1.8111,-1.826,-1.8568,-1.9002,-1.942,-1.9835,-2.0294,-2.073,-2.0969,-2.1069,-2.1176,-2.1223,-2.1139,-2.117,-2.1277,-2.5354,-2.5091,-2.5091,-2.5119,-2.5203,-2.5725,-2.5682,-2.5161,-2.5161,-2.4984,-2.471,-2.4306,-2.3666,-2.2919,-2.2851,0.0,-2.3256,-2.3554,-2.3575,-2.338,-2.4458,-2.4925,-2.494,-2.4923,-2.495,-2.4992,-2.4388,-2.4132,-2.4177,-2.3942,-2.3693,-2.3472,-2.2883,-2.2363,-2.1911,-2.1576,-2.0625,-1.9049,-1.8963,-1.8422,-1.7376,-1.6847,-1.6606,-1.6616,-1.6544,-1.6735,-1.722,-1.7855,-1.8657,-1.9601,-1.9363,-1.9696,-2.0735,0.0,0.0,0.0,0.0,0.0,0.0,0.0,0.0,0.0,0.0,0.0,0.0,0.0,0.0,-1.7346,-1.656,0.0,-1.7174,-1.7185,0.0,0.0,0.0,-1.874,-1.9583,-1.9587,-1.984,-2.0644,0.0,0.0,-2.0656,-2.0293,-1.9613,-1.8489,-1.8778,-1.8662,-1.7487,-1.8051,-1.8345,-1.7662,-1.7595,-1.7678,-1.7965,-1.7947,-1.7975,-1.8057,-1.8084,-1.8111,-1.8162,-1.8582,-1.895,-1.9228,-1.9996,-2.0609,-2.0491,-2.0903,-2.1079,-2.0786,-2.1368,-2.1721,-2.0983,-2.1395,-2.187,-2.5563,-2.5683,-2.5683,-2.595,-2.6385,-2.6526,-2.6512,-2.6385,-2.6385,-2.5598,-2.4278,-2.4163,-2.3716,-2.3091,-2.3568,-2.4052,-2.4546,-2.4632,-2.4634,-2.4553,-2.4408,-2.4307,-2.4307,-2.4322,-2.4556,-2.4936,-2.4374,-2.4331,-2.4753,-2.4266,-2.3536,-2.2651,-2.2446,-2.222,-2.1847,-2.049,-1.9519,-1.9013,-1.859,-1.7881,-1.6835,-1.6667,-1.6586,-1.6526,-1.6593,-1.6858,-1.7263,-1.8413,-1.8882,-1.8617,-1.9301,-1.9603,-1.9338,-1.9992,0.0,0.0,0.0,0.0,0.0,0.0,0.0,0.0,0.0,-2.0308,-1.9579,0.0,-1.8348,0.0,-1.7826,-1.7733,-1.76,-1.8061,0.0,0.0,-1.8813,-1.9197,-2.0034,-1.9459,-1.9578,-2.1059,-2.1086,-2.1027,-2.1201,-2.1292,-2.1075,-2.0345,-1.9614,-1.8955,-1.8441,-1.8802,-1.8849,-1.8041,-1.8215,-1.8435,-1.8137,-1.8057,-1.8057,-1.8084,-1.8111,-1.8139,-1.8302,-1.8789,-1.9302,-1.9961,-2.0619,-2.1024,-2.1112,-2.1601,-2.1693,-2.1303,-2.1119,-2.1043,-2.1169,-2.1434,-2.1683,-2.559,-2.5514,-2.5781,-2.609,-2.6399,-2.6399,-2.6399,-2.6399,-2.6399,-2.5528,-2.4075,-2.3512,-2.3206,-2.3126,-2.3487,-2.4163,-2.4978,-2.5006,-2.5006,-2.5006,-2.495,-2.4613,-2.4118,-2.4118,-2.412,-2.4149,-2.3558,-2.3417,-2.3741,-2.3417,-2.2811,-2.1887,-2.1649,-2.1353,-2.0945,-1.9967,-1.9303,-1.8975,-1.8001,-1.7195,-1.6619,-1.6379,-1.6282,-1.6374,-1.6616,-1.7037,-1.7644,-1.861,-1.9183,-1.9305,-1.9432,-1.9569,-1.9669,-1.9691,-1.9846,0.0,0.0,0.0,0.0,0.0,0.0,0.0,0.0,0.0,0.0,0.0,-1.8398,-1.8247,-1.8154,-1.8088,-1.8116,-1.8437,-1.8664,-1.8798,-1.8866,-1.9215,-2.0017,-1.9718,-2.0056,-2.1626,-2.1851,-2.2041,-2.2427,-2.2154,-2.1979,-2.2023,-2.086,-1.9693,-1.908,-1.912,-1.9006,-1.8288,-1.8478,-1.8665,-1.8282,-1.8232,-1.8243,-1.8239,-1.8255,-1.8298,-1.8484,-1.8907,-1.9417,-1.9955,-2.0466,-2.0863,-2.1018,-2.1263,-2.1437,-2.1409,-2.1171,-2.118,-2.165,-2.1746,-2.1878,-2.5557,-2.5175,-2.5669,-2.5893,-2.5893,-2.5893,-2.5893,-2.5893,-2.5893,-2.5231,-2.4008,-2.2756,-2.2479,-2.2985,-2.3069,-2.3769,-2.4866,-2.4795,-2.481,-2.4908,-2.5247,-2.488,-2.3867,-2.3853,-2.36,-2.3069,-2.2503,-2.225,-2.232,-2.2236,-2.1888,-2.1288,-2.0847,-2.0309,-1.9821,-1.9733,-1.9411,-1.8893,-1.7375,-1.6607,-1.6595,-1.609,-1.5947,-1.6253,-1.6629,-1.7153,-1.7926,-1.8561,-1.9325,-2.0248,-1.9513,-1.9504,-2.0379,-1.942,-1.9195,0.0,-1.9977,0.0,0.0,0.0,0.0,0.0,0.0,0.0,0.0,-1.8786,-1.8449,-1.8449,-1.8073,-1.805,-1.8614,-1.8545,-1.8572,-1.8798,-1.8825,-1.9108,-1.9803,-2.0117,-2.0799,-2.2212,-2.2724,-2.3166,-2.3614,-2.2925,-2.2677,-2.3196,-2.1951,-2.0606,-1.9811,-1.9597,-1.9378,-1.8724,-1.8658,-1.8748,-1.858,-1.8464,-1.8484,-1.8589,-1.86,-1.8622,-1.8848,-1.9266,-1.9648,-1.9894,-2.037,-2.0662,-2.07,-2.0797,-2.0983,-2.1329,-2.1461,-2.1626,-2.2044,-2.2147,-2.2194,-2.5632,-2.5725,-2.5851,-2.5893,-2.5893,-2.5893,-2.5893,-2.5893,-2.5893,-2.5231,-2.4022,-2.2756,-2.2264,-2.2419,-2.2897,-2.3519,-2.4258,-2.3713,-2.3755,-2.4258,-2.3319,-2.2784,-2.2559,-2.2559,-2.2756,-2.3041,-2.2503,-2.2461,-2.2915,-2.2447,-2.1722,-2.0759,-2.0635,-2.0335,-1.9794,0.0,0.0,0.0,-1.7195,-1.6607,-1.6583,-1.609,-1.6066,-1.6573,-1.6744,0.0,-1.7224,-1.8242,-1.8682,-1.8451,-1.9048,0.0,0.0,0.0,0.0,0.0,0.0,0.0,0.0,0.0,0.0,0.0,-1.9342,-1.9223,-1.9078,-1.8759,-1.8598,-1.8718,-1.8652,-1.8679,-1.8907,-1.8881,-1.8919,-1.8934,-1.8972,-1.9352,-2.0298,-2.0126,-2.0625,-2.2539,-2.3036,-2.3375,-2.3735,-2.3683,-2.3674,-2.3755,-2.2286,-2.1367,-2.1481,-2.1188,-2.084,-2.0029,-1.945,-1.925,-1.922,-1.8881,-1.8944,-1.9522,-1.9466,-1.946,-1.9914,-2.0435,-2.0829,-2.0968,-2.1486,-2.1645,-2.1316,-2.1585,-2.1746,-2.1458,-2.1759,-2.2091,-2.217,-2.2194,-2.2194,-2.5771,-2.5893,-2.5893,-2.5893,0.0,-2.5597,-2.5471,-2.5444,-2.543,-2.4781,-2.3558,-2.2615,-2.24,-2.2757,-2.3417,-2.4052,-2.4631,-2.4281,-2.4115,-2.4075,-2.3431,-2.2798,-2.2208,-2.2517,-2.2681,-2.2729,-2.2442,-2.2348,-2.2438,-2.2064,-2.1372,-2.0295,-2.022,-1.9936,-1.9426,-1.9119,-1.8855,-1.8602,-1.7556,-1.7003,-1.6955,-1.6211,-1.6013,-1.6436,-1.6479,0.0,0.0,0.0,0.0,0.0,0.0,0.0,0.0,-1.9161,0.0,-1.9057,-1.9446,-1.9604,-1.942,-1.9394,-1.9342,-1.9198,-1.9131,-1.9052,-1.9013,-1.8881,-1.8839,-1.8893,-1.8893,-1.8946,-1.8999,-1.9013,-1.9013,-1.9013,-1.9225,-1.9624,-2.011,-2.0461,-2.1108,-2.2352,-2.3205,-2.3825,-2.4338,-2.3887,-2.3774,-2.3917,-2.2263,-2.1129,-2.16,-2.1146,-2.0375,-1.9765,-1.9908,-1.9873,-1.9559,-1.9579,-1.96,-2.0121,-2.005,-2.0067,-2.0428,-2.0705,-2.0919,-2.1019,-2.1434,-2.1712,-2.1506,-2.1817,-2.2114,-2.1902,-2.202,-2.217,-2.2194,-2.2194,-2.2194,-2.588,-2.5893,-2.5893,-2.5893,-2.5851,-2.5233,-2.488,-2.4669,-2.4669,0.0,0.0,-2.2437,-2.2593,-2.331,-2.3858,-2.4439,-2.498,-2.4881,-2.453,-2.3949,-2.3861,-2.3255,-2.2273,-2.2738,-2.271,-2.2231,-2.2231,-2.202,-2.1602,-2.1482,-2.0919,-2.0016,-1.985,-1.9526,-1.9052,-1.9013,-1.9013,-1.8977,-1.7953,-1.7387,-1.7363,-1.6367,-1.5925,-1.6156,-1.6166,-1.6685,-1.7795,-1.7845,-1.8295,-1.9246,-1.8896,-1.8821,-1.9221,-1.8834,-1.8722,-1.903,-1.9051,-1.8983,-1.8891,-1.8891,-1.8839,-1.871,-1.8794,-1.8891,-1.8975,-1.9013,-1.9013,-1.9013,-1.9066,-1.9107,-1.9013,-1.9093,-1.9119,-1.9013,-1.9462,-1.9837,-1.999,-2.0785,-2.1637,-2.2373,-2.3267,-2.4027,-2.4494,-2.3687,-2.3231,-2.3498,-2.2092,-2.084,-2.1085,-2.0535,-1.9797,-1.9432,-1.9956,-2.0385,-2.0013,-2.0093,-2.0473,-2.0742,-2.0688,-2.0644,-2.0835,-2.0888,-2.0894,-2.1031,-2.1288,-2.1506,-2.1578,-2.1912,-2.217,-2.2194,-2.2194,-2.2194,-2.2194,-2.2194,-2.2194,-2.5661,-2.5893,-2.5893,-2.5893,-2.5851,-2.526,-2.4362,-2.3393,-2.3364,-2.3277,-2.3055,-2.2475,-2.2545,-2.3122,-2.322,-2.3639,-2.4188,-2.3681,-2.3396,-2.338,-2.288,-2.254,-2.2385,-2.2455,-2.2175,-2.1568,-2.1544,-2.1288,-2.0809,-2.0759,-2.0421,-1.9901,-1.9798,-1.9526,-1.904,-1.9013,-1.9013,-1.8975,-1.7941,-1.7387,-1.7375,-1.6332,-1.5869,-1.6022,-1.6022,-1.6149,-1.6465,-1.6512,-1.6749,-1.7353,-1.7328,-1.7257,-1.7248,-1.7592,-1.7569,-1.7086,-1.7436,-1.7665,-1.7665,-1.764,-1.764,-1.7639,-1.8061,-1.8506,-1.8951,-1.9013,-1.9013,-1.9013,-1.937,-1.95,-1.9119,-1.9396,-1.9462,-1.9131,-1.95,-1.9978,-2.0409,-2.105,-2.1798,-2.2794,-2.3106,-2.3309,-2.3507,-2.2916,-2.2519,-2.257,-2.1697,-2.1088,-2.0712,-2.0606,-2.023,-1.9887,-2.02,-2.0521,-2.0475,-2.051,-2.097,-2.1821,-2.152,-2.1396,-2.1762,-2.1846,-2.1841,-2.1921,-2.1959,-2.203,-2.2067,-2.2123,-2.2194,-2.2194,-2.2194,-2.2194,-2.2194,-2.2194,-2.2194,-2.4535,-2.4434,-2.4407,-2.4464,-2.4443,-2.4119,-2.33,-2.2235,-2.251,-2.2592,-2.2578,-2.232,-2.2569,-2.318,-2.3195,-2.377,-2.4674,-2.4038,-2.3925,-2.4112,-2.2908,-2.232,-2.228,-2.1675,-2.1264,-2.1066,-2.1055,-2.082,-2.0396,-2.0334,-2.0016,-1.9512,-1.9408,-1.9251,-1.9013,-1.9013,-1.9013,-1.9001,-1.8229,-1.7845,-1.782,-1.6787,-1.6257,-1.6313,-1.6048,-1.607,-1.6393,-1.6428,-1.6648,-1.7205,-1.7229,-1.7193,-1.7146,-1.7364,-1.734,-1.7087,-1.7255,-1.7387,-1.7387,-1.7387,-1.7387,-1.7399,-1.764,-1.7989,-1.853,-1.8831,-1.9013,-1.9013,-1.9239,-1.9265,-1.904,-1.9474,-1.9604,-1.904,-1.9978,-2.0635,-2.0709,-2.1348,-2.2023,-2.2544,-2.2919,-2.3105,-2.3195,-2.2419,-2.1881,-2.1851,-2.0952,-2.0047,-1.9787,-1.973,-1.9773,-1.9838,-2.0493,-2.0966,-2.104,-2.1313,-2.1674,-2.2161,-2.202,-2.1949,-2.217,-2.2194,-2.2194,-2.2194,-2.2194,-2.2194,-2.2194,-2.2194,-2.2194,-2.2194,-2.2194,-2.2194,-2.2194,-2.2194,-2.2194,-2.3288,-2.3199,-2.3096,-2.2976,-2.2865,-2.2784,-2.2223,-2.1461,-2.1855,-2.2091,-2.217,-2.2194,-2.2593,-2.3215,-2.3229,-2.372,-2.4385,-2.4031,-2.3914,-2.3839,-2.2398,-2.1779,-2.1839,-2.0873,-2.0447,-2.0582,-2.0572,-2.0333,-1.9953,-1.9811,-1.9552,-1.9196,-1.9052,-1.9013,-1.8987,-1.8879,-1.8819,-1.8782,-1.841,-1.8145,-1.8001,-1.7075,-1.6559,-1.6403,-1.6018,-1.6006,-1.6391,-1.6427,-1.6619,-1.6991,-1.7039,-1.7027,-1.7051,-1.7039,-1.7039,-1.7027,-1.7039,-1.7027,-1.7039,-1.7027,-1.7027,-1.7063,-1.7147,-1.7387,-1.782,-1.8446,-1.8867,-1.8963,-1.9133,-1.916,-1.9093,-1.9474,-1.963,-1.933,-2.0384,-2.097,-2.0759,-2.1541,-2.2053,-2.1991,-2.2367,-2.26,-2.2292,-2.1639,-2.1146,-2.0887,-1.9879,-1.909,-1.9146,-1.9093,-1.92,-1.9671,-2.0515,-2.1093,-2.1271,-2.1746,-2.21,-2.2194,-2.217,-2.2147,-2.218,-2.2109,-2.2095,-2.2109,-2.2039,-2.2053,-2.2137,-2.2194,-2.2194,-2.2194,-2.2194,-2.2194,-2.2194,-2.2194,-2.2194,-2.2461,-2.3082,-2.2677,-2.2233,-2.1655,-2.1641,-2.1576,-2.1415,-2.1458,-2.1759,-2.217,-2.2194,-2.2517,-2.3066,-2.3108,-2.2911,-2.2597,-2.2442,-2.1978,-2.1217,-2.0442,-2.0392,-2.0868,-2.03,-1.9975,-1.9876,-1.9901,-1.9643,-1.9212,-1.9146,-1.9066,-1.9025,-1.9013,-1.9013,-1.8965,-1.853,-1.8289,-1.8265,-1.8229,-1.7977,-1.7459,-1.6895,-1.6356,-1.5876,-1.585,-1.5804,-1.59,-1.5864,-1.5888,-1.5936,-1.5994,-1.5948,-1.596,-1.5982,-1.597,-1.596,-1.596,-1.5936,-1.597,-1.5936,-1.5984,-1.5972,-1.6427,-1.6703,-1.6835,-1.77,-1.8482,-1.8897,-1.9411,-1.9448,-1.9093,-1.9474,-1.9759,-1.963,-2.0283,-2.0635,-2.0684,-2.1541,-2.1841,-2.0833,-2.1321,-2.1212,-2.0579,-2.0248,-2.0042,-2.0038,-1.9408,-1.9085,-1.941,-1.9117,-1.8927,-1.9208,-1.9988,-2.0573,-2.0818,-2.1541,-2.2053,-2.217,-2.217,-2.2147,-2.2091,-2.1754,-2.1518,-2.2044,-2.1643,-2.1508,-2.2039,-2.2194,-2.217,-2.2194,-2.2194,-2.2194,-2.2194,-2.2147,-2.2123,-2.1017,-2.1169,-2.0984,-2.0571,-2.0175,-2.1013,-2.1232,-2.097,-2.1602,-2.1983,-2.2128,-2.1814,-2.1997,-2.2573,-2.255,-2.2433,-2.2198,-2.1935,-2.157,-2.1053,-1.9943,-1.9516,-1.9702,-1.9155,-1.8855,-1.8903,-1.917,-1.9225,-1.904,-1.9013,-1.9013,-1.9013,-1.9013,-1.8843,-1.8554,-1.8626,-1.8386,-1.7772,-1.835,-1.8265,-1.7496,-1.7183,-1.6967,-1.6715,-1.6151,-1.5814,-1.5814,-1.5814,-1.5814,-1.5814,-1.5814,-1.5814,-1.5814,-1.5814,-1.5814,-1.5814,-1.5814,-1.5814,-1.5814,-1.5814,-1.5814,-1.5814,-1.5996,-1.6259,-1.6583,-1.7015,-1.7496,-1.805,-1.8809,-1.9225,-1.9081,-1.95,-1.9669,-1.9526,-2.008,-2.0485,-2.0182,-2.0795,-2.1031,-2.0673,-2.0781,-2.0796,-2.0348,-1.9999,-1.9682,-1.9371,-1.8889,-1.8794,-1.9155,-1.8598,-1.8417,-1.8902,-1.9409,-1.9916,-2.0478,-2.1192,-2.1762,-2.2044,-2.1912,-2.1769,-2.1932,-2.1096,-2.0764,-2.1927,-2.113,-2.101,-2.2025,-2.1898,-2.1793,-2.1927,-2.2156,-2.2194,-2.2194,-2.1935,-2.1783,-1.9829,-1.978,-1.9624,-1.9375,-1.9119,-2.0232,-2.0684,-2.0709,-2.1444,-2.1935,-2.2114,-2.1561,-2.1451,-2.1709,-2.1717,-2.1563,-2.1235,-2.0919,-2.059,-2.0211,-1.8917,-1.8439,-1.8534,-1.799,-1.7775,-1.8027,-1.8362,-1.8542,-1.8554,-1.8566,-1.8566,-1.8554,-1.8554,-1.8374,-1.8061,-1.8265,-1.8049,-1.7544,-1.8193,-1.8241,-1.7688,-1.7459,-1.7352,-1.7111,-1.6295,-1.5814,-1.5814,-1.5814,-1.5814,-1.5814,-1.5814,-1.5814,-1.5814,-1.5814,-1.5814,-1.5814,-1.5814,-1.5814,-1.5814,-1.5814,-1.5814,-1.5814,-1.5814,-1.5948,-1.6319,-1.6523,-1.6763,-1.7171,-1.8025,-1.8592,-1.8823,-1.9123,-1.9275,-1.9254,-1.9978,-2.0182,-1.9901,-2.0283,-2.051,-2.0232,-2.0258,-2.0308,-2.0131,-1.9785,-1.9384,-1.8839,-1.8446,-1.8205,-1.8458,-1.8037,-1.7881,-1.8301,-1.8645,-1.9383,-2.0237,-2.081,-2.1334,-2.1506,-2.1348,-2.1232,-2.1488,-2.0284,-1.9656,-2.0487,-1.9923,-1.9997,-2.0877,-2.1064,-2.1104,-2.1337,-2.1449,-2.1342,-2.1038,-2.0904,-2.0776,-1.9119,-1.9684,-1.9266,-1.9023,-1.904,-1.9172,-1.9734,-2.0547,-2.0658,-2.1224,-2.1927,-2.1431,-2.1027,-2.063,-2.0454,-1.9912,-1.908,-1.9008,-1.8504,-1.7705,-1.6989,-1.694,-1.7412,-1.6942,-1.6943,-1.7399,-1.7568,-1.7592,-1.7543,-1.752,-1.7459,-1.7495,-1.7555,-1.7495,-1.7423,-1.7099,-1.6979,-1.7375,-1.758,-1.7712,-1.8037,-1.7664,-1.7207,-1.6739,-1.6114,-1.5814,-1.5814,-1.5814,-1.5814,-1.5814,-1.5792,-1.5814,-1.5814,-1.5804,-1.5828,-1.5816,-1.585,-1.585,-1.585,-1.5862,-1.5838,-1.5814,-1.5814,-1.5826,-1.59,-1.6295,-1.6571,-1.6667,-1.7195,-1.7688,-1.8205,-1.8402,-1.8814,-1.9568,-1.9747,-1.9811,-1.9798,-2.0131,-2.0055,-1.9474,-1.9578,-1.9669,-1.9225,-1.904,-1.8861,-1.8508,-1.8241,-1.8097,-1.782,-1.7929,-1.7736,-1.7411,-1.8016,-1.9165,-1.9736,-2.0269,-2.0584,-2.0809,-2.083,-2.0578,-1.995,-1.9441,-1.9291,-1.913,-1.8897,-1.9074,-1.9692,-2.0008,-2.0143,-2.0161,-1.9844,-1.9663,-1.9965,-1.9383,-1.9275,-1.8947,-1.929,-1.9083,-1.9013,-1.904,-1.9382,-1.9734,-2.008,-2.0082,-2.0303,-2.0439,-1.9674,-1.9154,-1.8968,-1.8551,-1.8355,-1.8296,-1.8061,-1.7503,-1.6792,-1.6283,-1.6175,-1.6378,-1.6511,-1.6691,-1.6895,-1.7231,-1.7387,-1.7387,-1.7387,-1.7387,-1.7387,-1.7387,-1.7387,-1.7351,-1.7231,-1.7219,-1.7424,-1.7724,-1.7975,-1.803,-1.7874,-1.7633,-1.7333,-1.6335,-1.5814,-1.5814,-1.576,-1.576,-1.5792,-1.576,-1.5748,-1.5816,-1.6139,-1.6319,-1.6343,-1.6631,-1.6679,-1.6356,-1.6307,-1.614,-1.5828,-1.5814,-1.5814,-1.5838,-1.5984,-1.6212,-1.6559,-1.6739,-1.7231,-1.7977,-1.8193,-1.8487,-1.9129,-1.9303,-1.9291,-1.9317,-1.9448,-1.9396,-1.9119,-1.9198,-1.9198,-1.9066,-1.9013,-1.8941,-1.871,-1.8422,-1.8109,-1.7941,-1.7845,-1.7483,-1.7279,-1.7592,-1.816,-1.8701,-1.9559,-2.0131,-2.0359,-2.0421,-2.0357,-1.9956,-1.8702,-1.8255,-1.8709,-1.8403,-1.8178,-1.8764,-1.9123,-1.9243,-1.9171,-1.8809,-1.8581,-1.9025,-1.8458,-1.8372,-1.8866,-1.8963,-1.8833,-1.8843,-1.9016,-1.9211,-1.9394,-1.9522,-1.9565,-1.9536,-1.9376,-1.8511,-1.8026,-1.7791,-1.7222,-1.7063,-1.7335,-1.7172,-1.6807,-1.6265,-1.5947,-1.5814,-1.5874,-1.6175,-1.6343,-1.6391,-1.6703,-1.6883,-1.6883,-1.6883,-1.6883,-1.6871,-1.6907,-1.6871,-1.6883,-1.6871,-1.6931,-1.7159,-1.7459,-1.7624,-1.7704,-1.7547,-1.7426,-1.7187,-1.6266,-1.5765,-1.5919,-1.5732,-1.5659,-1.5681,-1.5659,-1.5708,-1.5932,-1.6443,-1.6741,-1.6765,-1.6932,-1.6931,-1.6584,-1.6416,-1.6187,-1.584,-1.5814,-1.5814,-1.5814,-1.5814,-1.6006,-1.6259,-1.6367,-1.6787,-1.764,-1.7941,-1.8204,-1.8778,-1.8919,-1.8907,-1.8881,-1.8893,-1.8881,-1.8881,-1.8881,-1.8881,-1.8907,-1.8919,-1.8823,-1.8704,-1.8264,-1.794,-1.7781,-1.7459,-1.7099,-1.7099,-1.7279,-1.7471,-1.7762,-1.8363,-1.9218,-1.9559,-1.9699,-1.9788,-1.9396,-1.8105,-1.7581,-1.8056,-1.8069,-1.7739,-1.7766,-1.8167,-1.8257,-1.8244,-1.7805,-1.7367,-1.7541,-1.7561,-1.7458,-1.8866,-1.8891,-1.8434,-1.8554,-1.8857,-1.8509,-1.8546,-1.8958,-1.8907,-1.8807,-1.8672,-1.8222,-1.7615,-1.7298,-1.6722,-1.6287,-1.6118,-1.6371,-1.6302,-1.5881,-1.5814,-1.5814,-1.5826,-1.5912,-1.5972,-1.597,-1.5874,-1.5874,-1.5958,-1.5982,-1.5948,-1.5864,-1.5958,-1.6032,-1.5888,-1.6008,-1.6152,-1.6584,-1.6705,-1.68,-1.7073,-1.6785,-1.6512,-1.6336,-1.5776,-1.5648,-1.6068,-1.5682,-1.5424,-1.5424,-1.5436,-1.5704,-1.6138,-1.6714,-1.702,-1.6986,-1.6681,-1.6492,-1.642,-1.612,-1.5948,-1.5792,-1.5792,-1.5828,-1.5888,-1.5876,-1.5948,-1.6141,-1.6141,-1.644,-1.7339,-1.7603,-1.7937,-1.861,-1.8825,-1.8759,-1.8667,-1.8602,-1.8587,-1.8602,-1.864,-1.8679,-1.8771,-1.8727,-1.8536,-1.817,-1.7744,-1.7374,-1.7204,-1.6979,-1.6657,-1.655,-1.6836,-1.7147,-1.7075,-1.7087,-1.7966,-1.8656,-1.8783,-1.885,-1.8326,-1.7376,-1.6979,-1.7268,-1.7096,-1.6796,-1.6917,-1.7232,-1.6996,-1.6889,-1.6431,-1.6335,-1.6477,-1.6575,-1.6351,-1.8663,-1.8494,-1.8674,-1.8614,-1.8446,-1.8265,-1.8295,-1.8349,-1.7702,-1.7333,-1.7239,-1.6767,-1.6456,-1.6298,-1.6083,-1.5935,-1.5814,-1.5969,-1.5947,-1.5814,-1.5814,-1.5814,-1.5852,-1.6175,-1.6343,-1.6295,-1.596,-1.5814,-1.5826,-1.5826,-1.5814,-1.5814,-1.5814,-1.5974,-1.6145,-1.5941,-1.6086,-1.6836,-1.6858,-1.6835,-1.6902,-1.6976,-1.6673,-1.5925,-1.5419,-1.5131,-1.495,-1.4872,-1.472,-1.4513,-1.4644,-1.5169,-1.6077,-1.7041,-1.7537,-1.7563,-1.747,-1.7213,-1.6931,-1.6491,-1.6037,-1.5821,-1.576,-1.5939,-1.6191,-1.6285,-1.6585,-1.7122,-1.7312,-1.7585,-1.8069,-1.8246,-1.8365,-1.8762,-1.8798,-1.8744,-1.8614,-1.8587,-1.8587,-1.8587,-1.8587,-1.8614,-1.857,-1.8416,-1.8123,-1.7964,-1.7539,-1.7122,-1.6848,-1.692,-1.6751,-1.6249,-1.6607,-1.6811,-1.6679,-1.6656,-1.7111,-1.7735,-1.7964,-1.8048,-1.7495,-1.7111,-1.6715,-1.6403,-1.6223,-1.6172,-1.6268,-1.6284,-1.6171,-1.6088,-1.6054,-1.5953,-1.586,-1.5814,-1.5814,-1.8687,-1.8518,-1.865,-1.8506,-1.8181,-1.8013,-1.7784,-1.7519,-1.6895,-1.6487,-1.6235,-1.5754,-1.5624,-1.572,-1.56,-1.5624,-1.5802,-1.5814,-1.5814,-1.5814,-1.5814,-1.5814,-1.5885,-1.6346,-1.6724,-1.6774,-1.6348,-1.6106,-1.609,-1.5888,-1.578,-1.576,-1.576,-1.5846,-1.6041,-1.5804,-1.5983,-1.6421,-1.6194,-1.6005,-1.5925,-1.5938,-1.5647,-1.4987,-1.4629,-1.4274,-1.3867,-1.3854,-1.3849,-1.3942,-1.4338,-1.5046,-1.5914,-1.6731,-1.7171,-1.7059,-1.7025,-1.6892,-1.6542,-1.6162,-1.597,-1.5674,-1.5659,-1.5873,-1.622,-1.6408,-1.6836,-1.7474,-1.7568,-1.7802,-1.8151,-1.8281,-1.8413,-1.8637,-1.8637,-1.8583,-1.8464,-1.8398,-1.8398,-1.8383,-1.8398,-1.8355,-1.8163,-1.8054,-1.7727,-1.7615,-1.7252,-1.7002,-1.6764,-1.6752,-1.6334,-1.6069,-1.6224,-1.6297,-1.6273,-1.6286,-1.637,-1.6764,-1.7147,-1.7207,-1.6991,-1.6835,-1.6559,-1.6235,-1.6006,-1.597,-1.6034,-1.5987,-1.5903,-1.5814,-1.577,-1.5792,-1.5792,-1.5814,-1.577,-1.8821,-1.8843,-1.8374,-1.8109,-1.7977,-1.7568,-1.7111,-1.6703,-1.6547,-1.6236,-1.5802,-1.5396,-1.5384,-1.5612,-1.5384,-1.5444,-1.5742,-1.5814,-1.5814,-1.5814,-1.5826,-1.5828,-1.5993,-1.6384,-1.6825,-1.7171,-1.68,-1.6558,-1.6475,-1.6093,-1.5794,-1.5727,-1.5742,-1.565,-1.5573,-1.5468,-1.5402,-1.5394,-1.4913,-1.4654,-1.4533,-1.4124,-1.3751,-1.3668,-1.3599,-1.3355,-1.2939,-1.2925,-1.3139,-1.3614,-1.4435,-1.5124,-1.5577,-1.6028,-1.6242,-1.5932,-1.5836,-1.5694,-1.5408,-1.5417,-1.5426,-1.5379,-1.5492,-1.5715,-1.6209,-1.6421,-1.6679,-1.7265,-1.7312,-1.743,-1.7803,-1.7908,-1.8028,-1.8248,-1.8329,-1.8313,-1.8139,-1.8111,-1.8166,-1.8139,-1.8088,-1.8016,-1.7784,-1.7751,-1.744,-1.7126,-1.6764,-1.6551,-1.6527,-1.6291,-1.6028,-1.5853,-1.5669,-1.5498,-1.5349,-1.5372,-1.5441,-1.5579,-1.5997,-1.6197,-1.6338,-1.629,-1.6322,-1.5999,-1.573,-1.5727,-1.577,-1.5726,-1.5681,-1.5603,-1.5625,-1.5714,-1.5625,-1.5468,-1.539,-1.8156,-1.782,-1.7676,-1.7363,-1.7039,-1.6847,-1.6739,-1.6524,-1.6187,-1.5948,-1.5756,-1.566,-1.5612,-1.5756,-1.5636,-1.5672,-1.5768,-1.5814,-1.5814,-1.5814,-1.5814,-1.6032,-1.6339,-1.6514,-1.6871,-1.7243,-1.6858,-1.6595,-1.6572,-1.6299,-1.6025,-1.5729,-1.5878,-1.5764,-1.5404,-1.4971,-1.4743,-1.4706,-1.4555,-1.4153,-1.381,-1.3922,-1.3665,-1.2976,-1.2973,-1.2755,-1.2373,-1.2579,-1.2913,-1.3399,-1.4331,-1.5026,-1.5423,-1.5926,-1.602,-1.5642,-1.5384,-1.5092,-1.481,-1.481,-1.4788,-1.4812,-1.5336,-1.5822,-1.6569,-1.6747,-1.718,-1.7772,-1.804,-1.7946,-1.7978,-1.7936,-1.7865,-1.7622,-1.7815,-1.8084,-1.8084,-1.8084,-1.8084,-1.8084,-1.8084,-1.8008,-1.7748,-1.7355,-1.6921,-1.6658,-1.6184,-1.5706,-1.5742,-1.5521,-1.5165,-1.4948,-1.4765,-1.4569,-1.4419,-1.4419,-1.4418,-1.4428,-1.4712,-1.5048,-1.5279,-1.5498,-1.561,-1.5616,-1.5324,-1.5221,-1.5424,-1.5525,-1.5446,-1.5255,-1.5062,-1.4949,-1.4789,-1.4651,-1.4674,-1.7905,-1.7399,-1.7387,-1.7087,-1.6631,-1.6607,-1.6487,-1.6247,-1.5948,-1.5814,-1.5756,-1.5552,-1.5588,-1.5768,-1.5564,-1.5622,-1.579,-1.5814,-1.5792,-1.5703,-1.5457,-1.5762,-1.6322,-1.6532,-1.679,-1.7147,-1.674,-1.6501,-1.6396,-1.6172,-1.5842,-1.5609,-1.5728,-1.5499,-1.4937,-1.4628,-1.4305,-1.4078,-1.3869,-1.3491,-1.3232,-1.3243,-1.3162,-1.2713,-1.2698,-1.2632,-1.2634,-1.2836,-1.3084,-1.3423,-1.4006,-1.462,-1.4982,-1.5332,-1.5348,-1.4962,-1.4829,-1.4686,-1.4471,-1.4676,-1.5009,-1.5121,-1.5586,-1.6105,-1.655,-1.6755,-1.7103,-1.7335,-1.749,-1.7457,-1.7363,-1.7335,-1.7185,-1.6922,-1.714,-1.7446,-1.7667,-1.7694,-1.7854,-1.8002,-1.8073,-1.7797,-1.7356,-1.684,-1.6312,-1.5714,-1.5253,-1.5016,-1.4879,-1.4571,-1.4376,-1.4236,-1.4143,-1.4037,-1.3944,-1.3944,-1.386,-1.38,-1.38,-1.4095,-1.4374,-1.4674,-1.4869,-1.4949,-1.4811,-1.48,-1.4994,-1.5085,-1.4846,-1.4628,-1.4374,-1.4281,-1.4235,-1.4095,-1.4095,-1.7724,-1.7267,-1.7255,-1.6955,-1.6523,-1.6511,-1.6187,-1.5768,-1.5672,-1.566,-1.5588,-1.5183,-1.5351,-1.5734,-1.5435,-1.5363,-1.5792,-1.577,-1.5659,-1.5401,-1.5051,-1.5119,-1.5777,-1.614,-1.6336,-1.6571,-1.6348,-1.6161,-1.5916,-1.5568,-1.5302,-1.5108,-1.5143,-1.4879,-1.4384,-1.4199,-1.3965,-1.3505,-1.3055,-1.2895,-1.278,-1.2635,-1.261,-1.2879,-1.2836,-1.2964,-1.3167,-1.3332,-1.3378,-1.336,-1.3736,-1.4197,-1.4508,-1.4515,-1.4354,-1.4174,-1.4307,-1.4337,-1.4153,-1.4748,-1.5369,-1.5356,-1.5861,-1.6434,-1.6365,-1.6357,-1.6402,-1.6543,-1.633,-1.6482,-1.6482,-1.6386,-1.634,-1.6255,-1.6226,-1.6472,-1.6866,-1.7062,-1.7324,-1.7804,-1.7859,-1.7151,-1.6521,-1.6081,-1.5914,-1.4999,-1.4579,-1.4393,-1.4212,-1.3944,-1.3815,-1.3734,-1.3674,-1.3637,-1.3566,-1.3518,-1.3409,-1.33,-1.3228,-1.3362,-1.36,-1.3871,-1.4101,-1.4193,-1.4215,-1.4352,-1.4548,-1.4481,-1.4197,-1.4048,-1.386,-1.3954,-1.4025,-1.3823,-1.3752,-1.6717,-1.6586,-1.6285,-1.6068,-1.5982,-1.596,-1.566,-1.5205,-1.5181,-1.5169,-1.5135,-1.4964,-1.5226,-1.568,-1.5548,-1.562,-1.5659,-1.5614,-1.5468,-1.4869,-1.4387,-1.4186,-1.461,-1.5165,-1.5463,-1.5415,-1.5588,-1.5437,-1.5088,-1.4854,-1.4534,-1.4242,-1.4458,-1.4326,-1.3818,-1.3423,-1.3102,-1.2895,-1.2491,-1.2473,-1.2681,-1.2635,-1.2726,-1.3102,-1.3176,-1.3231,-1.336,-1.3617,-1.3773,-1.3883,-1.4121,-1.4366,-1.4458,-1.4485,-1.4332,-1.4076,-1.3986,-1.3914,-1.3688,-1.4145,-1.4414,-1.4616,-1.5143,-1.5379,-1.576,-1.5827,-1.597,-1.6169,-1.6301,-1.6159,-1.6169,-1.6244,-1.5997,-1.569,-1.5604,-1.5633,-1.5835,-1.6226,-1.6567,-1.6645,-1.6522,-1.6093,-1.5732,-1.518,-1.4818,-1.4265,-1.4,-1.3818,-1.3563,-1.329,-1.3208,-1.315,-1.3016,-1.2953,-1.2929,-1.2905,-1.2856,-1.2817,-1.2779,-1.273,-1.2963,-1.3196,-1.3429,-1.3614,-1.3738,-1.3886,-1.4045,-1.3748,-1.3433,-1.3396,-1.3372,-1.3372,-1.3372,-1.331,-1.3392,-1.6409,-1.5935,-1.5482,-1.5477,-1.5652,-1.5212,-1.4995,-1.4953,-1.4746,-1.4629,-1.4651,-1.4776,-1.5031,-1.5249,-1.5474,-1.5479,-1.5175,-1.4903,-1.4617,-1.419,-1.3721,-1.3413,-1.3413,-1.3873,-1.415,-1.4187,-1.4447,-1.4398,-1.4211,-1.4098,-1.3975,-1.3739,-1.3917,-1.37,-1.3306,-1.2919,-1.2725,-1.2491,-1.224,-1.2294,-1.2625,-1.2698,-1.29,-1.3268,-1.3461,-1.3571,-1.3607,-1.3754,-1.3983,-1.4176,-1.4387,-1.4485,-1.4485,-1.4485,-1.4378,-1.424,-1.4176,-1.4102,-1.4015,-1.4317,-1.4718,-1.4614,-1.5177,-1.5363,-1.5517,-1.5532,-1.5452,-1.5467,-1.5439,-1.5439,-1.5468,-1.5439,-1.5245,-1.5108,-1.499,-1.499,-1.5079,-1.5526,-1.6036,-1.6115,-1.604,-1.5543,-1.5014,-1.4476,-1.3826,-1.3338,-1.335,-1.316,-1.2817,-1.2598,-1.2574,-1.2501,-1.2329,-1.224,-1.2215,-1.224,-1.2314,-1.2314,-1.2338,-1.2338,-1.2437,-1.2641,-1.2821,-1.3071,-1.3308,-1.3298,-1.3343,-1.3008,-1.2852,-1.2876,-1.2852,-1.274,-1.2764,-1.291,-1.3007,-1.6244,-1.5445,-1.4998,-1.5146,-1.5481,-1.4663,-1.4491,-1.4699,-1.4413,-1.4221,-1.42,-1.4618,-1.4841,-1.4928,-1.5292,-1.5153,-1.464,-1.4003,-1.3721,-1.3579,-1.303,-1.2798,-1.2774,-1.288,-1.3035,-1.3358,-1.3536,-1.3498,-1.3378,-1.3348,-1.3254,-1.3324,-1.3324,-1.3089,-1.2759,-1.2677,-1.2491,-1.219,-1.2261,-1.2441,-1.2772,-1.2845,-1.3056,-1.3415,-1.3791,-1.3965,-1.3983,-1.4038,-1.4157,-1.4458,-1.4485,-1.4485,-1.4485,-1.4485,-1.4485,-1.4467,-1.446,-1.4414,-1.4427,-1.4808,-1.5109,-1.5264,-1.5632,-1.5689,-1.5352,-1.5196,-1.504,-1.4775,-1.4654,-1.4654,-1.4515,-1.4654,-1.4625,-1.4545,-1.4515,-1.4485,-1.4604,-1.4961,-1.5439,-1.5717,-1.5359,-1.4834,-1.4399,-1.3899,-1.3128,-1.2535,-1.2582,-1.2529,-1.2206,-1.1997,-1.2025,-1.2266,-1.2211,-1.2077,-1.2052,-1.1495,-1.157,-1.1671,-1.1771,-1.1753,-1.1769,-1.1728,-1.1924,-1.2657,-1.2903,-1.2868,-1.2802,-1.265,-1.2546,-1.245,-1.2372,-1.2298,-1.2372,-1.252,-1.2544,-1.5486,-1.5345,-1.5352,-1.5443,-1.5429,-1.4841,-1.434,-1.4102,-1.3984,-1.3949,-1.3959,-1.4355,-1.4734,-1.5024,-1.5231,-1.5017,-1.4281,-1.3566,-1.3078,-1.2943,-1.2491,-1.2289,-1.228,-1.2304,-1.2329,-1.2427,-1.2711,-1.2783,-1.2501,-1.2338,-1.2535,-1.2412,-1.2437,-1.2329,-1.2304,-1.2215,-1.224,-1.2181,-1.2376,-1.2735,-1.2994,-1.3213,-1.3323,-1.3708,-1.4084,-1.4236,-1.4282,-1.4348,-1.4442,-1.4506,-1.4485,-1.4455,-1.4426,-1.4426,-1.4455,-1.4485,-1.4485,-1.4485,-1.4545,-1.4604,-1.4654,-1.4675,-1.4843,-1.4872,-1.4714,-1.4684,-1.4654,-1.4595,-1.4485,-1.4485,-1.4485,-1.4485,-1.4485,-1.4485,-1.4426,-1.4387,-1.4417,-1.4467,-1.4577,-1.4698,-1.4391,-1.411,-1.3717,-1.328,-1.2604,-1.2085,-1.1979,-1.1998,-1.187,-1.1688,-1.161,-1.1929,-1.2296,-1.2148,-1.1992,-1.1224,-1.0818,-1.0929,-1.0997,-1.0964,-1.0922,-1.0711,-1.0997,-1.1797,-1.2277,-1.2342,-1.2287,-1.2225,-1.2109,-1.1968,-1.1918,-1.1843,-1.1884,-1.19,-1.1801,-1.543,-1.5142,-1.4732,-1.4855,-1.5102,-1.3941,-1.3618,-1.3805,-1.3351,-1.3067,-1.3185,-1.3498,-1.3817,-1.4047,-1.4332,-1.4118,-1.3542,-1.2895,-1.2516,-1.2353,-1.2215,-1.2076,-1.2076,-1.2076,-1.2076,-1.2141,-1.2329,-1.2353,-1.2116,-1.2126,-1.2076,-1.2101,-1.2076,-1.2076,-1.2076,-1.2101,-1.2076,-1.2168,-1.2461,-1.2838,-1.3168,-1.3505,-1.3779,-1.366,-1.4052,-1.4191,-1.377,-1.3918,-1.3782,-1.3511,-1.345,-1.367,-1.3881,-1.401,-1.4139,-1.4357,-1.4485,-1.4485,-1.4485,-1.4485,-1.4515,-1.4515,-1.4485,-1.4485,-1.4485,-1.4515,-1.4455,-1.4485,-1.4485,-1.4485,-1.4485,-1.4455,-1.4327,-1.404,-1.3971,-1.3821,-1.3601,-1.3511,-1.3571,-1.3606,-1.3479,-1.3303,-1.3136,-1.2626,-1.2017,-1.1659,-1.1442,-1.1426,-1.1483,-1.1388,-1.1286,-1.1587,-1.1937,-1.1766,-1.1622,-1.1056,-1.0427,-1.0433,-1.0371,-1.0358,-1.0316,-1.0259,-1.0506,-1.1056,-1.1387,-1.1633,-1.1678,-1.1567,-1.1506,-1.1417,-1.1191,-1.1091,-1.1208,-1.1233,-1.1107,-1.5194,-1.4744,-1.3936,-1.4137,-1.4586,-1.3083,-1.2848,-1.34,-1.2865,-1.2518,-1.2389,-1.2889,-1.314,-1.3109,-1.3263,-1.3218,-1.2764,-1.2329,-1.215,-1.215,-1.2126,-1.2076,-1.2076,-1.2076,-1.2076,-1.2101,-1.2126,-1.2076,-1.2101,-1.2076,-1.2076,-1.2076,-1.2076,-1.1968,-1.1859,-1.176,-1.1868,-1.196,-1.2221,-1.2546,-1.2995,-1.3597,-1.3787,-1.3175,-1.3834,-1.3809,-1.3279,-1.3215,-1.3083,-1.2787,-1.2665,-1.2795,-1.3191,-1.3321,-1.3541,-1.401,-1.4327,-1.4485,-1.4485,-1.4485,-1.4485,-1.4485,-1.4485,-1.4485,-1.4426,-1.4327,-1.4219,-1.4288,-1.407,-1.398,-1.389,-1.404,-1.3791,-1.3472,-1.3252,-1.3161,-1.2856,-1.2734,-1.2795,-1.2789,-1.2665,-1.2555,-1.2443,-1.2368,-1.1865,-1.1423,-1.1197,-1.114,-1.1156,-1.1064,-1.1078,-1.1307,-1.145,-1.1293,-1.112,-1.0925,-1.0439,-1.0238,-1.0114,-0.9979,-0.9982,-0.995,-1.0195,-1.0286,-1.0555,-1.0775,-1.0845,-1.0954,-1.0962,-1.0804,-1.0448,-1.0423,-1.0728,-1.055,-1.0277,-1.3828,-1.3752,-1.3643,-1.3687,-1.3705,-1.3016,-1.2762,-1.2887,-1.2785,-1.2762,-1.2652,-1.3209,-1.3392,-1.3304,-1.298,-1.2861,-1.2652,-1.2329,-1.2101,-1.2076,-1.2076,-1.2076,-1.2076,-1.2076,-1.2076,-1.2076,-1.2076,-1.2076,-1.2051,-1.2051,-1.2076,-1.2076,-1.1952,-1.1819,-1.1283,-1.1183,-1.1057,-1.1048,-1.1401,-1.1875,-1.2395,-1.3113,-1.3146,-1.3081,-1.3191,-1.3295,-1.2962,-1.2763,-1.2473,-1.242,-1.242,-1.2512,-1.2604,-1.2634,-1.2634,-1.3078,-1.37,-1.4485,-1.4357,-1.4357,-1.4297,-1.4267,-1.4357,-1.4455,-1.4139,-1.3791,-1.3541,-1.361,-1.3169,-1.2948,-1.2978,-1.2856,-1.2696,-1.2665,-1.2604,-1.2543,-1.2358,-1.1996,-1.2058,-1.202,-1.1943,-1.1918,-1.1875,-1.1854,-1.1728,-1.1324,-1.0988,-1.0923,-1.0843,-1.0828,-1.0865,-1.11,-1.1123,-1.099,-1.0916,-1.0674,-1.0458,-1.013,-0.9924,-0.9721,-0.9703,-0.9654,-0.9274,-0.9394,-0.9732,-1.0051,-1.0182,-1.0311,-1.0387,-1.0218,-0.9865,-1.0046,-1.0372,-1.002,-0.9569,-1.2905,-1.3467,-1.3242,-1.3324,-1.3487,-1.2768,-1.2556,-1.2709,-1.2517,-1.2404,-1.243,-1.2624,-1.2754,-1.272,-1.2476,-1.2403,-1.2353,-1.22,-1.2101,-1.2076,-1.2076,-1.2076,-1.2076,-1.2076,-1.2076,-1.1943,-1.1977,-1.1927,-1.1902,-1.1893,-1.1943,-1.1828,-1.1544,-1.1234,-1.0762,-1.0568,-1.0524,-1.0704,-1.1185,-1.168,-1.2049,-1.2414,-1.2629,-1.2466,-1.2633,-1.2511,-1.222,-1.2066,-1.1725,-1.1569,-1.1421,-1.16,-1.1818,-1.1965,-1.2089,-1.2565,-1.2978,-1.3321,-1.3381,-1.37,-1.3731,-1.3571,-1.3571,-1.3571,-1.3199,-1.2887,-1.2734,-1.2803,-1.2573,-1.242,-1.242,-1.2512,-1.2243,-1.2089,-1.1934,-1.1717,-1.1632,-1.1445,-1.1264,-1.1233,-1.1219,-1.1307,-1.1335,-1.1275,-1.1231,-1.103,-1.08,-1.0742,-1.0711,-1.0663,-1.0755,-1.0913,-1.0838,-1.0711,-1.0708,-1.0602,-1.0467,-1.0189,-0.9871,-0.9698,-0.9554,-0.9342,-0.9118,-0.9024,-0.937,-0.9582,-0.9635,-0.971,-0.984,-0.9614,-0.9283,-0.951,-0.9718,-0.9491,-0.9133,-1.2166,-1.2939,-1.2686,-1.2832,-1.315,-1.2396,-1.2292,-1.2536,-1.2249,-1.2105,-1.2076,-1.2126,-1.2126,-1.2101,-1.2126,-1.215,-1.2101,-1.2076,-1.2076,-1.2076,-1.2076,-1.2076,-1.1968,-1.1943,-1.171,-1.1619,-1.1309,-1.1234,-1.1209,-1.1259,-1.125,-1.141,-1.0897,-1.0515,-1.0283,-1.0072,-0.9972,-1.0199,-1.0753,-1.1146,-1.1415,-1.1644,-1.1813,-1.1852,-1.1851,-1.1694,-1.1272,-1.1083,-1.0832,-1.0649,-1.0618,-1.0863,-1.1146,-1.1264,-1.1452,-1.1779,-1.2027,-1.1996,-1.2235,-1.2543,-1.2795,-1.2757,-1.2634,-1.2757,-1.2258,-1.1919,-1.1795,-1.1958,-1.1748,-1.1779,-1.1934,-1.1903,-1.1694,-1.1421,-1.1303,-1.0958,-1.0713,-1.0737,-1.08,-1.0895,-1.0863,-1.0776,-1.0777,-1.0679,-1.0654,-1.0636,-1.0586,-1.0586,-1.0579,-1.0598,-1.064,-1.0795,-1.0718,-1.0622,-1.0593,-1.053,-1.0399,-1.0241,-0.9953,-0.9816,-0.9737,-0.9561,-0.9385,-0.9317,-0.9304,-0.9254,-0.9388,-0.9343,-0.9283,-0.9159,-0.9035,-0.8903,-0.891,-0.8785,-0.8804,-1.1628,-1.1819,-1.1943,-1.2092,-1.2274,-1.2123,-1.2113,-1.219,-1.2129,-1.2095,-1.2092,-1.2076,-1.2076,-1.2076,-1.2076,-1.2076,-1.2076,-1.2076,-1.2076,-1.2076,-1.2076,-1.1993,-1.1785,-1.1417,-1.1057,-1.0812,-1.0584,-1.0277,-1.002,-1.0156,-1.0413,-1.0694,-1.02,-0.9677,-0.9446,-0.9443,-0.948,-0.9671,-1.008,-1.0369,-1.0557,-1.074,-1.0887,-1.1046,-1.1001,-1.0863,-1.0807,-1.0491,-1.0269,-1.011,-1.0238,-1.0333,-1.0555,-1.0649,-1.0832,-1.0926,-1.0958,-1.0888,-1.1007,-1.1748,-1.2235,-1.2266,-1.2112,-1.1896,-1.1555,-1.1267,-1.1142,-1.1055,-1.0881,-1.0706,-1.0674,-1.0611,-1.0863,-1.0863,-1.0769,-1.0548,-1.0326,-1.0263,-1.0326,-1.0523,-1.0428,-1.0136,-1.0072,-0.997,-1.046,-1.0491,-1.0586,-1.0586,-1.0586,-1.0579,-1.0579,-1.0636,-1.0636,-1.0598,-1.0598,-1.0533,-1.0492,-1.0392,-1.0154,-1.0084,-1.0076,-0.9885,-0.9624,-0.9613,-0.9573,-0.9344,-0.9122,-0.9098,-0.9025,-0.8898,-0.8778,-0.8778,-0.8818,-0.8851,-0.8825,-1.1444,-1.1569,-1.1653,-1.1828,-1.2076,-1.2026,-1.2026,-1.2076,-1.2076,-1.2076,-1.2076,-1.2076,-1.2076,-1.2076,-1.2076,-1.2076,-1.2076,-1.2076,-1.2076,-1.2076,-1.2051,-1.181,-1.1443,-1.1049,-1.0754,-1.0251,-0.9943,-0.9814,-0.971,-0.938,-0.9295,-0.9425,-0.9366,-0.919,-0.8978,-0.8916,-0.902,-0.916,-0.9535,-0.9899,-1.0107,-1.0051,-1.0219,-1.064,-1.0291,-1.0212,-1.018,-1.0085,-1.0021,-1.0021,-1.0085,-1.0117,-1.0149,-1.0238,-1.0269,-1.0276,-1.0276,-1.0212,-1.0269,-1.1045,-1.1562,-1.1274,-1.0968,-1.0667,-1.0661,-1.0218,-1.0193,-1.0142,-1.0174,-1.0085,-1.0301,-1.0396,-1.0466,-1.0434,-1.0301,-1.0072,-0.9875,-0.9748,-0.962,-0.9684,-0.9454,-0.9166,-0.9166,-0.9198,-0.9843,-1.0396,-1.0491,-1.0555,-1.046,-1.046,-1.0428,-1.0523,-1.0523,-1.046,-1.046,-1.0491,-1.0586,-1.0385,-1.0203,-1.0113,-1.001,-1.0087,-0.991,-0.9864,-0.9715,-0.9453,-0.9179,-0.8937,-0.8841,-0.8882,-0.8844,-0.8778,-0.8838,-0.8924,-0.8878,-1.1377,-1.1477,-1.1477,-1.1678,-1.2002,-1.1893,-1.1927,-1.2026,-1.2026,-1.2051,-1.2076,-1.2042,-1.2026,-1.2051,-1.2002,-1.1952,-1.1952,-1.1952,-1.1977,-1.1868,-1.1685,-1.1401,-1.0956,-1.0466,-0.9953,-0.9555,-0.9276,-0.9119,-0.8961,-0.8699,-0.862,-0.86,-0.8547,-0.8521,-0.8523,-0.8583,-0.8656,-0.89,-0.9112,-0.9573,-0.981,-0.9657,-0.9659,-1.0084,-0.9888,-0.9798,-0.9798,-0.9798,-0.983,-0.9862,-0.9894,-0.9926,-0.9951,-0.9983,-1.0021,-1.0021,-0.9989,-0.9983,-1.0142,-1.0396,-1.0699,-1.0408,-1.0136,-0.9766,-0.9548,-0.9478,-0.9702,-0.9772,-0.9804,-0.99,-1.0149,-1.018,-1.0079,-1.0009,-0.9786,-0.9556,-0.923,-0.9037,-0.8877,-0.878,-0.8619,-0.8624,-0.8533,-0.863,-0.8823,-0.9306,-0.932,-0.9518,-0.9805,-0.9907,-1.0104,-1.0269,-1.0466,-1.0364,-1.0263,-1.0364,-1.0364,-0.9665,-0.9548,-0.9699,-0.97,-0.9792,-0.9667,-0.9309,-0.9211,-0.9326,-0.9022,-0.8463,-0.8687,-0.9047,-0.8995,-0.8967,-0.8978,-0.9058,-0.8951,-1.1368,-1.1477,-1.1377,-1.1553,-1.1852,-1.1778,-1.1778,-1.1902,-1.1902,-1.1977,-1.2026,-1.1943,-1.1902,-1.1877,-1.1828,-1.1769,-1.1719,-1.1703,-1.1653,-1.1544,-1.1124,-1.0795,-1.0277,-0.9729,-0.9235,-0.8778,-0.8501,-0.8268,-0.8082,-0.8109,-0.8029,-0.8029,-0.8082,-0.808,-0.7985,-0.8193,-0.8584,-0.8999,-0.8878,-0.9138,-0.9432,-0.9334,-0.9426,-0.9591,-0.9606,-0.958,-0.9574,-0.9574,-0.9606,-0.9638,-0.9734,-0.9766,-0.9804,-0.9894,-0.9919,-0.9926,-0.9951,-0.9888,-0.9798,-0.983,-0.9696,-0.9728,-0.9638,-0.9542,-0.951,-0.951,-0.9414,-0.9414,-0.951,-0.9612,-0.9766,-0.976,-0.953,-0.9364,-0.9134,-0.8807,-0.842,-0.8037,-0.7809,-0.7729,-0.812,-0.8376,-0.8187,-0.8062,-0.797,-0.809,-0.8069,-0.8382,-0.8962,-0.925,-0.9448,-0.9582,-0.9811,-0.9779,-0.9684,-1.0168,-1.0072,-0.9288,-0.8956,-0.9163,-0.9131,-0.9015,-0.885,-0.866,-0.8699,-0.8838,-0.8393,-0.7866,-0.8272,-0.8704,-0.915,-0.9215,-0.921,-0.9012,-0.8728,-1.1175,-1.1352,-1.1326,-1.1418,-1.1619,-1.1603,-1.1653,-1.1753,-1.1769,-1.1803,-1.1828,-1.1778,-1.1778,-1.1753,-1.1678,-1.1619,-1.1569,-1.1183,-1.1108,-1.1032,-1.0515,-0.9961,-0.9521,-0.919,-0.8692,-0.8289,-0.7955,-0.7901,-0.7955,-0.7875,-0.7901,-0.7901,-0.7913,-0.8003,-0.8157,-0.8309,-0.8578,-0.8951,-0.8909,-0.8945,-0.9402,-0.9275,-0.9239,-0.9466,-0.9478,-0.9478,-0.9478,-0.9478,-0.9478,-0.9478,-0.9606,-0.9612,-0.9612,-0.9702,-0.967,-0.967,-0.967,-0.9408,-0.8952,-0.8657,-0.8694,-0.9087,-0.9382,-0.935,-0.9484,-0.9478,-0.928,-0.8952,-0.8882,-0.8818,-0.849,-0.8425,-0.8291,-0.8285,-0.8091,-0.767,-0.7284,-0.6868,-0.6564,-0.6625,-0.6861,-0.7077,-0.7065,-0.7087,-0.7056,-0.7206,-0.725,-0.7722,-0.8285,-0.8441,-0.8629,-0.8699,-0.8833,-0.8871,-0.9037,-0.9428,-0.9364,-0.8581,-0.8452,-0.8705,-0.8581,-0.8264,-0.8323,-0.8264,-0.8286,-0.8292,-0.7954,-0.774,-0.7949,-0.8336,-0.8508,-0.8563,-0.8378,-0.817,-0.7994,-1.0998,-1.1175,-1.1276,-1.1352,-1.1427,-1.1427,-1.1502,-1.1628,-1.1628,-1.1653,-1.1678,-1.1644,-1.1494,-1.1368,-1.1267,-1.1057,-1.0973,-1.0592,-1.0387,-1.031,-0.984,-0.9399,-0.9033,-0.8699,-0.8342,-0.7981,-0.7875,-0.7875,-0.7815,-0.7815,-0.7815,-0.7815,-0.7875,-0.7973,-0.8117,-0.8255,-0.8483,-0.883,-0.8872,-0.9071,-0.9348,-0.9384,-0.931,-0.9436,-0.9478,-0.9478,-0.9478,-0.9478,-0.9478,-0.9478,-0.9478,-0.9478,-0.9478,-0.9478,-0.9478,-0.9478,-0.9215,-0.8952,-0.8522,-0.7907,-0.8074,-0.8533,-0.8765,-0.8797,-0.8765,-0.863,-0.8463,-0.8231,-0.8129,-0.7934,-0.7647,-0.7517,-0.7447,-0.7479,-0.7251,-0.6863,-0.6535,-0.6119,-0.6115,-0.6067,-0.6078,-0.6124,-0.6124,-0.5978,-0.6025,-0.624,-0.6488,-0.7019,-0.7507,-0.7665,-0.7854,-0.8021,-0.8124,-0.8258,-0.8393,-0.8587,-0.8393,-0.7842,-0.7907,-0.8134,-0.7712,-0.7391,-0.7614,-0.7777,-0.7585,-0.7474,-0.7627,-0.7623,-0.7496,-0.7408,-0.7388,-0.7414,-0.7391,-0.7422,-0.7381,-1.0871,-1.093,-1.115,-1.1251,-1.1267,-1.1217,-1.1318,-1.1477,-1.1477,-1.1544,-1.1594,-1.1418,-1.1091,-1.0617,-1.0446,-1.0208,-0.9873,-0.9692,-0.964,-0.9451,-0.9093,-0.8823,-0.854,-0.8235,-0.8029,-0.7928,-0.7848,-0.7788,-0.7729,-0.7729,-0.7729,-0.7756,-0.7842,-0.791,-0.8021,-0.8249,-0.8483,-0.8746,-0.8969,-0.9185,-0.942,-0.9454,-0.9372,-0.935,-0.928,-0.9183,-0.9183,-0.9215,-0.9318,-0.9388,-0.9452,-0.9484,-0.9478,-0.9478,-0.9478,-0.928,-0.8818,-0.8458,-0.8069,-0.7419,-0.7158,-0.7354,-0.7354,-0.7358,-0.7587,-0.7782,-0.7679,-0.7549,-0.7381,-0.7321,-0.719,-0.7064,-0.6933,-0.6835,-0.6638,-0.6342,-0.6017,-0.5889,-0.5952,-0.5936,-0.5939,-0.5964,-0.5957,-0.5797,-0.5648,-0.5775,-0.6041,-0.6187,-0.6629,-0.6756,-0.7051,-0.7479,-0.7577,-0.7712,-0.7809,-0.7809,-0.7619,-0.7167,-0.726,-0.7358,-0.6905,-0.6675,-0.6905,-0.7003,-0.6646,-0.6613,-0.697,-0.6905,-0.6675,-0.6588,-0.6733,-0.6773,-0.6899,-0.7036,-0.7043,-1.0385,-1.0598,-1.0336,-1.0523,-1.0947,-1.0761,-1.0913,-1.1326,-1.1343,-1.12,-1.0753,-1.0735,-1.0429,-0.9899,-0.9847,-0.9718,-0.9484,-0.9249,-0.9093,-0.883,-0.8494,-0.8203,-0.8023,-0.7949,-0.7842,-0.7788,-0.7756,-0.7729,-0.7696,-0.767,-0.767,-0.7723,-0.7788,-0.7848,-0.8042,-0.8311,-0.8508,-0.877,-0.9005,-0.9226,-0.938,-0.9414,-0.9221,-0.8985,-0.8786,-0.8592,-0.8333,-0.8592,-0.8721,-0.8791,-0.9253,-0.9484,-0.9478,-0.9478,-0.9382,-0.8753,-0.8129,-0.7512,-0.7022,-0.6371,-0.6046,-0.6145,-0.6115,-0.6638,-0.6999,-0.7223,-0.706,-0.6863,-0.6695,-0.6601,-0.6441,-0.628,-0.6214,-0.6115,-0.6017,-0.5888,-0.5624,-0.5641,-0.5706,-0.5773,-0.577,-0.5873,-0.5846,-0.5759,-0.5614,-0.561,-0.562,-0.5737,-0.5885,-0.6108,-0.6305,-0.6798,-0.6929,-0.6994,-0.6868,-0.6839,-0.6745,-0.6581,-0.6745,-0.6839,-0.6646,-0.6519,-0.642,-0.642,-0.642,-0.642,-0.6486,-0.642,-0.642,-0.6367,-0.6468,-0.6433,-0.6402,-0.6525,-0.6514,-0.9647,-0.9803,-0.9633,-0.9806,-1.0156,-1.0028,-1.012,-1.0347,-1.0527,-1.0395,-1.0113,-1.0087,-0.9803,-0.9347,-0.9276,-0.9119,-0.8751,-0.8573,-0.8415,-0.8249,-0.8055,-0.7916,-0.7815,-0.7756,-0.7735,-0.7676,-0.7616,-0.7568,-0.7536,-0.7542,-0.7547,-0.7547,-0.7687,-0.7778,-0.7893,-0.7983,-0.8315,-0.8716,-0.9094,-0.9304,-0.9316,-0.9183,-0.8759,-0.8458,-0.8226,-0.7707,-0.7451,-0.7902,-0.7999,-0.8166,-0.8727,-0.9081,-0.9081,-0.9049,-0.8727,-0.8096,-0.7414,-0.6924,-0.6498,-0.5885,-0.5524,-0.5395,-0.5395,-0.5818,-0.6181,-0.6379,-0.6243,-0.6079,-0.6009,-0.5881,-0.562,-0.5428,-0.5428,-0.5428,-0.5428,-0.5428,-0.5428,-0.5428,-0.549,-0.5539,-0.5658,-0.5797,-0.5779,-0.5668,-0.5614,-0.5583,-0.5518,-0.5529,-0.569,-0.5855,-0.5951,-0.6214,-0.6247,-0.6247,-0.6148,-0.6251,-0.635,-0.642,-0.6486,-0.6519,-0.642,-0.6387,-0.6387,-0.6387,-0.642,-0.642,-0.642,-0.642,-0.6412,-0.6363,-0.6327,-0.6309,-0.6216,-0.6054,-0.5901,-0.8798,-0.883,-0.9079,-0.9133,-0.908,-0.9084,-0.8976,-0.8748,-0.9197,-0.9415,-0.9426,-0.9503,-0.9171,-0.8699,-0.862,-0.8329,-0.8096,-0.7943,-0.7916,-0.7691,-0.7815,-0.7735,-0.7649,-0.767,-0.7595,-0.7515,-0.7354,-0.7187,-0.7198,-0.7171,-0.7144,-0.7257,-0.7333,-0.7389,-0.7392,-0.729,-0.7566,-0.8142,-0.86,-0.8892,-0.8973,-0.8694,-0.8204,-0.8032,-0.7572,-0.7051,-0.712,-0.7223,-0.7284,-0.7512,-0.7869,-0.8291,-0.8355,-0.8393,-0.7967,-0.7479,-0.6859,-0.6465,-0.6141,-0.5657,-0.5491,-0.5395,-0.5395,-0.5524,-0.5723,-0.5822,-0.5719,-0.5686,-0.5653,-0.5653,-0.5458,-0.5395,-0.5395,-0.5395,-0.5395,-0.5395,-0.5395,-0.5428,-0.5449,-0.5521,-0.5549,-0.5676,-0.569,-0.5607,-0.5532,-0.5542,-0.5508,-0.5446,-0.5495,-0.566,-0.5727,-0.5789,-0.5851,-0.5918,-0.598,-0.6083,-0.6218,-0.6317,-0.6321,-0.6354,-0.6317,-0.6354,-0.6387,-0.6387,-0.6354,-0.6387,-0.642,-0.6387,-0.6387,-0.6342,-0.6302,-0.629,-0.6112,-0.5874,-0.5676,-0.8634,-0.8527,-0.8778,-0.8577,-0.8111,-0.8235,-0.8107,-0.7796,-0.7767,-0.8044,-0.835,-0.8541,-0.8421,-0.7963,-0.7937,-0.7723,-0.7649,-0.7622,-0.7568,-0.7568,-0.7601,-0.758,-0.7473,-0.7521,-0.7467,-0.7219,-0.6972,-0.6669,-0.6534,-0.6561,-0.6615,-0.6637,-0.6729,-0.6748,-0.6563,-0.6425,-0.6775,-0.7379,-0.7521,-0.7962,-0.8236,-0.8166,-0.7869,-0.7051,-0.6264,-0.6038,-0.6038,-0.6104,-0.6235,-0.6498,-0.6957,-0.7279,-0.7474,-0.7577,-0.7284,-0.6756,-0.6429,-0.6141,-0.5815,-0.5557,-0.5428,-0.5395,-0.5395,-0.5395,-0.5428,-0.5395,-0.5395,-0.5395,-0.5395,-0.5395,-0.5395,-0.5395,-0.5395,-0.5395,-0.5395,-0.5395,-0.5395,-0.5425,-0.5458,-0.5496,-0.5511,-0.5548,-0.5568,-0.5524,-0.5446,-0.544,-0.5433,-0.5395,-0.5395,-0.5495,-0.5528,-0.5591,-0.5653,-0.5716,-0.5815,-0.5914,-0.605,-0.6083,-0.6083,-0.6148,-0.6181,-0.6218,-0.6218,-0.6284,-0.6317,-0.6288,-0.6321,-0.6387,-0.6354,-0.6284,-0.6243,-0.62,-0.6105,-0.5903,-0.5715,-0.8056,-0.7993,-0.8118,-0.7911,-0.7527,-0.7639,-0.7514,-0.7197,-0.7138,-0.7241,-0.7459,-0.7778,-0.7809,-0.7494,-0.7521,-0.744,-0.744,-0.7488,-0.7467,-0.744,-0.7413,-0.7419,-0.7392,-0.7311,-0.7306,-0.7085,-0.6588,-0.6231,-0.5891,-0.585,-0.5905,-0.5941,-0.5982,-0.5962,-0.5743,-0.5804,-0.5957,-0.6509,-0.6416,-0.665,-0.712,-0.6957,-0.6859,-0.5939,-0.5514,-0.5219,-0.5186,-0.5286,-0.5385,-0.5679,-0.6137,-0.6461,-0.6625,-0.6724,-0.6433,-0.6075,-0.5811,-0.5782,-0.5491,-0.5362,-0.5362,-0.5359,-0.5395,-0.5395,-0.5395,-0.5395,-0.5395,-0.5395,-0.5395,-0.5395,-0.5395,-0.5395,-0.5395,-0.5395,-0.5395,-0.5395,-0.5395,-0.5428,-0.5425,-0.5439,-0.5466,-0.5466,-0.5489,-0.5456,-0.5416,-0.5416,-0.5395,-0.5395,-0.5395,-0.5362,-0.5362,-0.5326,-0.5352,-0.5517,-0.5683,-0.5749,-0.5851,-0.5851,-0.5712,-0.558,-0.5484,-0.5885,-0.6083,-0.6086,-0.6119,-0.6123,-0.6156,-0.6222,-0.6185,-0.6053,-0.6086,-0.6079,-0.6003,-0.5923,-0.5789,-0.7521,-0.7508,-0.7481,-0.7353,-0.7203,-0.7316,-0.7138,-0.6864,-0.6956,-0.6896,-0.6817,-0.7252,-0.7423,-0.7434,-0.744,-0.7365,-0.7338,-0.7359,-0.7333,-0.7279,-0.7225,-0.7058,-0.6982,-0.6982,-0.6707,-0.6428,-0.6009,-0.561,-0.5266,-0.5298,-0.5329,-0.5242,-0.5266,-0.5325,-0.5282,-0.5164,-0.5151,-0.5616,-0.5683,-0.5474,-0.5517,-0.5517,-0.5646,-0.5448,-0.502,-0.4661,-0.4728,-0.4761,-0.4761,-0.499,-0.5382,-0.5609,-0.5774,-0.5844,-0.5646,-0.5352,-0.5326,-0.5326,-0.5263,-0.5226,-0.5292,-0.5326,-0.5359,-0.5359,-0.5362,-0.5395,-0.5395,-0.5395,-0.5395,-0.5395,-0.5395,-0.5395,-0.5395,-0.5395,-0.5395,-0.5395,-0.5395,-0.5395,-0.5395,-0.5395,-0.5395,-0.5395,-0.5395,-0.5395,-0.5395,-0.5395,-0.5395,-0.5395,-0.5395,-0.5296,-0.5259,-0.5093,-0.4987,-0.5186,-0.5352,-0.5183,-0.5084,-0.5017,-0.4815,-0.4749,-0.4818,-0.5219,-0.5587,-0.5855,-0.5888,-0.5954,-0.5958,-0.5991,-0.5921,-0.5851,-0.5885,-0.5903,-0.5898,-0.582,-0.5814,-0.7844,-0.8025,-0.7817,-0.7698,-0.7612,-0.7316,-0.7101,-0.7004,-0.6864,-0.6645,-0.6603,-0.6928,-0.7166,-0.7139,-0.7192,-0.7112,-0.7058,-0.7112,-0.7166,-0.7139,-0.6756,-0.6534,-0.6364,-0.6201,-0.5481,-0.5266,-0.5155,-0.4894,-0.4736,-0.4826,-0.4892,-0.4871,-0.4878,-0.4743,-0.4414,-0.4336,-0.4495,-0.4857,-0.4877,-0.4697,-0.4894,-0.4957,-0.5057,-0.4824,-0.4464,-0.4461,-0.4528,-0.4498,-0.4528,-0.4625,-0.4758,-0.4888,-0.502,-0.509,-0.5024,-0.499,-0.4964,-0.4997,-0.4994,-0.4994,-0.5027,-0.5123,-0.516,-0.5226,-0.5259,-0.5359,-0.5359,-0.5395,-0.5395,-0.5395,-0.5395,-0.5395,-0.5395,-0.5395,-0.5395,-0.5395,-0.5395,-0.5395,-0.5395,-0.5395,-0.5395,-0.5395,-0.5395,-0.5395,-0.5395,-0.5362,-0.5259,-0.5259,-0.5156,-0.516,-0.506,-0.4791,-0.4486,-0.4519,-0.4517,-0.4084,-0.3918,-0.3918,-0.3951,-0.4018,-0.422,-0.4622,-0.4957,-0.512,-0.5587,-0.5855,-0.5855,-0.5557,-0.5719,-0.5653,-0.565,-0.5687,-0.5725,-0.5687,-0.5651]}]]